[[{"header":{"parameterUnit":"m.s-1","parameterCategory":1,"la1":30.6,"la2":29.2853,"lo1":-89.7004,"lo2":-87.6739,"dy":0.0162,"dx":0.0183,"nx":112,"ny":82,"refTime":"2023-07-25T12:00:00:Z","depth":0,"parameterNumber":2,"parameterNumberName":"U-component_of_WINDS"},"data":[0.0,0.0,0.0,0.0,0.0,0.0,0.0,0.0,0.0,0.0,0.0,0.0,0.0,0.0,0.0,0.0,0.0,0.0,0.0,0.0,0.0,0.0,0.0,0.0,0.0,0.0,0.0,0.0,0.0,0.0,0.0,0.0,0.0,0.0,0.0,0.0,0.0,0.0,0.0,0.0,0.0,0.0,0.0,0.0,0.0,0.0,0.0,0.0,0.0,0.0,0.0,0.0,0.0,0.0,0.0,0.0,0.0,0.0,0.0,0.0,0.0,0.0,0.0,0.0,0.0,0.0,0.0,0.0,0.0,0.0,0.0,0.0,0.0,0.0,0.0,0.0,0.0,0.0,0.0,0.0,0.0,0.0,0.0,0.0,0.0,0.0,0.0,0.0,0.0,0.0,0.4495,0.4496,0.4448,0.4457,0.4463,0.4268,0.4214,0.4372,0.0,0.0,0.0,0.0,0.0,0.0,0.0,0.0,0.0,0.0,0.0,0.0,0.0,0.0,0.0,0.0,0.0,0.0,0.0,0.0,0.0,0.0,0.0,0.0,0.0,0.0,0.0,0.0,0.0,0.0,0.0,0.0,0.0,0.0,0.0,0.0,0.0,0.0,0.0,0.0,0.0,0.0,0.0,0.0,0.0,0.0,0.0,0.0,0.0,0.0,0.0,0.0,0.0,0.0,0.0,0.0,0.0,0.0,0.0,0.0,0.0,0.0,0.0,0.0,0.0,0.0,0.0,0.0,0.0,0.0,0.0,0.0,0.0,0.0,0.0,0.0,0.0,0.0,0.0,0.0,0.0,0.0,0.0,0.0,0.0,0.0,0.0,0.0,0.0,0.0,0.0,0.0,0.0,0.0,0.0,0.0,0.0,0.0,0.0,0.0,0.0,0.0,0.0,0.0,0.4554,0.4964,0.4742,0.4641,0.4795,0.4497,0.4316,0.441,0.0,0.0,0.0,0.0,0.0,0.0,0.0,0.0,0.0,0.0,0.0,0.0,0.0,0.0,0.0,0.0,0.0,0.0,0.0,0.0,0.0,0.0,0.0,0.0,0.0,0.0,0.0,0.0,0.0,0.0,0.0,0.0,0.0,0.0,0.0,0.0,0.0,0.0,0.0,0.0,0.0,0.0,0.0,0.0,0.0,0.0,0.0,0.0,0.0,0.0,0.0,0.0,0.0,0.0,0.0,0.0,0.0,0.0,0.0,0.0,0.0,0.0,0.0,0.0,0.0,0.0,0.0,0.0,0.0,0.0,0.0,0.0,0.0,0.0,0.0,0.0,0.0,0.0,0.0,0.0,0.0,0.0,0.0,0.0,0.0,0.0,0.0,0.0,0.0,0.0,0.0,0.0,0.0,0.0,0.0,0.0,0.0,0.0,0.0,0.0,0.0,0.0,0.0,0.4532,0.4736,0.4857,0.4829,0.4808,0.4832,0.4642,0.4497,0.4473,0.4566,0.0,0.0,0.0,0.0,0.0,0.0,0.0,0.0,0.0,0.0,0.0,0.0,0.0,0.0,0.0,0.0,0.0,0.0,0.0,0.0,0.0,0.0,0.0,0.0,0.0,0.0,0.0,0.0,0.0,0.0,0.0,0.0,0.0,0.0,0.0,0.0,0.0,0.0,0.0,0.0,0.0,0.0,0.0,0.0,0.0,0.0,0.0,0.0,0.0,0.0,0.0,0.0,0.0,0.0,0.0,0.0,0.0,0.0,0.0,0.0,0.0,0.0,0.0,0.0,0.0,0.0,0.0,0.0,0.0,0.0,0.0,0.0,0.0,0.0,0.0,0.0,0.0,0.0,0.0,0.0,0.0,0.0,0.0,0.0,0.0,0.0,0.0,0.0,0.0,0.0,0.0,0.0,0.0,0.0,0.0,0.0,0.0,0.0,0.0,0.0,0.0,0.0,0.4672,0.479,0.4862,0.4934,0.4986,0.4956,0.4842,0.4744,0.464,0.4665,0.0,0.0,0.0,0.0,0.0,0.0,0.0,0.0,0.0,0.0,0.0,0.0,0.0,0.0,0.0,0.0,0.0,0.0,0.0,0.0,0.0,0.0,0.0,0.0,0.0,0.0,0.0,0.0,0.0,0.0,0.0,0.0,0.0,0.0,0.0,0.0,0.0,0.0,0.0,0.0,0.0,0.0,0.0,0.0,0.0,0.0,0.0,0.0,0.0,0.0,0.0,0.0,0.0,0.0,0.0,0.0,0.0,0.0,0.0,0.0,0.0,0.0,0.0,0.0,0.0,0.0,0.0,0.0,0.0,0.0,0.0,0.0,0.0,0.0,0.0,0.0,0.0,0.0,0.0,0.0,0.0,0.0,0.0,0.0,0.0,0.0,0.0,0.0,0.0,0.0,0.0,0.0,0.0,0.0,0.0,0.0,0.0,0.0,0.0,0.0,0.0,0.0,0.4492,0.4663,0.5293,0.5153,0.5127,0.5426,0.5163,0.4997,0.5067,0.4845,0.0,0.0,0.0,0.0,0.0,0.0,0.0,0.0,0.0,0.0,0.0,0.0,0.0,0.0,0.0,0.0,0.0,0.0,0.0,0.0,0.0,0.0,0.0,0.0,0.0,0.0,0.0,0.0,0.0,0.0,0.0,0.0,0.0,0.0,0.0,0.0,0.0,0.0,0.0,0.0,0.0,0.0,0.0,0.0,0.0,0.0,0.0,0.0,0.0,0.0,0.0,0.0,0.0,0.0,0.0,0.0,0.0,0.0,0.0,0.0,0.0,0.0,0.0,0.0,0.0,0.0,0.0,0.0,0.0,0.0,0.0,0.0,0.0,0.0,0.0,0.0,0.0,0.0,0.0,0.0,0.0,0.0,0.0,0.0,0.0,0.0,0.0,0.0,0.0,0.0,0.0,0.0,0.0,0.0,0.0,0.0,0.0,0.0,0.0,0.0,0.0,0.0,0.4526,0.4726,0.5112,0.5155,0.5275,0.5486,0.5367,0.53,0.5235,0.0,0.0,0.0,0.0,0.0,0.0,0.0,0.0,0.0,0.0,0.0,0.0,0.0,0.0,0.0,0.0,0.0,0.0,0.0,0.0,0.0,0.0,0.0,0.0,0.0,0.0,0.0,0.0,0.0,0.0,0.0,0.0,0.0,0.0,0.0,0.0,0.0,0.0,0.0,0.0,0.0,0.0,0.0,0.0,0.0,0.0,0.0,0.0,0.0,0.0,0.0,0.0,0.0,0.0,0.0,0.0,0.0,0.0,0.0,0.0,0.0,0.0,0.0,0.0,0.0,0.0,0.0,0.0,0.0,0.0,0.0,0.0,0.0,0.0,0.0,0.0,0.0,0.0,0.0,0.0,0.0,0.0,0.0,0.0,0.0,0.0,0.0,0.0,0.0,0.0,0.0,0.0,0.0,0.0,0.0,0.0,0.0,0.0,0.0,0.0,0.0,0.0,0.4329,0.4498,0.4738,0.5065,0.5192,0.5325,0.541,0.5494,0.5468,0.5388,0.0,0.0,0.0,0.0,0.0,0.0,0.0,0.0,0.0,0.0,0.0,0.0,0.0,0.0,0.0,0.0,0.0,0.0,0.0,0.0,0.0,0.0,0.0,0.0,0.0,0.0,0.0,0.0,0.0,0.0,0.0,0.0,0.0,0.0,0.0,0.0,0.0,0.0,0.0,0.0,0.0,0.0,0.0,0.0,0.0,0.0,0.0,0.0,0.0,0.0,0.0,0.0,0.0,0.0,0.0,0.0,0.0,0.0,0.0,0.0,0.0,0.0,0.0,0.0,0.0,0.0,0.0,0.0,0.0,0.0,0.0,0.0,0.0,0.0,0.0,0.0,0.0,0.0,0.0,0.0,0.0,0.0,0.0,0.0,0.0,0.0,0.0,0.0,0.0,0.0,0.0,0.0,0.0,0.0,0.0,0.0,0.0,0.0,0.0,0.0,0.0,0.0,0.441,0.4437,0.4645,0.524,0.5241,0.5241,0.529,0.5412,0.5496,0.0,0.0,0.0,0.0,0.0,0.0,0.0,0.0,0.0,0.0,0.0,0.0,0.0,0.0,0.0,0.0,0.0,0.0,0.0,0.0,0.0,0.0,0.0,0.0,0.0,0.0,0.0,0.0,0.0,0.0,0.0,0.0,0.0,0.0,0.0,0.0,0.0,0.0,0.0,0.0,0.0,0.0,0.0,0.0,0.0,0.0,0.0,0.0,0.0,0.0,0.0,0.0,0.0,0.0,0.0,0.0,0.0,0.0,0.0,0.0,0.0,0.0,0.0,0.0,0.0,0.0,0.0,0.0,0.0,0.0,0.0,0.0,0.0,0.0,0.0,0.0,0.0,0.0,0.0,0.0,0.0,0.0,0.0,0.0,0.0,0.0,0.0,0.0,0.0,0.0,0.0,0.0,0.0,0.0,0.0,0.0,0.0,0.0,0.0,0.0,0.0,0.0,0.0,0.4364,0.4526,0.4721,0.5041,0.5202,0.5334,0.5432,0.5477,0.5518,0.5553,0.0,0.0,0.0,0.0,0.0,0.0,0.0,0.0,0.0,0.0,0.0,0.0,0.0,0.0,0.0,0.0,0.0,0.0,0.0,0.0,0.0,0.0,0.0,0.0,0.0,0.0,0.0,0.0,0.0,0.0,0.0,0.0,0.0,0.0,0.0,0.0,0.0,0.0,0.0,0.0,0.0,0.0,0.0,0.0,0.0,0.0,0.0,0.0,0.0,0.0,0.0,0.0,0.0,0.0,0.0,0.0,0.0,0.0,0.0,0.0,0.0,0.0,0.0,0.0,0.0,0.0,0.0,0.0,0.0,0.0,0.0,0.0,0.0,0.0,0.0,0.0,0.0,0.0,0.0,0.0,0.0,0.0,0.0,0.0,0.0,0.0,0.0,0.0,0.0,0.0,0.0,0.0,0.0,0.0,0.0,0.0,0.0,0.0,0.0,0.0,0.0,0.0,0.4385,0.4584,0.4746,0.5,0.5199,0.5365,0.5465,0.5559,0.5614,0.5569,0.0,0.0,0.0,0.0,0.0,0.0,0.0,0.0,0.0,0.0,0.0,0.0,0.0,0.0,0.0,0.0,0.0,0.0,0.0,0.0,0.0,0.0,0.0,0.0,0.0,0.0,0.0,0.0,0.0,0.0,0.0,0.0,0.0,0.0,0.0,0.0,0.0,0.0,0.0,0.0,0.0,0.0,0.0,0.0,0.0,0.0,0.0,0.0,0.0,0.0,0.0,0.0,0.0,0.0,0.0,0.0,0.0,0.0,0.0,0.0,0.0,0.0,0.0,0.0,0.0,0.0,0.0,0.0,0.0,0.0,0.0,0.0,0.0,0.0,0.0,0.0,0.0,0.0,0.0,0.0,0.0,0.0,0.0,0.0,0.0,0.0,0.0,0.0,0.0,0.0,0.0,0.0,0.0,0.0,0.0,0.0,0.0,0.0,0.0,0.0,0.0,0.0,0.4405,0.4532,0.4732,0.5047,0.5254,0.5381,0.543,0.5625,0.5695,0.5508,0.0,0.0,0.0,0.0,0.0,0.0,0.0,0.0,0.0,0.0,0.0,0.0,0.0,0.0,0.0,0.0,0.0,0.0,0.0,0.0,0.0,0.0,0.0,0.0,0.0,0.0,0.0,0.0,0.0,0.0,0.0,0.0,0.0,0.0,0.0,0.0,0.0,0.0,0.0,0.0,0.0,0.0,0.0,0.0,0.0,0.0,0.0,0.0,0.0,0.0,0.0,0.0,0.0,0.0,0.0,0.0,0.0,0.0,0.0,0.0,-0.058,-0.014,0.0,0.0,0.0,0.0,0.0,0.0,0.0,0.0,0.0,0.0,0.0,0.0,0.0,0.0,0.0,0.0,0.0,0.0,0.0,0.0,0.0,0.0,0.0,0.0,0.0,0.0,0.0,0.0,0.0,0.0,0.0,0.0,0.0,0.0,0.0,0.0,0.0,0.0,0.0,0.0,0.4162,0.4378,0.4644,0.4914,0.5183,0.5388,0.5486,0.5642,0.568,0.5638,0.5574,0.0,0.0,0.0,0.0,0.0,0.0,0.0,0.0,0.0,0.0,0.0,0.0,0.0,0.0,0.0,0.0,0.0,0.0,0.0,0.0,0.0,0.0,0.0,0.0,0.0,0.0,0.0,0.0,0.0,0.0,0.0,0.0,0.0,0.0,0.0,0.0,0.0,0.0,0.0,0.0,0.0,0.0,0.0,0.0,0.0,0.0,0.0,0.0,0.0,0.0,0.0,0.0,0.0,0.0,0.0,0.0,0.0,0.0,0.0,-0.1648,-0.1332,0.0,0.0,0.0,0.0,0.0,0.0,0.0,0.0,0.0,0.0,0.0,0.0,0.0,0.0,0.0,0.0,0.0,0.0,0.0,0.0,0.0,0.0,0.0,0.0,0.0,0.0,0.0,0.0,0.0,0.0,0.0,0.0,0.0,0.0,0.0,0.0,0.0,0.0,0.0,0.0,0.3944,0.4222,0.4461,0.4743,0.5048,0.5265,0.5372,0.5533,0.5653,0.5611,0.5562,0.0,0.0,0.0,0.0,0.0,0.0,0.0,0.0,0.0,0.0,0.0,0.0,0.0,0.0,0.0,0.0,0.0,0.0,0.0,0.0,0.0,0.0,0.0,0.0,0.0,0.0,0.0,0.0,0.0,0.0,0.0,0.0,0.0,0.0,0.0,0.0,0.0,0.0,0.0,0.0,0.0,0.0,0.0,0.0,0.0,0.0,0.0,0.0,0.0,0.0,0.0,0.0,0.0,-0.2936,-0.3093,-0.2923,-0.3146,-0.3235,-0.3268,-0.2928,-0.2757,-0.2692,-0.2451,0.0,0.0,0.0,0.0,0.0,0.0,0.0,0.0,0.0,0.0,0.0,0.0,0.0,0.0,0.0,0.0,0.0,0.0,0.0,0.0,0.0,0.0,0.0476,0.04,0.0363,0.0569,0.1148,0.0,0.0,0.0,0.0,0.0,0.0,0.0,0.0,0.0,0.0,0.0,0.3683,0.3892,0.4148,0.4438,0.4755,0.4961,0.5132,0.5348,0.5444,0.5396,0.5408,0.5334,0.0,0.0,0.0,0.0,0.0,0.0,0.0,0.0,0.0,0.0,0.0,0.0,0.0,0.0,0.0,0.0,0.0,0.0,0.0,0.0,0.0,0.0,0.0,0.0,0.0,0.0,0.0,0.0,0.0,0.0,0.0,0.0,0.0755,0.043,0.0,0.0,0.0,0.0,0.0,0.0,0.0,0.0,0.0,0.0,0.0,0.0,0.0,-0.307,-0.3493,-0.3488,-0.3522,-0.3674,-0.3855,-0.403,-0.4152,-0.415,-0.4244,-0.4482,-0.454,0.0,-0.3195,-0.3236,0.0,0.0,0.0,0.0,0.0,0.0,0.0,0.0,0.0,0.0,0.0,0.0,0.0,0.0,0.0,0.0,0.0,0.0,0.0,0.0,0.0,0.0,-0.0379,-0.048,-0.0498,-0.0469,-0.0486,0.009,0.0582,0.054,0.0748,0.0956,0.0,0.0,0.0,0.0,0.0,0.0,0.3034,0.3182,0.3482,0.4029,0.4104,0.4242,0.4574,0.4847,0.5001,0.4976,0.5055,0.5036,0.5031,0.4886,0.0,0.0,0.0,0.0,0.0,0.0,0.0,0.0,0.0,0.0,0.0,0.0,0.0,0.0,0.0,0.0,0.0,0.0,0.0,0.0,0.0,0.0,0.0,0.0,0.0,0.0,0.0,0.0,0.0,0.0506,0.0063,-0.0236,-0.0727,-0.1067,0.0,0.0,0.0,0.0,0.0,0.0,0.0,0.0,0.0,-0.3211,-0.364,-0.413,-0.4648,-0.4611,-0.4733,-0.4979,-0.4861,-0.4902,-0.5207,-0.5155,-0.5312,-0.5568,-0.5681,-0.5519,-0.5112,-0.4636,-0.4498,-0.4559,0.0,0.0,0.0,0.0,-0.4255,-0.4182,-0.429,-0.4367,-0.4382,-0.4313,0.0,0.0,0.0,0.0,0.0,0.0,0.0,-0.1279,-0.1487,-0.1453,-0.1363,-0.1383,-0.1311,-0.1243,-0.129,-0.1051,-0.0672,-0.0328,0.0047,0.0327,0.042,0.0794,0.0,0.0,0.0,0.1981,0.2526,0.271,0.2945,0.3436,0.3602,0.3801,0.4073,0.4296,0.4405,0.451,0.4616,0.4724,0.4766,0.4689,0.4664,0.0,0.0,0.0,0.0,0.0,0.0,0.0,0.0,0.0,0.0,0.0,0.0,0.0,0.0,0.0,0.0,0.0,0.0,0.0,0.0,0.0,0.0,0.0,0.0,0.0,0.0,0.0,0.0,-0.0064,-0.0565,-0.083,-0.1434,-0.1841,0.0,0.0,0.0,0.0,0.0,0.0,-0.2671,-0.3094,-0.3537,-0.3989,-0.4642,-0.518,-0.5643,-0.5747,-0.5956,-0.6219,-0.5845,-0.5794,-0.6105,-0.6048,-0.6157,-0.6374,-0.6547,-0.6719,-0.675,-0.5959,-0.5691,-0.5746,-0.5594,-0.5498,-0.5407,-0.5276,-0.513,-0.4972,-0.5127,-0.5135,-0.5112,-0.5061,-0.4767,-0.4304,-0.3721,0.0,0.0,0.0,0.0,-0.191,-0.2306,-0.229,-0.2149,-0.2145,-0.2073,-0.2014,-0.196,-0.1983,-0.1801,-0.1138,-0.0716,-0.0408,-0.0303,0.0151,0.0,0.0857,0.1119,0.1451,0.1932,0.2174,0.2436,0.2859,0.3019,0.3229,0.3506,0.3704,0.3796,0.3903,0.4184,0.4339,0.4404,0.4441,0.4575,0.4783,0.0,0.0,0.0,0.0,0.0,0.0,0.0,0.0,0.0,0.0,0.0,0.0,0.0,0.0,0.0,0.0,0.0,0.0,0.0,0.0,0.0,0.0,0.0,0.0,0.0,0.0,0.0,0.0,0.0,-0.1342,-0.1855,0.0,0.0,0.0,0.0,-0.3118,-0.321,-0.3473,-0.3974,-0.433,-0.4765,-0.53,-0.6058,-0.6609,-0.6932,-0.721,-0.7384,-0.7394,-0.6895,-0.6696,-0.6823,-0.6707,-0.6707,-0.6877,-0.7152,-0.7357,-0.7427,-0.6807,-0.6479,-0.6425,-0.6234,-0.6126,-0.6016,-0.5926,-0.5773,-0.5661,-0.5671,-0.5583,-0.5492,-0.5452,-0.5052,-0.4401,-0.3845,-0.3386,0.0,0.0,-0.2551,-0.2506,-0.2663,-0.2636,-0.2601,-0.2709,-0.2788,-0.28,-0.2753,-0.2756,-0.2499,-0.1788,-0.1541,-0.1314,-0.0913,0.0,-0.0403,0.0353,0.0519,0.0699,0.1114,0.1438,0.1841,0.2386,0.239,0.2463,0.281,0.3016,0.313,0.313,0.3574,0.3848,0.3822,0.4229,0.4444,0.4507,0.4938,0.0,0.0,0.0,0.0,0.0,0.0,0.0,0.0,0.0,0.0,0.0,0.0,0.0,0.0,0.0,0.0,0.0,0.0,0.0,0.0,0.0,0.0,0.0,0.0,0.0,0.0,0.0,0.0,-0.2441,-0.2911,0.0,-0.3947,-0.4013,-0.4174,-0.4465,-0.4529,-0.4784,-0.5363,-0.5714,-0.6149,-0.6776,-0.7311,-0.7769,-0.8171,-0.8083,-0.8129,-0.8305,-0.781,-0.7654,-0.7769,-0.7654,-0.7772,-0.812,-0.8237,-0.8402,-0.8617,-0.8406,-0.8038,-0.7534,-0.7379,-0.7318,-0.7345,-0.7239,-0.707,-0.6948,-0.6948,-0.6839,-0.6657,-0.6242,-0.5485,-0.4671,-0.4312,-0.3952,-0.3609,-0.3481,-0.3451,-0.3416,-0.3606,-0.3599,-0.3513,-0.369,-0.3573,-0.3447,-0.345,-0.336,-0.3111,-0.2714,-0.2288,-0.1929,-0.1675,-0.1325,-0.0922,-0.0462,-0.0291,-0.0,0.0656,0.1025,0.1341,0.1661,0.1891,0.2104,0.2354,0.2618,0.2807,0.286,0.3187,0.3448,0.3681,0.3973,0.4294,0.4541,0.4801,0.5075,0.0,0.0,0.0,0.0,0.0,0.0,0.0,0.0,0.0,0.0,0.0,0.0,0.0,0.0,0.0,0.0,0.0,0.0,0.0,0.0,0.0,0.0,0.0,0.0,0.0,0.0,-0.3016,-0.3409,-0.3877,-0.4424,-0.5116,-0.5196,-0.5351,-0.574,-0.5749,-0.6049,-0.664,-0.6957,-0.7335,-0.7903,-0.8322,-0.8693,-0.8994,-0.8875,-0.8878,-0.9122,-0.8607,-0.8443,-0.8554,-0.8443,-0.8563,-0.8863,-0.8918,-0.9094,-0.9386,-0.9386,-0.9095,-0.8652,-0.8393,-0.8294,-0.833,-0.8162,-0.8035,-0.7844,-0.7728,-0.7555,-0.7359,-0.6735,-0.6104,-0.5456,-0.5016,-0.4686,-0.4428,-0.43,-0.4219,-0.4192,-0.4344,-0.4243,-0.418,-0.4304,-0.4212,-0.4055,-0.3932,-0.3842,-0.3682,-0.3425,-0.2935,-0.2464,-0.2096,-0.1786,-0.1417,-0.1173,-0.0865,-0.0558,-0.0,0.0439,0.0755,0.1078,0.1448,0.1732,0.1859,0.2191,0.2322,0.2417,0.2745,0.3077,0.3357,0.3774,0.4134,0.4456,0.4784,0.52,0.5629,0.0,0.0,0.0,0.0,0.0,0.0,0.0,0.0,0.0,0.0,0.0,0.0,0.0,0.0,0.0,0.0,0.0,0.0,0.0,0.0,0.0,0.0,0.0,-0.2115,-0.2807,-0.3539,-0.407,-0.474,-0.5338,-0.5906,-0.5989,-0.6323,-0.6909,-0.6942,-0.721,-0.7798,-0.8046,-0.8229,-0.8537,-0.9132,-0.9386,-0.9447,-0.9588,-0.9723,-0.9717,-0.9251,-0.9054,-0.9054,-0.9054,-0.9054,-0.9054,-0.923,-0.9415,-0.9545,-0.9545,-0.9709,-0.9864,-0.9272,-0.8934,-0.8828,-0.8661,-0.8534,-0.8286,-0.7938,-0.7763,-0.7522,-0.7091,-0.6844,-0.6607,-0.594,-0.5636,-0.5457,-0.5156,-0.4919,-0.4743,-0.4743,-0.4618,-0.4557,-0.4555,-0.4597,-0.4504,-0.4186,-0.4216,-0.4232,-0.3893,-0.3401,-0.2839,-0.2349,-0.2102,-0.1979,-0.1735,-0.1301,0.0,-0.0709,-0.0323,0.0196,0.0737,0.0985,0.1214,0.1487,0.168,0.1801,0.18,0.2356,0.2745,0.2911,0.3581,0.4077,0.4204,0.4914,0.5555,0.608,0.0,0.0,0.0,0.0,0.0,0.0,0.0,0.0,0.0,0.0,0.0,0.0,0.0,0.0,0.0,0.0,0.0,0.0,0.0,0.0,0.0,0.0,-0.33,-0.3001,-0.3746,-0.4511,-0.514,-0.5733,-0.6343,-0.6997,-0.7233,-0.7501,-0.7857,-0.7924,-0.8094,-0.8589,-0.8665,-0.8877,-0.9197,-0.952,-0.9746,-0.9803,-0.9873,-1.0002,-1.0127,-0.9856,-0.9756,-0.9756,-0.9756,-0.9815,-0.9942,-1.0004,-1.0132,-1.0324,-1.0324,-1.0371,-1.0348,-0.9874,-0.9582,-0.9516,-0.9453,-0.9197,-0.8808,-0.8565,-0.8202,-0.7752,-0.7567,-0.7211,-0.6777,-0.648,-0.6151,-0.5942,-0.5817,-0.5657,-0.556,-0.5361,-0.5294,-0.5294,-0.517,-0.507,-0.4965,-0.4834,-0.4666,-0.4428,-0.4231,-0.3846,-0.341,-0.302,-0.2691,-0.243,-0.2105,-0.1776,-0.1451,-0.1063,-0.0399,0.0067,0.0202,0.0735,0.1109,0.1117,0.1409,0.1669,0.1803,0.2131,0.2492,0.2842,0.3476,0.4103,0.4631,0.5113,0.5531,0.0,0.0,0.0,0.0,0.0,0.0,0.0,0.0,0.0,0.0,0.0,0.0,0.0,0.0,0.0,0.0,0.0,0.0,0.0,0.0,0.0,0.0,-0.398,-0.4458,-0.4577,-0.4931,-0.5442,-0.6118,-0.6601,-0.7199,-0.7938,-0.8104,-0.8293,-0.8568,-0.8577,-0.8704,-0.9045,-0.9113,-0.9313,-0.9606,-0.9865,-1.0053,-1.0114,-1.0241,-1.0304,-1.0431,-1.0304,-1.0241,-1.0241,-1.0241,-1.0304,-1.0434,-1.0434,-1.0498,-1.0624,-1.0624,-1.0624,-1.0544,0.0,0.0,0.0,0.0,-0.9411,-0.902,-0.8894,-0.8545,-0.8114,-0.7927,-0.7644,-0.7286,-0.6977,-0.6683,-0.645,-0.6382,-0.6203,-0.6018,-0.5883,-0.5749,-0.555,-0.5488,-0.5357,-0.5158,-0.5025,-0.4826,-0.4629,-0.4367,-0.4028,0.0,-0.3492,-0.3022,-0.262,-0.2356,-0.1951,-0.1614,-0.1345,-0.0808,-0.0404,-0.0202,0.0337,0.0727,0.1011,0.1182,0.0,0.0,0.0,0.2378,0.2998,0.3534,0.0,0.0,0.0,0.5541,0.5724,0.6049,0.0,0.0,0.6928,0.7068,0.0,0.0,0.0,0.0,0.0,0.0,0.0,0.0,0.0,0.0,0.0,0.0,0.0,0.0,0.0,0.0,-0.5131,-0.5852,-0.644,-0.6326,-0.6395,-0.7025,-0.7423,-0.7919,-0.8673,-0.8742,-0.8851,-0.9067,-0.9084,-0.9148,-0.9338,-0.9524,0.0,0.0,0.0,-1.0304,-1.0304,-1.0495,-1.0624,-1.0624,-1.0624,-1.0624,-1.0624,-1.0624,-1.0624,-1.0624,-1.0624,-1.0624,-1.0624,-1.0624,-1.0558,-1.0561,-1.0368,-1.0177,-0.9986,-0.9609,-0.9285,-0.9017,-0.9017,0.0,0.0,-0.8117,-0.7984,-0.7919,-0.7398,-0.7075,-0.6878,-0.6743,-0.6476,-0.6278,-0.6212,-0.5947,-0.5681,-0.5615,-0.5489,-0.5294,-0.4962,-0.4829,-0.4697,-0.4434,-0.4095,-0.3825,-0.3825,-0.3156,-0.262,-0.249,-0.1951,-0.1614,-0.1614,-0.128,-0.0944,-0.0472,-0.0135,0.0,0.1036,0.1072,0.1103,0.1366,0.1781,0.2407,0.334,0.3723,0.4218,0.4819,0.5186,0.5528,0.5762,0.6097,0.6406,0.6634,0.7214,0.7495,0.0,0.0,0.0,0.0,0.0,0.0,0.0,0.0,0.0,0.0,0.0,0.0,0.0,0.0,0.0,-0.5419,-0.6298,-0.7031,-0.7377,-0.7886,-0.8126,-0.7943,-0.8232,-0.8546,-0.8822,-0.908,-0.9288,-0.9603,-0.9673,-0.9734,-0.9856,-0.9919,-0.9919,-0.9986,-1.0177,-1.0304,-1.0304,-1.0495,-1.0624,-1.0624,-1.0624,0.0,-1.0624,-1.0624,-1.0624,-1.0624,-1.0624,-1.0624,-1.0624,-1.0624,-1.0495,-1.0368,-1.011,-1.005,-0.9986,-0.9609,-0.9411,-0.921,-0.9081,-0.8894,-0.8705,-0.8304,-0.8112,-0.7919,-0.7664,-0.7403,0.0,-0.6944,-0.6743,-0.6541,-0.6278,-0.6147,-0.6013,-0.5683,-0.555,-0.5488,-0.5292,-0.5028,-0.4762,-0.4697,-0.4295,-0.396,-0.3825,-0.3156,-0.2686,-0.262,-0.2017,-0.1614,-0.1614,-0.128,-0.0944,-0.0539,-0.0202,0.0267,0.1036,0.1093,0.1139,0.1289,0.2066,0.2668,0.3127,0.372,0.4112,0.4394,0.4898,0.5326,0.5648,0.5969,0.6404,0.6934,0.711,0.7259,0.0,0.0,0.0,0.0,0.0,0.0,0.0,0.0,0.0,0.0,0.0,-0.5357,0.0,0.0,-0.6266,-0.6602,-0.7422,-0.8145,-0.851,-0.8973,-0.9128,-0.8812,-0.8935,-0.9127,-0.9447,-0.9581,-0.9728,-0.9862,-0.9926,-0.9926,-0.9983,-1.0114,-1.0174,-1.0304,-1.0491,-1.0555,-1.0555,-1.0621,-1.0684,-1.0624,-1.0624,-1.0624,-1.0624,-1.0624,-1.0624,-1.0624,-1.0624,-1.0624,-1.0624,-1.0624,-1.0561,-1.0431,-1.0114,-0.9986,-0.9862,-0.9609,-0.9411,-0.9274,-0.9081,-0.8894,-0.8703,-0.8304,-0.8172,-0.8044,-0.7922,-0.7596,-0.733,-0.7202,-0.694,-0.6675,-0.6476,-0.6344,-0.6147,-0.5817,-0.5684,-0.555,-0.5291,-0.5092,-0.4892,-0.4761,-0.4429,-0.4096,-0.3825,-0.3357,-0.2889,-0.2753,-0.2083,-0.1614,-0.1614,-0.128,-0.0944,-0.0539,-0.0202,0.0201,0.0727,0.0977,0.1219,0.1453,0.2048,0.2661,0.3025,0.3469,0.3936,0.427,0.4659,0.5041,0.5328,0.5699,0.6084,0.6529,0.6794,0.7116,0.0,0.0,0.0,0.0,0.0,0.0,0.0,0.0,-0.6401,-0.6398,-0.6392,-0.6372,-0.637,-0.7048,-0.7649,-0.7764,-0.8507,-0.9135,-0.9528,-0.9739,-0.9839,-0.9762,-0.9577,-0.9668,-0.9964,-0.9986,-1.0047,-1.005,-1.0114,-1.0114,-1.0174,-1.0368,-1.0558,-1.0684,-1.0807,-1.0867,-1.0867,-1.0804,-1.0744,-1.0621,-1.0621,-1.0624,-1.0624,-1.0624,-1.0624,-1.0624,-1.0624,-1.0624,-1.0624,-1.0624,-1.0561,-1.0495,-1.011,-0.9926,-0.9804,-0.9548,-0.9414,-0.9341,-0.9145,-0.8958,-0.8829,-0.8433,-0.8304,-0.8239,-0.8112,-0.7852,-0.7589,-0.7524,-0.7197,-0.6806,-0.6738,-0.6476,-0.6214,-0.6018,-0.5818,-0.555,-0.5286,-0.5153,-0.5022,-0.4693,-0.4429,-0.4165,-0.3825,-0.3493,-0.3092,-0.2753,-0.2151,-0.1682,-0.1614,-0.128,-0.0944,-0.0674,-0.027,0.0135,0.0472,0.0858,0.1236,0.156,0.2015,0.2496,0.2953,0.3294,0.3697,0.4165,0.4429,0.4705,0.5108,0.543,0.5744,0.6166,0.6524,0.7059,-0.7183,-0.7062,-0.6994,-0.7366,-0.7283,-0.7154,0.0,0.0,-0.7167,-0.7194,-0.7297,-0.7544,-0.796,-0.8364,-0.8705,-0.8783,-0.9382,-0.9845,-1.006,-1.0468,-1.0756,-1.0881,-1.0315,-0.9948,-0.998,-0.9986,-1.005,-1.0241,-1.0434,-1.0558,-1.0681,-1.087,-1.1,-1.1059,-1.1062,-1.1059,-1.1059,-1.087,-1.0804,-1.0804,-1.0684,-1.0624,-1.0624,-1.0624,-1.0624,-1.0624,-1.0624,-1.0624,-1.0624,-1.0624,-1.0498,-1.0304,-1.0114,-0.9926,-0.9804,-0.9548,-0.9484,-0.9478,-0.9341,-0.9274,-0.921,-0.8829,-0.8641,-0.8444,-0.8239,-0.8044,-0.7852,-0.7589,-0.7458,-0.7328,-0.6804,-0.6675,-0.6544,-0.6214,-0.6018,-0.582,-0.5617,-0.5286,-0.5022,-0.4829,-0.4498,-0.4165,-0.3825,-0.3493,-0.3092,-0.2753,-0.2353,-0.2019,-0.1614,-0.1278,-0.1077,-0.1011,-0.0404,0.0135,0.0472,0.0873,0.1272,0.1607,0.2009,0.2347,0.2686,0.3024,0.3426,0.3825,0.4163,0.4556,0.5129,0.5333,0.5721,0.6359,0.6612,0.6991,-0.7998,-0.8066,-0.8177,0.0,-0.8296,-0.8383,-0.8725,-0.8558,-0.8383,-0.869,-0.8728,-0.8746,-0.8982,-0.934,-0.9617,0.0,-1.0062,-1.0377,-1.0498,-1.0666,-1.087,-1.1062,-1.0807,-1.0618,-1.0618,-1.0618,-1.0684,-1.0747,-1.0811,-1.0937,-1.0996,-1.1062,-1.1122,-1.1181,-1.1244,-1.1244,-1.1244,-1.1118,-1.1055,-1.0996,-1.0937,-1.0874,-1.0874,-1.0744,-1.0681,-1.0624,-1.0624,-1.0624,-1.0624,-1.0624,-1.0561,-1.0431,-1.0241,-1.0114,-1.0053,-0.9676,-0.9548,-0.9609,-0.9405,-0.9332,-0.9332,-0.902,-0.8829,-0.8762,-0.8692,-0.8503,-0.8252,-0.812,-0.7787,-0.7456,-0.7197,-0.6935,-0.6609,-0.6348,-0.6216,-0.6017,-0.5683,-0.5483,-0.5286,-0.4895,-0.4629,-0.4361,-0.3891,-0.3561,-0.3227,-0.2753,-0.2421,-0.2086,-0.1681,-0.1345,-0.1077,-0.0809,-0.027,0.0135,0.0472,0.0876,0.1212,0.1547,0.1884,0.2153,0.2488,0.2891,0.3226,0.3425,0.3828,0.4228,0.4629,0.4827,0.5226,0.5824,0.6086,0.6528,-0.8654,0.0,0.0,-0.912,-0.9306,-0.9527,-0.9895,-0.9762,-0.9658,-1.0142,-1.0065,-0.9857,-0.9883,-1.014,-1.0267,-1.0231,-1.0424,-1.0652,-1.086,-1.093,-1.0993,-1.1185,-1.1169,-1.1181,-1.1181,-1.1135,-1.1122,-1.1122,-1.1185,-1.1185,-1.1185,-1.1185,-1.131,-1.1369,-1.1369,-1.1369,-1.1369,-1.1306,-1.1244,-1.1122,-1.1122,-1.1125,-1.1059,-1.087,-1.0747,-1.0624,-1.0624,-1.0624,-1.0624,-1.0624,-1.0561,-1.0495,-1.0368,-1.0241,-1.0177,-0.9798,-0.9734,-0.9798,-0.9597,-0.9527,-0.9588,-0.9271,-0.9142,-0.9142,-0.9017,-0.8829,-0.8641,-0.8514,-0.8117,-0.7652,-0.7521,-0.7134,-0.6677,-0.6548,-0.6282,-0.6017,-0.5751,-0.5617,-0.5422,-0.4895,-0.4694,-0.4425,-0.3892,-0.3629,-0.3295,-0.2754,-0.2487,-0.2153,-0.1749,-0.1412,-0.1077,-0.0674,-0.027,0.0067,0.0337,0.0809,0.1213,0.1479,0.1682,0.1951,0.2356,0.269,0.3024,0.3227,0.3559,0.3896,0.43,0.4429,0.4761,0.5292,0.5625,0.602,0.0,0.0,-0.9286,-1.0037,-1.0284,-1.0375,-1.0711,-1.0835,-1.0947,-1.1293,-1.1043,-1.0732,-1.0755,-1.069,-1.053,-1.0301,-1.048,-1.0713,-1.1017,-1.1185,-1.1369,-1.156,-1.14,-1.1264,0.0,-1.1189,-1.1122,-1.1306,-1.1303,-1.1303,-1.1303,-1.1498,-1.1564,-1.156,-1.156,-1.156,-1.156,-1.1369,-1.1303,-1.1303,-1.1185,-1.1125,-1.1059,-1.087,-1.0747,-1.0624,-1.0624,-1.0624,-1.0624,-1.0624,-1.0498,-1.0304,-1.0304,-1.0177,-0.9986,-0.9983,-0.9983,-0.9983,-0.9986,-0.9983,-0.9916,-0.9585,-0.9457,-0.9457,-0.9078,-0.9017,-0.8891,-0.8576,-0.8374,-0.8107,-0.7589,-0.7202,-0.6878,-0.6741,-0.6282,-0.589,-0.589,-0.5625,-0.5296,-0.4897,-0.4694,-0.4425,-0.3892,-0.3629,-0.3295,-0.2754,-0.2686,-0.2486,-0.195,-0.1412,-0.1077,-0.1079,-0.0404,-0.0,-0.0,0.0674,0.1078,0.1143,0.1412,0.1816,0.2221,0.2554,0.2888,0.3227,0.343,0.3764,0.43,0.43,0.4563,0.5088,0.5292,0.569,-0.941,0.0,-1.0371,-1.047,-1.0983,-1.1461,-1.1761,-1.1823,-1.1826,-1.1823,-1.1631,-1.1344,-1.1013,-1.0725,-1.0566,-1.0501,-1.0579,-1.0692,-1.0855,-1.1112,-1.1369,-1.1564,-1.1332,0.0,0.0,0.0,0.0,-1.1291,-1.1497,-1.1619,-1.1494,-1.156,-1.1622,-1.1622,-1.1622,-1.1622,-1.1622,-1.156,-1.1494,-1.1494,-1.1306,-1.1185,-1.1059,-1.087,-1.0747,-1.0624,-1.0624,-1.0624,-1.0624,-1.0624,-1.0621,-1.0618,-1.0618,-1.0678,-1.0744,-1.0744,-1.0744,-1.0681,-1.0174,-1.0114,-1.0174,-0.9916,-0.9849,-0.9789,-0.9603,-0.9469,-0.9268,-0.8955,-0.8498,-0.8169,-0.7917,-0.7335,-0.6881,-0.6813,-0.655,-0.6154,-0.5956,-0.5824,-0.5557,-0.509,-0.4758,-0.4425,-0.4027,-0.3561,-0.3094,-0.2556,-0.2287,-0.2084,-0.1749,-0.1412,-0.1211,-0.1079,-0.0876,-0.0539,-0.0067,0.0404,0.0808,0.1076,0.1278,0.1614,0.1951,0.222,0.2555,0.2888,0.3159,0.343,0.3766,0.3964,0.4231,0.4563,0.5025,0.5357,-0.9872,-1.0318,-1.0818,-1.0874,-1.1481,-1.209,-1.2393,-1.2443,-1.238,-1.238,-1.1945,-1.1473,-1.1093,-1.0724,-1.0509,-1.0516,-1.0574,-1.0702,-1.0872,-1.1167,-1.1435,-1.1564,-1.1332,-1.1249,0.0,0.0,0.0,-1.1364,-1.1615,-1.1681,-1.1622,-1.1622,-1.1622,-1.1622,-1.1622,-1.1622,-1.1622,-1.1622,-1.156,-1.1498,-1.1369,-1.1181,-1.0996,-1.0867,-1.0747,-1.0624,-1.0624,-1.0624,-1.0624,-1.0621,-1.0744,-1.0807,-1.0867,-1.0996,-1.1125,-1.1125,-1.1125,-1.1059,-1.0555,-1.0428,-1.0428,-1.0241,-1.0174,-1.005,-0.9865,-0.9731,-0.953,-0.9145,-0.8694,-0.8371,-0.8052,-0.7528,-0.7073,-0.6946,-0.6616,-0.6352,-0.6084,-0.5886,-0.5688,-0.5291,-0.4891,-0.456,-0.4095,-0.3425,-0.289,-0.2556,-0.222,-0.1884,-0.1614,-0.148,-0.1346,-0.1145,-0.1079,-0.0876,-0.0202,0.0135,0.0539,0.1077,0.121,0.1345,0.1682,0.2019,0.2355,0.2555,0.2957,0.3227,0.3498,0.3697,0.3962,0.4232,0.4628,0.496,-1.0669,-1.064,-1.0644,-1.1324,-1.1801,-1.2161,-1.2685,-1.268,-1.2605,-1.2866,-1.2018,-1.1148,0.0,0.0,-1.0322,-1.0324,-1.058,-1.084,-1.0989,-1.1326,-1.1604,0.0,0.0,0.0,0.0,0.0,0.0,-1.1479,0.0,-1.1564,-1.156,-1.1564,-1.1564,-1.1564,-1.156,-1.1622,-1.1622,-1.1622,-1.1494,-1.1303,-1.1303,-1.1115,-1.0804,-1.0804,-1.0744,-1.0624,-1.0624,-1.0621,-1.0621,-1.0744,-1.0804,-1.0867,-1.1059,-1.1122,-1.1125,-1.1125,-1.1125,-1.1125,-1.1125,-1.0996,-1.0807,-1.0621,-1.0495,-1.0241,-0.9929,-0.9801,-0.967,-0.9148,-0.8896,-0.8705,-0.8117,-0.7722,-0.7393,-0.701,-0.6683,-0.6352,-0.6214,-0.5881,-0.5617,-0.5425,-0.5095,-0.4629,-0.4095,-0.3289,-0.2686,-0.2686,-0.2421,-0.2086,-0.1681,-0.1614,-0.148,-0.1143,-0.1078,-0.0944,-0.0539,-0.0202,0.027,0.1012,0.1077,0.1143,0.1278,0.1884,0.2221,0.2356,0.2757,0.3159,0.3498,0.3498,0.3697,0.4028,0.4232,0.4563,-1.0559,-1.1022,-1.1605,-1.1674,-1.2218,-1.2711,-1.2739,-1.2793,-1.2702,-1.2193,-1.171,-1.1231,0.0,0.0,0.0,-1.0281,-1.0467,0.0,-1.0833,-1.1163,0.0,-1.1593,0.0,-1.0947,-1.1063,-1.0887,0.0,0.0,-1.1247,-1.131,-1.1251,-1.1306,-1.1369,-1.1369,-1.1498,-1.1622,-1.1622,-1.1622,-1.1494,-1.1303,-1.1185,-1.1059,-1.0804,-1.0681,-1.0621,-1.0624,-1.0684,-1.0744,-1.0744,-1.0933,-1.1059,-1.1181,-1.1244,-1.1369,-1.1498,-1.1498,-1.1498,-1.1498,-1.1498,-1.1251,-1.0996,-1.0807,-1.0681,-1.0618,-1.0241,-1.0053,-0.9856,-0.9338,-0.9022,-0.8705,-0.8117,-0.7722,-0.7458,-0.7204,-0.6874,-0.6546,-0.6416,-0.6214,-0.5949,-0.5618,-0.4954,-0.4225,-0.3696,-0.3226,-0.2823,-0.2489,-0.2423,-0.2154,-0.1682,-0.1614,-0.148,-0.1143,-0.1078,-0.1079,-0.0944,-0.0337,0.0067,0.027,0.0809,0.1145,0.1143,0.1547,0.1884,0.2221,0.2621,0.2889,0.3159,0.3363,0.3629,0.3825,0.4164,0.4498,-1.1116,-1.1514,-1.1941,-1.1974,-1.2346,-1.2689,-1.2781,-1.2658,-1.2359,-1.1993,-1.1555,0.0,-1.0861,0.0,0.0,0.0,0.0,0.0,-1.0747,-1.1068,-1.1316,0.0,-1.1308,0.0,-1.1157,-1.0919,-1.0797,0.0,-1.1082,-1.1185,-1.1125,-1.1247,-1.1303,-1.1303,-1.1494,-1.1622,-1.1622,-1.1498,-1.1373,-1.1181,-1.1059,-1.087,-1.0684,-1.0621,-1.0621,-1.0681,-1.0744,-1.0867,-1.0933,-1.1118,-1.1244,-1.1303,-1.1432,-1.1619,-1.1681,-1.1809,-1.1747,-1.1685,-1.1685,-1.156,-1.1251,-1.0996,-1.087,-1.0744,-1.0431,-1.0177,-0.9919,-0.9402,-0.9084,-0.8765,-0.8182,-0.7854,-0.7657,-0.7267,-0.7005,-0.6745,-0.6548,-0.6346,-0.6015,-0.5484,-0.4888,-0.4291,-0.3695,-0.336,-0.3025,-0.269,-0.2556,-0.2354,-0.1951,-0.1682,-0.148,-0.121,-0.1144,-0.1078,-0.1079,-0.0539,-0.0135,-0.0,0.0539,0.0944,0.1077,0.1346,0.1681,0.2086,0.2353,0.2621,0.3024,0.316,0.3428,0.3694,0.3961,0.4231,-1.1847,-1.1905,-1.1987,-1.2292,-1.2278,-1.2359,-1.2791,-1.2351,-1.1815,-1.1935,0.0,-1.0986,-1.0785,-1.0717,-1.0602,-1.0501,0.0,-1.0716,-1.0709,-1.105,-1.1267,-1.1297,-1.1444,-1.1447,-1.1303,-1.1118,-1.0996,-1.0807,-1.0933,-1.1059,-1.1059,-1.1181,-1.1306,-1.1369,-1.1498,-1.1622,-1.1622,-1.1369,-1.1244,-1.1125,-1.087,-1.0744,-1.0624,-1.0624,-1.0681,-1.087,-1.0867,-1.0996,-1.1118,-1.126,-1.1301,-1.1301,-1.157,-1.1675,-1.1736,-1.1867,-1.1863,-1.1675,-1.1671,-1.1643,-1.1505,-1.1233,-1.0996,-1.0797,-1.0448,-1.0119,-0.9869,-0.9415,-0.916,-0.8784,-0.8239,-0.8049,-0.7854,-0.74,-0.7073,-0.6878,-0.6743,-0.6476,-0.6015,-0.5286,-0.4891,-0.4493,-0.3959,-0.3559,-0.3226,-0.3024,-0.2888,-0.262,-0.2288,-0.1884,-0.1614,-0.1345,-0.121,-0.1144,-0.1079,-0.0809,-0.0404,-0.0,0.0337,0.0674,0.1079,0.1212,0.1479,0.1816,0.2086,0.2422,0.289,0.2956,0.3159,0.3498,0.3693,0.3961,-1.1635,-1.2031,-1.2484,-1.2544,-1.259,-1.2588,-1.2508,-1.2154,0.0,0.0,-1.0816,-1.0483,-1.0118,-1.0223,-1.0336,-1.0336,0.0,0.0,0.0,0.0,-1.104,0.0,0.0,0.0,0.0,0.0,0.0,0.0,-1.0744,-1.0867,-1.0867,-1.1118,-1.1369,-1.156,-1.1564,-1.1622,-1.1622,-1.1369,-1.1244,-1.1125,-1.087,-1.0807,-1.0744,-1.0744,-1.087,-1.1059,-1.1181,-1.1244,-1.1288,-1.1264,-1.1271,-1.1305,-1.1169,-1.1125,-1.1122,-1.118,-1.1183,-1.1122,-1.0987,-1.1163,-1.1319,-1.1283,-1.1181,-1.0951,-1.0513,-1.0078,-0.9716,-0.9466,-0.9027,-0.8635,-0.846,-0.8184,-0.7922,-0.7664,-0.7272,-0.6881,-0.6881,-0.6546,-0.6079,-0.5615,-0.5092,-0.4629,-0.4299,-0.3894,-0.3559,-0.3226,-0.3159,-0.2958,-0.2423,-0.2221,-0.1884,-0.1345,-0.1278,-0.1211,-0.1079,-0.1012,-0.0742,-0.0067,0.0337,0.0674,0.1079,0.1212,0.1345,0.1412,0.1951,0.222,0.2355,0.2757,0.3092,0.3294,0.3625,0.3961,-1.2085,-1.2191,-1.2299,-1.2481,-1.2348,-1.2108,-1.2091,0.0,0.0,0.0,-1.0514,-1.0225,-0.9943,0.0,0.0,0.0,0.0,0.0,0.0,0.0,0.0,0.0,0.0,0.0,0.0,0.0,-1.0993,-1.0874,-1.0993,-1.0993,-1.0807,-1.1115,-1.1369,-1.156,-1.1622,-1.156,-1.1432,-1.131,-1.1122,-1.0933,-1.0867,-1.0804,-1.0804,-1.093,-1.1059,-1.1181,-1.1373,-1.1399,-1.1289,-1.1372,-1.1326,-1.1163,-1.113,-1.1187,-1.1183,-1.1172,-1.1175,-1.1122,-1.0876,-1.1028,-1.1275,-1.1192,-1.1059,-1.0851,-1.0525,-1.0013,-0.9512,-0.9419,-0.9027,-0.8584,-0.8516,-0.8249,-0.7922,-0.7729,-0.7272,-0.6881,-0.6811,-0.6478,-0.6081,-0.5818,-0.5425,-0.4964,-0.4632,-0.4298,-0.3962,-0.3694,-0.3451,-0.3157,-0.2829,-0.2534,-0.2136,-0.1511,-0.1299,-0.1224,-0.1032,-0.1032,-0.0844,-0.0263,0.0066,0.0531,0.1078,0.1145,0.1212,0.1278,0.1614,0.1884,0.2221,0.2556,0.2824,0.3092,0.3558,0.3893,-1.237,-1.2287,-1.2083,-1.2426,-1.2117,-1.1714,-1.1738,-1.1203,0.0,0.0,-1.019,-0.9907,-0.9741,0.0,0.0,0.0,0.0,0.0,0.0,0.0,0.0,0.0,0.0,0.0,0.0,0.0,0.0,-1.1122,-1.1244,-1.1181,-1.0993,-1.1244,-1.1432,-1.1622,-1.156,-1.1435,-1.1303,-1.1118,-1.0996,-1.0867,-1.0804,-1.0867,-1.0926,-1.1122,-1.131,-1.1424,-1.1545,-1.1491,-1.1353,-1.1328,-1.118,-1.0951,-1.1054,-1.1134,-1.1134,-1.1118,-1.1122,-1.1079,-1.0777,-1.088,-1.1103,-1.0986,-1.0842,-1.0756,-1.0464,-0.9879,-0.936,-0.9354,-0.9001,-0.8575,-0.8628,-0.8312,-0.7984,-0.7727,-0.7272,-0.6944,-0.6743,-0.6476,-0.6214,-0.602,-0.569,-0.5359,-0.4964,-0.4631,-0.4298,-0.4096,-0.3738,-0.3412,-0.3155,-0.2809,-0.2342,-0.1703,-0.1433,-0.1235,-0.1112,-0.105,-0.0874,-0.0639,-0.0193,0.0326,0.0868,0.1008,0.1146,0.1278,0.1278,0.1547,0.2086,0.2289,0.2557,0.2956,0.3492,0.3758,-1.1833,-1.2108,-1.2342,-1.2376,-1.2303,-1.2066,-1.1604,0.0,0.0,-0.985,-0.9679,-0.9508,-0.908,-0.9266,0.0,0.0,0.0,0.0,0.0,0.0,0.0,0.0,0.0,0.0,0.0,-1.1303,-1.1244,-1.1122,-1.1244,-1.1369,-1.1498,-1.1564,-1.1564,-1.1622,-1.1432,-1.1303,-1.1303,-1.0993,-1.093,-1.1059,-1.087,-1.093,-1.1244,-1.1435,-1.1622,-1.1721,-1.1601,-1.151,-1.1434,-1.095,-1.0736,-1.0732,-1.0636,-1.0566,-1.0566,-1.0562,-1.0562,-1.0566,-1.0414,-1.0424,-1.054,-1.0434,-1.0544,-1.0717,-1.0326,-0.974,-0.9233,-0.9243,-0.8844,-0.8474,-0.883,-0.8563,-0.8042,-0.7654,-0.7332,-0.7073,-0.6741,-0.6673,-0.6544,-0.6214,-0.5881,-0.5552,-0.536,-0.4892,-0.4495,-0.4299,-0.3998,-0.3601,-0.3154,-0.2883,-0.2545,-0.1956,-0.176,-0.1603,-0.1359,-0.1112,-0.0989,-0.093,-0.0318,0.0129,0.0194,0.0798,0.1079,0.1146,0.1212,0.1412,0.1681,0.2154,0.2489,0.2753,0.3294,0.3628,-1.1839,-1.1963,-1.2035,-1.2218,-1.1869,-1.1379,-1.1172,0.0,-1.0006,-0.9563,-0.933,-0.9089,-0.8843,-0.9035,-0.9247,0.0,0.0,0.0,0.0,0.0,0.0,0.0,0.0,0.0,0.0,0.0,-1.1435,-1.1373,-1.1432,-1.1498,-1.1622,-1.1622,-1.1622,-1.1622,-1.1369,-1.1244,-1.1185,-1.1059,-1.0933,-1.0933,-1.1181,-1.1369,-1.1498,-1.1747,-1.182,-1.1616,-1.1663,-1.1434,-1.1037,-1.0938,-1.0757,-1.0556,-1.0526,-1.0522,-1.0466,-1.0423,-1.0419,-1.0466,-1.011,-1.0227,-1.0449,-1.0224,-1.028,-1.035,-1.0115,-0.959,-0.9126,-0.9266,-0.898,-0.8622,-0.8949,-0.8624,-0.8104,-0.7724,-0.7528,-0.733,-0.7071,-0.6872,-0.6675,-0.6541,-0.621,-0.5883,-0.5758,-0.536,-0.5027,-0.4827,-0.4321,-0.3882,-0.3695,-0.3091,-0.263,-0.24,-0.2024,-0.1634,-0.1343,-0.1226,-0.1118,-0.096,-0.068,-0.038,0.0065,0.0332,0.0674,0.1079,0.1145,0.1346,0.1614,0.1951,0.2287,0.2686,0.3159,0.3429,-1.1709,-1.1741,-1.1666,-1.1952,-1.1509,-1.0949,0.0,0.0,-0.9483,-0.9127,-0.8843,-0.8623,-0.8483,-0.8573,-0.874,0.0,0.0,0.0,0.0,0.0,0.0,0.0,0.0,0.0,0.0,-1.137,-1.1622,-1.1622,-1.1622,-1.1622,-1.1622,-1.1622,-1.1622,-1.1622,-1.1369,-1.1244,-1.1185,-1.1122,-1.1059,-1.1055,-1.1435,-1.1685,-1.1806,-1.2016,-1.1957,-1.1705,-1.1689,-1.1379,-1.0925,-1.0933,-1.0797,-1.0569,-1.0569,-1.0518,-1.047,-1.0368,-1.0419,-1.0466,-1.0054,-1.0106,-1.0302,-1.0076,-0.9961,-0.9954,-0.9854,-0.9436,-0.9081,-0.9341,-0.9151,-0.8877,-0.8989,-0.863,-0.8242,-0.799,-0.7727,-0.7526,-0.733,-0.7068,-0.6806,-0.6741,-0.6476,-0.6214,-0.6018,-0.569,-0.536,-0.5223,-0.4629,-0.4162,-0.4003,-0.3409,-0.2944,-0.2749,-0.23,-0.1908,-0.1514,-0.1459,-0.1304,-0.1102,-0.1027,-0.0748,-0.0255,-0.0066,0.027,0.0742,0.1012,0.1213,0.1479,0.1749,0.2152,0.2554,0.2957,0.3294,-1.1282,-1.1522,-1.1433,-1.1494,-1.1395,-1.1042,0.0,0.0,-0.9321,-0.8402,-0.8214,-0.8129,-0.7841,-0.7802,-0.7992,-0.8519,0.0,0.0,0.0,0.0,0.0,0.0,0.0,0.0,-1.1011,-1.137,-1.1622,-1.1622,-1.1622,-1.1622,-1.1622,-1.1622,-1.1622,-1.1622,-1.1369,-1.1303,-1.1303,-1.1185,-1.1247,-1.156,-1.1622,-1.1809,-1.2293,-1.2067,-1.2078,-1.2151,-1.1628,-1.1375,-1.1391,-1.1028,-1.0824,-1.0722,-1.0722,-1.062,-1.0522,-1.0522,-1.0522,-1.047,-1.032,-1.0162,-1.0003,-0.9855,-0.9736,-0.9618,-0.9618,-0.9413,-0.9234,-0.9341,-0.9364,-0.9265,-0.9081,-0.8767,-0.8514,-0.8514,-0.8057,-0.7664,-0.7524,-0.733,-0.7071,-0.6741,-0.6546,-0.635,-0.6212,-0.5754,-0.5428,-0.5428,-0.4971,-0.4448,-0.4074,-0.3887,-0.3535,-0.2756,-0.2691,-0.2521,-0.2015,-0.1738,-0.1572,-0.1573,-0.1194,-0.0988,-0.0989,-0.0327,-0.0,-0.0,0.0742,0.1078,0.1076,0.1614,0.2019,0.2221,0.2756,0.316,-1.0832,-1.1109,-1.1249,-1.1163,-1.0816,-1.0364,-0.9885,-0.9252,-0.8585,-0.8085,-0.7808,-0.7674,-0.7674,-0.7606,-0.7677,-0.804,-0.8268,0.0,0.0,0.0,0.0,0.0,0.0,0.0,0.0,0.0,-1.1322,-1.1608,-1.1622,-1.1622,-1.1622,-1.1685,-1.1681,-1.1622,-1.1369,-1.1369,-1.1494,-1.1435,-1.1626,-1.1934,-1.2185,-1.2246,-1.2238,-1.2311,-1.211,-1.1632,-1.1465,-1.1279,-1.1036,-1.092,-1.0871,-1.0824,-1.0722,-1.0667,-1.0624,-1.0518,-1.0419,-1.032,-1.0162,-1.0003,-0.9844,-0.9729,-0.9618,-0.9614,-0.9614,-0.9409,-0.9189,-0.9039,-0.8949,-0.8908,-0.8903,-0.8706,-0.8441,-0.8476,-0.8247,-0.7982,-0.7727,-0.7528,-0.7328,-0.7071,-0.6808,-0.6546,-0.6348,-0.602,-0.569,-0.5552,-0.5102,-0.4705,-0.4378,-0.4007,-0.3651,-0.3203,-0.2913,-0.2521,-0.2183,-0.196,-0.185,-0.1741,-0.1433,-0.1174,-0.0988,-0.0654,-0.0337,-0.0,0.0202,0.0606,0.1076,0.1278,0.1614,0.2221,0.2621,0.2956,0.0,-1.0746,-1.095,-1.0863,-1.0338,0.0,0.0,-0.8634,-0.794,-0.7512,-0.7273,-0.719,-0.7355,-0.7308,-0.7382,-0.784,-0.8151,0.0,0.0,0.0,0.0,0.0,0.0,0.0,0.0,-1.1178,-1.1387,-1.1659,-1.1747,-1.1751,-1.1685,-1.1809,-1.1872,-1.1809,-1.1685,-1.1681,-1.1872,-1.1872,-1.1931,-1.2167,-1.2414,-1.2464,-1.2274,-1.2316,-1.2062,-1.1674,-1.1587,-1.1387,0.0,-1.1175,-1.1074,-1.0972,-1.0824,-1.0718,-1.062,-1.0518,-1.047,-1.032,-1.0106,-0.9951,-0.9847,-0.9669,-0.9614,-0.9614,-0.9562,-0.939,-0.921,-0.8961,-0.882,-0.8834,-0.8942,-0.869,-0.8432,-0.84,-0.8239,-0.7983,-0.7611,-0.7419,-0.7314,-0.7143,-0.6899,-0.6727,-0.6535,-0.6218,-0.5952,-0.5752,-0.5346,-0.4957,-0.4568,-0.4226,-0.3876,-0.343,-0.3136,-0.28,-0.2465,-0.2239,-0.2017,-0.1907,-0.167,-0.1419,-0.1112,-0.0916,-0.0742,-0.0404,-0.027,0.0135,0.0673,0.0941,0.1412,0.2086,0.2353,0.2622,0.0,0.0,0.0,0.0,0.0,0.0,0.0,-0.8008,0.0,-0.683,-0.6677,-0.6741,-0.6971,-0.7,-0.722,-0.7847,0.0,0.0,0.0,0.0,0.0,0.0,-1.0006,0.0,-1.1069,-1.1325,-1.1597,-1.1841,-1.1996,-1.1999,-1.1806,-1.1996,-1.2123,-1.2123,-1.2123,-1.2185,-1.2305,-1.2282,-1.2285,-1.225,-1.2335,-1.2425,-1.2397,-1.216,-1.2092,-1.2201,-1.1833,-1.1728,-1.1678,-1.1573,-1.1322,-1.1074,-1.0968,-1.0722,-1.0518,-1.0522,-1.0466,-1.0415,-1.0106,-0.9999,-0.9943,-0.9673,-0.9614,-0.9562,-0.9465,-0.9407,-0.9315,-0.9049,-0.8953,-0.8976,-0.8995,-0.8712,-0.8431,-0.8339,-0.8041,-0.7736,-0.7377,-0.7203,-0.7087,-0.6917,-0.6903,-0.6842,-0.6692,-0.6402,-0.6148,-0.5956,-0.5617,-0.5173,-0.4579,-0.4474,-0.4189,-0.3492,-0.3413,-0.3249,-0.2972,-0.2521,-0.2183,-0.2015,-0.1845,-0.1603,-0.1297,-0.1177,-0.1079,-0.1079,-0.0673,-0.0269,-0.0,0.0738,0.1274,0.1745,0.2017,0.2221,-0.8778,0.0,-0.9824,-0.9758,-0.9455,-0.8975,0.0,0.0,0.0,0.0,0.0,0.0,0.0,0.0,0.0,0.0,0.0,0.0,0.0,0.0,0.0,0.0,-1.0127,-1.0566,-1.1211,-1.1282,-1.1585,-1.2135,-1.212,-1.2062,-1.2058,-1.2062,-1.2123,-1.2247,-1.2371,-1.2498,-1.256,-1.2458,-1.2512,-1.2718,-1.2602,-1.2494,-1.2392,-1.2356,-1.2254,-1.2113,-1.1913,-1.1773,-1.1678,-1.1573,-1.1322,-1.1074,-1.0968,-1.082,-1.062,-1.0518,-1.0419,-1.032,-1.0265,-1.011,-0.9999,-0.9792,-0.974,-0.9684,-0.9469,-0.9309,-0.9214,-0.8908,-0.8787,-0.8719,-0.872,-0.8494,-0.8378,-0.8408,-0.821,-0.7911,-0.7736,-0.7439,-0.7213,-0.7094,-0.6993,-0.6863,-0.6646,-0.6452,-0.6218,-0.5956,-0.5589,-0.525,-0.4692,-0.4455,-0.4149,-0.3759,-0.3523,-0.3359,-0.3303,-0.2857,-0.2465,-0.2183,-0.1965,-0.1727,-0.1359,-0.1306,-0.1212,-0.1079,-0.0924,-0.0587,-0.0,0.0456,0.0913,0.124,0.1466,0.1816,-0.8457,-0.8871,-0.9199,-0.9164,-0.881,-0.8376,0.0,0.0,0.0,0.0,0.0,0.0,0.0,0.0,0.0,0.0,0.0,0.0,0.0,0.0,0.0,0.0,-1.0415,-1.0729,0.0,-1.1265,-1.1498,-1.2134,-1.2068,-1.1946,-1.1946,-1.1946,-1.1933,-1.1953,-1.2189,-1.2451,-1.2614,-1.2647,-1.2611,-1.2556,-1.2617,-1.2475,-1.2253,-1.2406,-1.2388,-1.2278,-1.2126,-1.2026,-1.1877,-1.1628,-1.1322,-1.1074,-1.0871,-1.0773,-1.0667,-1.062,-1.062,-1.0671,-1.0522,-1.0364,-1.0209,-1.0058,-0.9955,-0.9847,-0.9632,-0.9472,-0.926,-0.8959,-0.8742,-0.8609,-0.8501,-0.8382,-0.8257,-0.8173,-0.7977,-0.7804,-0.7526,-0.7353,-0.7156,-0.6971,-0.6911,-0.6808,-0.6748,-0.6551,-0.6298,-0.5973,-0.564,-0.5184,-0.4657,-0.4389,-0.4118,-0.3809,-0.3634,-0.347,-0.3413,-0.3078,-0.2745,-0.2464,-0.2203,-0.1911,-0.1666,-0.1436,-0.1204,-0.1059,-0.1028,-0.0823,-0.0443,0.0128,0.0517,0.084,0.1129,0.1479,-0.844,-0.8607,-0.8666,-0.8746,-0.8398,-0.799,0.0,0.0,0.0,0.0,0.0,0.0,0.0,0.0,0.0,0.0,0.0,0.0,0.0,0.0,0.0,-1.0722,-1.0722,0.0,-1.1333,-1.1263,-1.1422,-1.195,-1.1823,-1.1764,-1.1764,-1.1709,-1.1631,-1.1559,-1.1832,-1.2185,-1.2615,-1.2734,-1.2638,-1.2263,-1.2466,-1.2462,-1.2175,-1.2431,-1.2524,-1.2529,-1.2382,-1.2224,-1.2026,-1.1673,-1.1326,-1.1074,-1.082,-1.0722,-1.0722,-1.0773,-1.0922,-1.1124,-1.0871,-1.0773,-1.062,-1.047,-1.0261,-1.0051,-0.9899,-0.9629,-0.9361,-0.911,-0.8844,-0.8629,-0.8474,-0.8318,-0.8162,-0.7833,-0.7723,-0.7616,-0.7244,-0.7139,-0.7035,-0.6893,-0.6842,-0.6815,-0.6821,-0.6597,-0.63,-0.5923,-0.5588,-0.5162,-0.4603,-0.4323,-0.4094,-0.3865,-0.3691,-0.3527,-0.3414,-0.3244,-0.302,-0.2801,-0.2431,-0.2085,-0.1909,-0.1488,-0.1183,-0.1027,-0.0997,-0.0981,-0.0981,-0.0377,0.0128,0.0514,0.0924,0.1205,-0.793,-0.7891,-0.8065,-0.8923,-0.9089,-0.8964,0.0,0.0,0.0,0.0,0.0,0.0,0.0,0.0,0.0,0.0,0.0,0.0,0.0,0.0,-1.0722,-1.0722,0.0,-1.0865,-1.1173,-1.1206,-1.1376,-1.1777,-1.1631,-1.1571,-1.1571,-1.1424,-1.1469,-1.1632,-1.194,-1.2151,-1.2285,-1.2387,-1.2489,-1.2525,-1.2539,-1.2542,-1.2632,-1.2627,-1.2681,-1.2681,-1.2431,-1.2175,-1.1927,-1.1623,-1.1272,-1.0922,-1.1019,-1.0922,-1.0722,-1.0968,-1.1124,-1.1272,-1.1372,-1.1372,-1.1276,-1.0922,-1.0718,-1.0514,-1.0102,-0.9781,-0.951,-0.9263,-0.9057,-0.89,-0.8629,-0.8474,-0.8318,-0.8165,-0.7889,-0.767,-0.7616,-0.7351,-0.7093,-0.7076,-0.6908,-0.6775,-0.6615,-0.6483,-0.6293,-0.5866,-0.5497,-0.5153,-0.4875,-0.4353,-0.399,-0.3968,-0.3748,-0.3584,-0.3584,-0.3301,-0.3074,-0.302,-0.2552,-0.2099,-0.1723,-0.137,-0.1187,-0.1182,-0.1086,-0.1009,-0.1009,-0.0835,-0.0303,0.0498,0.0898,0.1185,-0.8086,-0.8299,-0.8612,-0.9084,-0.8912,-0.8615,0.0,0.0,0.0,0.0,0.0,0.0,0.0,0.0,0.0,0.0,0.0,-1.033,-1.0362,-1.0648,-1.0769,0.0,0.0,-1.0736,-1.0902,-1.0866,-1.1011,-1.142,-1.1221,-1.1166,-1.1335,-1.1229,-1.1251,-1.1378,-1.1781,-1.206,-1.219,-1.2535,-1.269,-1.2659,-1.2674,-1.2735,-1.2832,-1.273,-1.2681,-1.2681,-1.2328,-1.2076,-1.1873,-1.1523,-1.1221,-1.1023,-1.1023,-1.1023,-1.107,-1.1477,-1.1673,-1.1773,-1.1877,-1.1823,-1.1673,-1.1322,-1.1023,-1.0722,-1.036,-0.9999,-0.9677,-0.9465,-0.9211,-0.8956,-0.8679,-0.8524,-0.8374,-0.8218,-0.8002,-0.7785,-0.7723,-0.7512,-0.7249,-0.7139,-0.6898,-0.6728,-0.6679,-0.6437,-0.6154,-0.5921,-0.5554,-0.5182,-0.481,-0.4507,-0.4187,-0.4022,-0.3801,-0.3635,-0.3527,-0.3244,-0.2987,-0.2698,-0.2449,-0.2148,-0.1722,-0.1458,-0.1265,-0.1265,-0.1051,-0.0918,-0.0918,-0.0935,-0.0416,0.0482,0.0871,0.1143,-0.82,-0.8546,-0.8939,-0.9047,0.0,0.0,0.0,0.0,0.0,0.0,0.0,0.0,0.0,0.0,0.0,0.0,-1.0297,-1.0513,-1.0405,-1.0652,-1.082,-1.0671,-1.0671,-1.0671,-1.0671,-1.0569,-1.0629,-1.1011,-1.081,-1.081,-1.1133,-1.1125,-1.1151,-1.123,-1.1723,-1.2121,-1.2309,-1.2827,-1.2982,-1.2818,-1.2915,-1.2968,-1.2881,-1.2779,-1.2681,-1.2583,-1.2229,-1.2026,-1.1873,-1.1523,-1.1322,-1.1175,-1.1175,-1.1322,-1.1623,-1.2076,-1.2274,-1.2323,-1.2426,-1.2278,-1.2022,-1.1723,-1.1322,-1.0922,-1.062,-1.0265,-0.9899,-0.9669,-0.9361,-0.9057,-0.8738,-0.858,-0.8424,-0.8321,-0.8112,-0.7952,-0.7836,-0.7676,-0.7464,-0.7246,-0.6974,-0.676,-0.6763,-0.64,-0.6008,-0.5903,-0.5616,-0.5225,-0.4814,-0.4629,-0.4364,-0.4068,-0.3872,-0.3687,-0.3356,-0.3188,-0.2883,-0.2382,-0.2327,-0.2117,-0.1748,-0.1475,-0.1341,-0.1282,-0.0966,-0.0785,-0.0785,-0.0748,-0.0292,0.0413,0.0785,0.1043,-0.7913,-0.7976,-0.8182,-0.8554,0.0,0.0,0.0,0.0,0.0,0.0,0.0,0.0,0.0,0.0,0.0,0.0,-1.0681,-1.0698,-1.0687,0.0,-1.0671,-1.0518,-1.0518,-1.0518,-1.0518,-1.0522,-1.053,-1.0557,-1.0656,-1.0759,-1.0912,-1.1061,-1.1247,-1.1628,-1.2076,-1.2377,-1.2681,-1.3137,-1.3314,-1.317,-1.3165,-1.3089,-1.2881,-1.2779,-1.2578,-1.2328,-1.218,-1.2026,-1.1877,-1.1723,-1.1573,-1.1473,-1.1723,-1.2076,-1.2426,-1.2578,-1.2769,-1.291,-1.2876,-1.2779,-1.2578,-1.2026,-1.1623,-1.1221,-1.082,-1.0466,-1.0158,-0.9721,-0.9514,-0.9309,-0.9057,-0.8791,-0.8573,-0.8573,-0.8371,-0.8168,-0.8168,-0.7889,-0.7619,-0.7518,-0.7144,-0.6828,-0.6724,-0.6292,-0.5973,-0.5815,-0.554,-0.5199,-0.4901,-0.468,-0.4406,-0.42,-0.3926,-0.363,-0.3186,-0.3131,-0.2912,-0.253,-0.2304,-0.2083,-0.1809,-0.1466,-0.1295,-0.1295,-0.073,-0.0449,-0.0449,-0.0169,0.0114,0.0412,0.0768,0.1022,-0.7855,-0.8048,-0.8335,-0.8438,0.0,0.0,0.0,0.0,0.0,0.0,0.0,0.0,0.0,0.0,0.0,-1.0506,-1.0623,-1.0668,-1.0604,-1.0671,-1.0671,-1.0522,-1.0569,-1.062,-1.062,-1.062,-1.0671,-1.0722,-1.0871,-1.1023,-1.1124,-1.1423,-1.1728,-1.1927,-1.2426,-1.2715,-1.289,-1.3228,-1.3362,-1.3314,-1.3266,-1.3175,-1.3089,-1.272,-1.2529,-1.2431,-1.213,-1.1927,-1.1877,-1.1828,-1.1773,-1.1773,-1.2126,-1.2421,-1.2715,-1.2818,-1.3002,-1.3132,-1.307,-1.2881,-1.2632,-1.2175,-1.1773,-1.1372,-1.1074,-1.0722,-1.0368,-1.0201,-0.9829,-0.9465,-0.911,-0.8791,-0.8626,-0.8626,-0.8474,-0.8321,-0.8218,-0.8002,-0.7735,-0.7521,-0.7249,-0.698,-0.6874,-0.6443,-0.6119,-0.6066,-0.5734,-0.5403,-0.5181,-0.4903,-0.4648,-0.4431,-0.3943,-0.358,-0.3301,-0.3079,-0.2857,-0.2634,-0.2353,-0.2128,-0.1906,-0.1514,-0.1291,-0.1235,-0.0897,-0.0505,-0.0168,-0.0056,0.0113,0.04,0.0743,0.1036,-0.7671,-0.794,-0.8253,0.0,0.0,0.0,0.0,0.0,0.0,0.0,0.0,0.0,0.0,0.0,0.0,0.0,-1.0664,-1.0773,-1.0573,-1.0671,-1.0722,-1.062,-1.0722,-1.082,-1.0875,-1.0875,-1.0922,-1.1023,-1.1175,-1.1326,-1.1473,-1.1823,-1.213,-1.2278,-1.2632,-1.2915,-1.3035,-1.318,-1.3271,-1.3314,-1.3228,-1.3137,-1.3084,-1.2715,-1.2529,-1.248,-1.2229,-1.2076,-1.2026,-1.2076,-1.217,-1.2255,-1.2608,-1.2905,-1.3147,-1.32,-1.3334,-1.342,-1.3301,-1.306,-1.2813,-1.2421,-1.2026,-1.1623,-1.1372,-1.1074,-1.0773,-1.0671,-1.0249,-0.9773,-0.9364,-0.8998,-0.8735,-0.8735,-0.858,-0.8421,-0.8321,-0.8165,-0.7901,-0.7684,-0.741,-0.7195,-0.6985,-0.666,-0.6393,-0.623,-0.5955,-0.5679,-0.5354,-0.5128,-0.4904,-0.4517,-0.4116,-0.3734,-0.3474,-0.3193,-0.2971,-0.2804,-0.2465,-0.2183,-0.2014,-0.1626,-0.1347,-0.1235,-0.101,-0.0617,-0.0112,-0.0056,0.0112,0.0393,0.0729,0.1066,-0.728,-0.7494,0.0,0.0,0.0,0.0,0.0,0.0,0.0,0.0,0.0,0.0,0.0,0.0,0.0,-1.0922,-1.1023,-1.1023,-1.0722,-1.082,-1.0926,-1.0926,-1.1023,-1.1171,-1.1272,-1.1326,-1.1326,-1.1326,-1.1573,-1.1773,-1.1877,-1.2175,-1.2431,-1.2676,-1.2681,-1.2832,-1.3085,-1.3017,-1.3094,-1.3213,-1.3113,-1.3032,-1.2881,-1.2779,-1.2632,-1.248,-1.248,-1.2426,-1.2323,-1.2426,-1.2701,-1.3016,-1.3165,-1.3462,-1.3821,-1.3821,-1.3868,-1.3968,-1.3716,-1.342,-1.317,-1.2813,-1.2426,-1.2076,-1.1778,-1.1623,-1.1423,-1.1023,-1.0663,-1.0297,-0.9921,-0.9409,-0.9012,-0.9008,-0.8791,-0.8626,-0.8626,-0.8368,-0.8168,-0.7955,-0.7681,-0.741,-0.7139,-0.6982,-0.6771,-0.6284,-0.6178,-0.5957,-0.5354,-0.5299,-0.5077,-0.4572,-0.4422,-0.4164,-0.3649,-0.347,-0.3247,-0.2915,-0.2634,-0.2352,-0.2015,-0.1738,-0.1515,-0.1291,-0.101,-0.0729,-0.0393,-0.0112,0.0112,0.0393,0.0729,0.1066,-0.6979,-0.7279,0.0,0.0,0.0,0.0,0.0,0.0,0.0,0.0,0.0,0.0,0.0,0.0,0.0,-1.1171,-1.1221,-1.1221,-1.112,-1.1221,-1.1372,-1.1473,-1.1573,-1.1723,-1.1828,-1.1877,-1.1877,-1.1877,-1.2026,-1.2126,-1.2175,-1.2426,-1.2627,-1.2681,-1.2779,-1.2881,-1.2978,-1.2925,-1.2968,-1.3012,-1.2973,-1.2983,-1.3032,-1.2779,-1.2681,-1.2627,-1.2529,-1.248,-1.2475,-1.2745,-1.3127,-1.3568,-1.3716,-1.3957,-1.4239,-1.4239,-1.4192,-1.414,-1.3957,-1.3621,-1.3266,-1.2977,-1.2706,-1.248,-1.2328,-1.2076,-1.1877,-1.1773,-1.1418,-1.0964,-1.0757,-1.0297,-0.9684,-0.911,-0.885,-0.8692,-0.8629,-0.8524,-0.8371,-0.7952,-0.7848,-0.7684,-0.741,-0.7195,-0.6982,-0.6717,-0.6393,-0.5957,-0.5354,-0.5299,-0.5077,-0.4572,-0.4501,-0.4287,-0.3802,-0.3523,-0.3302,-0.3078,-0.2688,-0.2409,-0.2128,-0.1907,-0.1628,-0.1291,-0.101,-0.0729,-0.0393,-0.0112,0.0112,0.0393,0.0953,0.1235,-0.6768,0.0,0.0,0.0,0.0,0.0,0.0,0.0,0.0,0.0,0.0,0.0,-1.0799,-1.1163,0.0,-1.1523,-1.1573,-1.1623,-1.1623,-1.154,-1.1492,-1.1634,-1.1784,-1.1935,-1.2031,-1.2229,-1.2328,-1.2328,-1.2426,-1.2475,-1.2475,-1.2681,-1.2779,-1.2779,-1.2832,-1.2876,-1.2983,-1.2876,-1.2876,-1.2983,-1.2934,-1.2929,-1.3032,-1.2827,-1.2779,-1.2779,-1.2676,-1.272,-1.2798,-1.3127,-1.351,-1.3999,-1.4156,-1.4389,-1.4575,-1.4575,-1.4529,-1.443,-1.4291,-1.4004,-1.37,-1.3462,-1.3233,-1.3007,-1.2852,-1.2657,-1.2505,-1.2372,-1.2026,-1.1623,-1.1423,-1.0913,-1.0245,-0.9521,-0.9159,-0.9005,-0.8893,-0.8735,-0.8586,-0.8328,-0.8112,-0.7952,-0.7684,-0.7413,-0.7195,-0.6933,-0.6443,-0.5955,-0.5574,-0.5462,-0.524,-0.4794,-0.4682,-0.4462,-0.4021,-0.3691,-0.3357,-0.3131,-0.2799,-0.2465,-0.2183,-0.2017,-0.1682,-0.1291,-0.1122,-0.0841,-0.0393,-0.0112,0.0112,0.0393,0.0897,0.1179,0.0,0.0,0.0,0.0,0.0,0.0,0.0,0.0,0.0,0.0,0.0,-1.0718,-1.1444,-1.1673,-1.1823,-1.1977,-1.2076,-1.2175,-1.2175,-1.1776,-1.1513,-1.1659,-1.1799,-1.1897,-1.2083,-1.2474,-1.2774,-1.2769,-1.2774,-1.2774,-1.2774,-1.2876,-1.2925,-1.2925,-1.2822,-1.2876,-1.3123,-1.2876,-1.2876,-1.3123,-1.2983,-1.2929,-1.2929,-1.2934,-1.2934,-1.2929,-1.2925,-1.305,-1.3266,-1.3563,-1.3899,-1.4269,-1.4569,-1.4725,-1.4874,-1.4874,-1.4822,-1.4776,-1.4673,-1.4471,-1.4228,-1.4104,-1.3863,-1.3615,-1.3362,-1.3261,-1.317,-1.2866,-1.2622,-1.2269,-1.1923,-1.136,-1.0744,-1.0123,-0.9666,-0.9413,-0.9263,-0.9008,-0.8857,-0.8808,-0.8487,-0.8168,-0.7955,-0.7681,-0.7359,-0.6931,-0.6386,-0.6005,-0.5793,-0.5681,-0.5513,-0.5126,-0.4956,-0.4736,-0.4247,-0.386,-0.3469,-0.3131,-0.2856,-0.2578,-0.2239,-0.2071,-0.1792,-0.1291,-0.1235,-0.0953,-0.0449,-0.0168,0.0112,0.0393,0.0729,0.1066,0.0,0.0,0.0,0.0,0.0,0.0,0.0,0.0,0.0,0.0,0.0,-1.0974,-1.209,-1.2328,-1.2431,-1.2632,-1.273,-1.273,-1.273,-1.2311,-1.2088,-1.2227,-1.2231,-1.2365,-1.2579,-1.2924,-1.3127,-1.3228,-1.3132,-1.3079,-1.3079,-1.3127,-1.3127,-1.3127,-1.3132,-1.3127,-1.318,-1.3127,-1.3127,-1.318,-1.3113,-1.308,-1.3032,-1.2934,-1.2978,-1.308,-1.3094,-1.3324,-1.3716,-1.4093,-1.4408,-1.4772,-1.5023,-1.5176,-1.5182,-1.5182,-1.5074,-1.4875,-1.4869,-1.4697,-1.4529,-1.4488,-1.4285,-1.4082,-1.3983,-1.3847,-1.3673,-1.3578,-1.3281,-1.2977,-1.2779,-1.2349,-1.1819,-1.1263,-1.0435,-0.9666,-0.9413,-0.9309,-0.9159,-0.8857,-0.8636,-0.8421,-0.8165,-0.7788,-0.7303,-0.6815,-0.649,-0.6166,-0.5848,-0.5793,-0.5572,-0.5126,-0.4956,-0.4789,-0.4463,-0.4019,-0.3633,-0.3357,-0.3026,-0.2747,-0.2464,-0.224,-0.1905,-0.1291,-0.1235,-0.1066,-0.0785,-0.028,0.0112,0.0393,0.0729,0.1066,0.0,0.0,0.0,0.0,0.0,0.0,0.0,0.0,0.0,0.0,-1.1167,-1.1381,-1.2594,-1.2686,-1.2717,-1.3266,-1.3301,-1.3253,-1.3301,-1.2923,-1.2594,-1.2686,-1.2736,-1.2827,-1.2998,-1.3305,-1.3515,-1.3568,-1.342,-1.3314,-1.3367,-1.3314,-1.3319,-1.3367,-1.3415,-1.3415,-1.3415,-1.3319,-1.3314,-1.3314,-1.319,-1.3147,-1.3152,-1.3022,-1.3032,-1.3128,-1.3286,-1.3568,-1.3915,-1.4337,-1.4651,-1.4909,-1.5108,-1.521,-1.521,-1.521,-1.5108,-1.5006,-1.5006,-1.4875,-1.4743,-1.4743,-1.461,-1.4477,-1.4425,-1.4285,-1.415,-1.4098,-1.3852,-1.3563,-1.3415,-1.3084,-1.2603,-1.2062,-1.1154,-1.0289,-0.994,-0.9732,-0.9573,-0.9162,-0.8893,-0.8623,-0.8321,-0.7791,-0.7252,-0.6756,-0.6544,-0.6277,-0.5848,-0.5795,-0.5629,-0.524,-0.5013,-0.4791,-0.4629,-0.413,-0.3687,-0.3414,-0.3081,-0.2804,-0.2521,-0.2296,-0.2017,-0.1572,-0.1347,-0.1122,-0.0897,-0.0449,-0.0,0.0336,0.0729,0.1066,0.0,0.0,0.0,0.0,0.0,0.0,0.0,0.0,0.0,0.0,-1.1953,-1.1871,-1.3104,-1.3067,-1.3083,-1.3805,-1.3858,-1.381,-1.3952,-1.3508,-1.3178,-1.3178,-1.3273,-1.3323,-1.3368,-1.3687,-1.391,-1.3957,-1.371,-1.361,-1.371,-1.361,-1.361,-1.3705,-1.3663,-1.3668,-1.3668,-1.3568,-1.3515,-1.3467,-1.3319,-1.3213,-1.3213,-1.3152,-1.3167,-1.322,-1.3483,-1.381,-1.4109,-1.4482,-1.4748,-1.4909,-1.5057,-1.5108,-1.5108,-1.5114,-1.5114,-1.5062,-1.5062,-1.5011,-1.4869,-1.4909,-1.484,-1.4782,-1.4667,-1.4621,-1.4627,-1.4471,-1.4244,-1.4062,-1.391,-1.361,-1.3223,-1.2691,-1.2004,-1.1263,-1.0569,-1.0308,-0.9995,-0.9517,-0.9044,-0.8623,-0.8315,-0.7738,-0.7201,-0.6758,-0.6544,-0.6277,-0.5848,-0.5795,-0.5686,-0.5354,-0.5069,-0.4901,-0.4743,-0.4185,-0.3744,-0.347,-0.3137,-0.2802,-0.2521,-0.2352,-0.213,-0.1852,-0.1515,-0.1178,-0.0897,-0.0617,-0.0224,0.028,0.0617,0.0954,0.0,0.0,0.0,0.0,0.0,0.0,0.0,0.0,0.0,0.0,-1.2669,-1.2578,-1.3694,-1.3868,-1.394,-1.4425,-1.4482,-1.4471,-1.4577,-1.4228,-1.3944,-1.3944,-1.385,-1.3845,-1.3993,-1.4197,-1.4384,-1.4482,-1.4332,-1.428,-1.428,-1.4181,-1.4077,-1.4129,-1.401,-1.3973,-1.3973,-1.3921,-1.3868,-1.3721,-1.3515,-1.3314,-1.3213,-1.3324,-1.3425,-1.3525,-1.3716,-1.4004,-1.4378,-1.4569,-1.4789,-1.4909,-1.5165,-1.521,-1.5108,-1.521,-1.5114,-1.4909,-1.4909,-1.4886,-1.4811,-1.4875,-1.484,-1.4822,-1.4829,-1.48,-1.4736,-1.4627,-1.4477,-1.4332,-1.4176,-1.4004,-1.3773,-1.3372,-1.3074,-1.2584,-1.1267,-1.0871,-1.0557,-0.9718,-0.8991,-0.8262,-0.7732,-0.7521,-0.7303,-0.6758,-0.6704,-0.6436,-0.585,-0.5795,-0.5686,-0.5354,-0.5183,-0.5013,-0.4901,-0.441,-0.3971,-0.3584,-0.3245,-0.2967,-0.2691,-0.2521,-0.2353,-0.2128,-0.157,-0.1178,-0.0897,-0.0841,-0.0505,0.0056,0.028,0.0673,0.0,0.0,0.0,0.0,0.0,0.0,0.0,0.0,0.0,-1.3033,-1.3311,-1.3609,-1.437,-1.4281,-1.4322,-1.5017,-1.5028,-1.5023,-1.5175,-1.4996,-1.4875,-1.4875,-1.4792,-1.4703,-1.4759,-1.4756,-1.484,-1.4891,-1.4708,-1.461,-1.4686,-1.4512,-1.4477,-1.4523,-1.4395,-1.4296,-1.4244,-1.4145,-1.4004,-1.3815,-1.3668,-1.3563,-1.342,-1.3467,-1.3515,-1.3615,-1.3821,-1.4104,-1.4425,-1.4575,-1.4662,-1.4743,-1.4846,-1.4851,-1.4846,-1.4897,-1.4846,-1.4748,-1.4748,-1.4713,-1.4678,-1.4708,-1.4759,-1.4828,-1.4857,-1.4811,-1.4782,-1.473,-1.4627,-1.4477,-1.4425,-1.4384,-1.4244,-1.3941,-1.3789,-1.35,-1.2482,-1.181,-1.1011,-0.9921,-0.904,-0.8365,-0.7827,-0.7622,-0.7303,-0.6758,-0.6704,-0.6487,-0.6005,-0.5898,-0.5789,-0.5515,-0.5295,-0.5126,-0.4899,-0.4465,-0.4027,-0.364,-0.3301,-0.2965,-0.2691,-0.2578,-0.2409,-0.2183,-0.1795,-0.1403,-0.1122,-0.0954,-0.0673,-0.0224,-0.0,0.0393,0.0,0.0,0.0,0.0,0.0,0.0,0.0,0.0,-1.2061,0.0,-1.3801,-1.4327,-1.4838,-1.4766,-1.4818,-1.5582,-1.5608,-1.5603,-1.5812,-1.5774,-1.573,-1.573,-1.5608,-1.5531,-1.5531,-1.5385,-1.5289,-1.5289,-1.5068,-1.5023,-1.5096,-1.484,-1.4765,-1.4863,-1.4725,-1.4581,-1.4477,-1.4321,-1.4134,-1.3957,-1.3868,-1.3768,-1.3668,-1.3615,-1.3615,-1.3668,-1.3868,-1.4104,-1.4373,-1.4477,-1.4529,-1.4534,-1.4534,-1.4581,-1.4581,-1.4575,-1.4534,-1.4529,-1.4523,-1.4482,-1.4441,-1.4482,-1.4581,-1.4632,-1.4632,-1.4678,-1.4678,-1.4638,-1.4586,-1.4534,-1.4534,-1.4616,-1.4616,-1.4419,-1.4368,-1.4118,-1.3213,-1.2197,-1.1204,-1.0072,-0.9249,-0.8521,-0.8037,-0.7726,-0.7354,-0.6864,-0.6761,-0.6598,-0.6112,-0.6059,-0.595,-0.5677,-0.546,-0.5238,-0.4956,-0.452,-0.4081,-0.3692,-0.3299,-0.3021,-0.2748,-0.2634,-0.2465,-0.2296,-0.2019,-0.174,-0.1403,-0.1122,-0.0841,-0.0505,-0.028,0.0112,0.0,0.0,0.0,0.0,0.0,0.0,0.0,0.0,0.0,-1.3772,-1.4188,-1.444,-1.4987,-1.5426,-1.5814,-1.6094,-1.6213,-1.6281,-1.6429,-1.6429,-1.6429,-1.6429,-1.6275,-1.6156,-1.6156,-1.5925,-1.5748,-1.5748,-1.5709,-1.5665,-1.5671,-1.53,-1.5062,-1.5062,-1.4903,-1.4782,-1.4782,-1.4529,-1.4373,-1.4373,-1.3957,-1.3815,-1.3773,-1.3668,-1.3668,-1.3768,-1.3815,-1.3952,-1.4222,-1.4222,-1.4321,-1.4425,-1.4425,-1.4482,-1.4581,-1.4477,-1.4425,-1.4373,-1.4274,-1.414,-1.4062,-1.4181,-1.4228,-1.4222,-1.4222,-1.4326,-1.4384,-1.4109,-1.4197,-1.4425,-1.4425,-1.4645,-1.4869,-1.4771,-1.48,-1.4433,-1.2783,-1.1706,-1.0846,-1.0119,-0.9465,-0.8798,-0.8271,-0.7889,-0.7563,-0.7139,-0.6982,-0.6717,-0.623,-0.6175,-0.6069,-0.5793,-0.5679,-0.5456,-0.5124,-0.4737,-0.4296,-0.3796,-0.3352,-0.3022,-0.2916,-0.2748,-0.2634,-0.2465,-0.2296,-0.1961,-0.1572,-0.1403,-0.1122,-0.0841,-0.0673,-0.0224,0.0,0.0,0.0,0.0,0.0,0.0,0.0,-1.1336,-1.2283,-1.3194,-1.4122,-1.4825,-1.4993,-1.5517,-1.5988,-1.61,-1.6468,-1.6788,-1.6934,-1.6941,-1.6941,-1.6941,-1.6808,-1.6686,-1.6663,-1.6479,-1.6337,-1.6262,-1.6106,-1.6019,-1.6019,-1.5665,-1.548,-1.548,-1.5267,-1.5034,-1.488,-1.4662,-1.4482,-1.4378,-1.4186,-1.3999,-1.3921,-1.3868,-1.3868,-1.3921,-1.3921,-1.4051,-1.4222,-1.4222,-1.4186,-1.415,-1.415,-1.4156,-1.4208,-1.415,-1.4192,-1.4274,-1.4222,-1.4181,-1.414,-1.4176,-1.4222,-1.4176,-1.4098,-1.4104,-1.4109,-1.402,-1.415,-1.4321,-1.4477,-1.4691,-1.4909,-1.488,-1.4743,-1.4316,-1.3271,-1.2201,-1.1263,-1.0706,-0.9928,-0.9204,-0.8679,-0.8259,-0.7785,-0.719,-0.7033,-0.6925,-0.6547,-0.6547,-0.6386,-0.6066,-0.6012,-0.5791,-0.5295,-0.4867,-0.4374,-0.3834,-0.3387,-0.3087,-0.2833,-0.2896,-0.2767,-0.2494,-0.2494,-0.2243,-0.1741,-0.1572,-0.1347,-0.101,-0.0841,-0.0505,0.0,0.0,0.0,0.0,0.0,0.0,0.0,0.0,-1.2354,-1.3092,-1.4171,-1.4977,-1.5037,-1.5564,-1.6102,-1.6369,-1.6791,-1.7195,-1.7503,-1.7536,-1.7529,-1.7475,-1.7338,-1.7214,-1.7115,-1.6983,-1.6886,-1.6735,-1.6528,-1.6411,-1.6411,-1.6063,-1.5804,-1.5715,-1.5537,-1.53,-1.5057,-1.484,-1.4702,-1.4558,-1.4368,-1.4233,-1.4156,-1.4015,-1.402,-1.402,-1.402,-1.4098,-1.4222,-1.4222,-1.4186,-1.4156,-1.4098,-1.4104,-1.4109,-1.402,-1.4098,-1.4176,-1.4134,-1.4181,-1.4176,-1.4134,-1.4181,-1.4176,-1.391,-1.3921,-1.3921,-1.3868,-1.4004,-1.4186,-1.4477,-1.4702,-1.4875,-1.496,-1.4645,-1.4181,-1.361,-1.2642,-1.1669,-1.1074,-1.0297,-0.9569,-0.8991,-0.8527,-0.8055,-0.7464,-0.7231,-0.7022,-0.6754,-0.6634,-0.6433,-0.6125,-0.6022,-0.5809,-0.5331,-0.4906,-0.4426,-0.3907,-0.3516,-0.317,-0.2921,-0.2942,-0.2824,-0.2613,-0.2622,-0.2397,-0.2041,-0.184,-0.1571,-0.1291,-0.1066,-0.0729,0.0,0.0,0.0,0.0,0.0,0.0,-1.1024,0.0,-1.2794,-1.3525,-1.4309,-1.4928,-1.5052,-1.5585,-1.622,-1.6882,-1.7095,-1.7405,-1.8078,-1.8175,-1.8128,-1.8028,-1.7915,-1.7754,-1.7557,-1.7475,-1.7365,-1.7247,-1.7038,-1.6918,-1.6924,-1.6448,-1.6063,-1.5715,-1.5715,-1.5582,-1.5312,-1.5159,-1.5051,-1.4903,-1.4558,-1.4425,-1.4378,-1.4156,-1.402,-1.402,-1.4015,-1.4098,-1.4222,-1.4222,-1.4274,-1.4373,-1.4228,-1.4274,-1.4378,-1.4109,-1.4098,-1.4181,-1.4062,-1.4098,-1.4181,-1.4062,-1.4098,-1.4129,-1.3758,-1.3716,-1.3763,-1.3663,-1.3815,-1.4062,-1.4337,-1.4581,-1.4817,-1.5023,-1.464,-1.4082,-1.371,-1.2885,-1.2008,-1.1267,-1.051,-0.9792,-0.9113,-0.8692,-0.8315,-0.794,-0.746,-0.6991,-0.6724,-0.6478,-0.619,-0.5946,-0.5761,-0.5515,-0.5358,-0.481,-0.4418,-0.4122,-0.3664,-0.336,-0.3207,-0.2965,-0.2819,-0.2819,-0.2569,-0.2461,-0.2496,-0.2144,-0.1847,-0.1572,-0.1347,-0.0785,-1.0259,0.0,0.0,0.0,0.0,0.0,0.0,0.0,-1.2236,-1.2562,-1.3647,-1.4558,-1.4637,-1.525,-1.5946,-1.672,-1.6936,-1.7185,-1.7835,-1.789,-1.8052,-1.8373,-1.839,-1.8279,-1.8029,-1.7989,-1.7868,-1.759,-1.7413,-1.7275,-1.7122,-1.6693,-1.6312,-1.6063,-1.5887,-1.5709,-1.5582,-1.5249,-1.5062,-1.5057,-1.4805,-1.4684,-1.4678,-1.4534,-1.4436,-1.4436,-1.4337,-1.428,-1.4176,-1.4098,-1.4057,-1.4109,-1.4181,-1.4274,-1.4378,-1.4436,-1.4534,-1.4627,-1.4645,-1.4651,-1.4627,-1.4645,-1.4558,-1.443,-1.4233,-1.414,-1.4087,-1.4035,-1.4087,-1.4233,-1.4518,-1.4621,-1.4678,-1.4713,-1.4466,-1.4134,-1.381,-1.3223,-1.2486,-1.1569,-1.0922,-1.0253,-0.9417,-0.9057,-0.8564,-0.7732,-0.7488,-0.7218,-0.6736,-0.6615,-0.6433,-0.619,-0.6139,-0.603,-0.577,-0.5238,-0.4765,-0.4416,-0.3866,-0.3376,-0.3048,-0.3089,-0.2996,-0.2806,-0.2834,-0.2686,-0.2404,-0.2071,-0.1863,-0.1741,-0.1235,-0.0841,0.0,0.0,0.0,0.0,0.0,0.0,-1.1118,-1.1742,-1.2322,-1.2427,-1.3388,-1.4269,-1.4363,-1.5003,-1.5679,-1.6144,-1.6488,-1.6961,-1.7717,-1.7779,-1.7839,-1.8057,-1.8293,-1.8316,-1.8072,-1.82,-1.8235,-1.7982,-1.7774,-1.7529,-1.724,-1.6905,-1.6614,-1.6318,-1.6144,-1.5969,-1.5754,-1.5519,-1.5334,-1.5244,-1.5085,-1.5,-1.4903,-1.48,-1.4662,-1.4581,-1.4529,-1.4373,-1.4176,-1.414,-1.4098,-1.4098,-1.428,-1.4425,-1.4518,-1.4702,-1.48,-1.4943,-1.4971,-1.4977,-1.5,-1.5011,-1.488,-1.4754,-1.4564,-1.4419,-1.4274,-1.4274,-1.4326,-1.4419,-1.4667,-1.4673,-1.4627,-1.4678,-1.4477,-1.4228,-1.4098,-1.3507,-1.2797,-1.1864,-1.1213,-1.0466,-0.9559,-0.9077,-0.8568,-0.7769,-0.7425,-0.7149,-0.6763,-0.6518,-0.6271,-0.613,-0.6054,-0.5942,-0.5795,-0.5376,-0.498,-0.4656,-0.409,-0.3594,-0.3171,-0.3153,-0.3012,-0.2833,-0.2804,-0.2617,-0.2266,-0.2149,-0.1965,-0.176,-0.1282,-0.101,0.0,0.0,0.0,0.0,0.0,0.0,-1.1674,-1.2194,-1.2688,-1.2742,-1.3371,-1.3971,-1.4107,-1.4777,-1.5311,-1.5336,-1.5882,-1.6645,-1.762,-1.7674,-1.76,-1.7464,-1.7871,-1.8048,-1.7784,-1.8191,-1.8398,-1.8246,-1.8021,-1.7747,-1.7282,-1.7122,-1.6869,-1.6565,-1.6416,-1.6133,-1.5746,-1.5692,-1.5531,-1.5342,-1.5221,-1.5116,-1.5028,-1.4875,-1.4778,-1.4621,-1.4627,-1.4477,-1.4222,-1.4222,-1.4222,-1.4228,-1.4523,-1.4667,-1.4748,-1.4915,-1.5051,-1.5159,-1.5153,-1.5249,-1.5312,-1.5204,-1.5159,-1.5062,-1.484,-1.4616,-1.4425,-1.443,-1.4523,-1.4673,-1.4776,-1.4686,-1.4549,-1.4652,-1.4498,-1.4326,-1.4231,-1.3648,-1.2934,-1.2162,-1.1415,-1.0544,-0.9551,-0.8961,-0.8462,-0.7923,-0.7367,-0.6916,-0.6766,-0.6334,-0.5973,-0.5836,-0.5721,-0.5643,-0.5641,-0.542,-0.5169,-0.4892,-0.4377,-0.3876,-0.347,-0.3177,-0.2993,-0.2911,-0.264,-0.2371,-0.2133,-0.2321,-0.2153,-0.1698,-0.1428,-0.1172,0.0,0.0,0.0,0.0,-1.2205,0.0,-1.2156,-1.2313,-1.2456,-1.2406,-1.2997,-1.3538,-1.3612,-1.4208,-1.4727,-1.489,-1.5391,-1.6137,-1.7236,-1.728,-1.7364,-1.7768,-1.7787,-1.7678,-1.7423,-1.7855,-1.8085,-1.7849,-1.7917,-1.7935,-1.7754,-1.7371,-1.7073,-1.6911,-1.622,-1.5738,-1.5578,-1.4961,-1.458,-1.444,-1.4311,-1.4362,-1.4609,-1.4462,-1.4585,-1.4823,-1.4662,-1.4575,-1.4529,-1.4529,-1.4477,-1.4373,-1.461,-1.484,-1.5062,-1.5283,-1.5418,-1.5424,-1.5531,-1.5525,-1.5468,-1.5576,-1.5441,-1.5261,-1.5222,-1.4954,-1.4678,-1.4575,-1.4697,-1.4829,-1.4822,-1.4468,-1.4066,-1.3961,-1.3939,-1.3762,-1.3297,-1.3325,-1.3178,-1.233,-1.1334,-1.0359,-0.9455,-0.899,-0.8511,-0.7693,-0.746,-0.7204,-0.6631,-0.6441,-0.6239,-0.5973,-0.6105,-0.6074,-0.5879,-0.5834,-0.568,-0.5223,-0.4753,-0.425,-0.3751,-0.3454,-0.3217,-0.2991,-0.2682,-0.247,-0.2402,-0.2289,-0.2074,-0.1788,-0.1483,-0.1346,0.0,0.0,0.0,-1.2689,-1.2659,0.0,0.0,-1.2642,-1.2689,-1.2615,-1.2954,-1.3243,-1.3243,-1.3856,-1.4362,-1.4442,-1.5,-1.5589,-1.6066,-1.6252,-1.6385,-1.6567,-1.6735,-1.6773,-1.6533,-1.7272,-1.7629,-1.7313,-1.7306,-1.7363,-1.7499,-1.7196,-1.7034,-1.7109,-1.6359,-1.5862,-1.5658,-1.4968,-1.4538,-1.4459,-1.4283,-1.4261,-1.4328,-1.4198,-1.4157,-1.4252,-1.4058,-1.4122,-1.4294,-1.439,-1.4581,-1.484,-1.4937,-1.5159,-1.5373,-1.5635,-1.573,-1.578,-1.583,-1.5574,-1.5267,-1.5316,-1.5063,-1.4679,-1.4625,-1.4373,-1.4131,-1.4367,-1.4546,-1.461,-1.4338,-1.427,-1.4109,-1.3675,-1.348,-1.3397,-1.3148,-1.299,-1.2751,-1.225,-1.1294,-1.0377,-0.9619,-0.9083,-0.8491,-0.7817,-0.7515,-0.7201,-0.679,-0.6532,-0.637,-0.6196,-0.6177,-0.6158,-0.6083,-0.5995,-0.5857,-0.5648,-0.5074,-0.454,-0.4028,-0.3698,-0.3309,-0.2951,-0.2728,-0.255,-0.2414,-0.2284,-0.2114,-0.1867,-0.153,-0.1361,0.0,0.0,0.0,0.0,0.0,-1.3003,0.0,0.0,0.0,-1.3026,-1.3122,-1.3173,-1.3104,0.0,0.0,-1.3995,-1.4571,-1.5011,-1.4873,-1.5077,-1.52,-1.5169,-1.5441,-1.5588,-1.5381,-1.6403,-1.7049,-1.6974,-1.6781,-1.6753,-1.6978,-1.6894,-1.693,-1.7139,-1.6486,-1.5982,-1.5731,-1.4961,-1.4525,-1.4417,-1.4258,-1.412,-1.4026,-1.3861,-1.3749,-1.3633,-1.3522,-1.3667,-1.3993,-1.4084,-1.4503,-1.5122,-1.5276,-1.5474,-1.5724,-1.5957,-1.6044,-1.6026,-1.5922,-1.5526,-1.5073,-1.4929,-1.4534,-1.4067,-1.3929,-1.3686,-1.3613,-1.4092,-1.4323,-1.435,-1.3895,-1.4017,-1.411,-1.34,-1.3105,-1.299,-1.2925,-1.2595,-1.2205,-1.1989,-1.1225,-1.041,-0.9843,-0.919,-0.8594,-0.8033,-0.7583,-0.7251,-0.7073,-0.6741,-0.6492,-0.641,-0.6241,-0.6192,-0.6299,-0.6082,-0.5954,-0.5957,-0.5356,-0.4784,-0.4355,-0.3877,-0.3399,-0.2955,-0.2821,-0.264,-0.2369,-0.2324,-0.214,-0.1887,-0.157,-0.137,0.0,0.0,0.0,0.0,-1.3346,-1.3363,-1.3421,0.0,-1.3443,-1.3434,0.0,-1.3517,-1.3468,0.0,0.0,0.0,-1.4098,-1.446,-1.4388,-1.4298,-1.4351,-1.4638,-1.4514,-1.4341,-1.4215,-1.5173,-1.6184,-1.7086,-1.6988,-1.681,-1.6662,-1.6818,-1.691,-1.6932,-1.6184,-1.5704,-1.5553,-1.4352,-1.361,-1.3386,-1.3351,-1.3391,-1.3482,-1.3488,-1.3617,-1.3848,-1.3709,-1.3744,-1.3883,-1.3796,-1.3959,-1.441,-1.5241,-1.573,-1.5988,-1.6144,-1.6194,-1.6126,-1.5647,-1.5402,-1.5268,-1.4651,-1.4303,-1.4061,-1.3796,-1.3796,-1.3854,-1.3848,-1.404,-1.4207,-1.4015,-1.369,-1.33,-1.2799,-1.2682,-1.2485,-1.179,-1.1893,-1.1989,-1.1545,-1.1044,-1.05,-0.9876,-0.9345,-0.8778,-0.823,-0.7987,-0.7666,-0.7255,-0.7031,-0.6816,-0.6523,-0.6549,-0.6535,-0.6335,-0.6285,-0.618,-0.5935,-0.5486,-0.5123,-0.4823,-0.4098,-0.3524,-0.3171,-0.2954,-0.2822,-0.2641,-0.2415,-0.2154,-0.1809,-0.1696,-0.1442,0.0,0.0,0.0,-1.3535,-1.3519,-1.3543,-1.3655,-1.3698,-1.3732,-1.3777,0.0,0.0,0.0,0.0,0.0,0.0,-1.3898,-1.3998,-1.3854,-1.3741,-1.3808,-1.4092,-1.3979,-1.3913,-1.4097,-1.437,-1.4753,-1.5183,-1.532,-1.5504,-1.5716,-1.6013,-1.6294,-1.6504,-1.5795,-1.535,-1.5135,-1.4214,-1.3674,-1.3546,-1.3301,-1.3218,-1.3293,-1.3077,-1.3057,-1.318,-1.3024,-1.3112,-1.3437,-1.3548,-1.3882,-1.4371,-1.4859,-1.5355,-1.5715,-1.5919,-1.5919,-1.5844,-1.533,-1.4904,-1.4434,-1.376,-1.3441,-1.3389,-1.3569,-1.3456,-1.3283,-1.3607,-1.3825,-1.3885,-1.3407,-1.3346,-1.3222,-1.2473,-1.2137,-1.186,-1.1534,-1.1567,-1.1654,-1.1577,-1.1276,-1.0873,-1.048,-0.982,-0.9199,-0.872,-0.8402,-0.8081,-0.7697,-0.7443,-0.7231,-0.7034,-0.6887,-0.6805,-0.669,-0.6438,-0.6279,-0.6274,-0.5585,-0.5043,-0.4747,-0.4135,-0.37,-0.3478,-0.3307,-0.3087,-0.2822,-0.2686,-0.2418,-0.202,-0.1781,-0.1444,-1.3909,-1.3821,-1.3746,-1.3698,-1.3674,-1.3713,-1.3845,-1.3938,-1.4005,-1.4069,-1.4083,0.0,0.0,0.0,0.0,0.0,0.0,-1.3815,0.0,-1.355,-1.3515,-1.3604,-1.3452,-1.3513,-1.3938,-1.3756,-1.3669,-1.378,-1.3977,-1.4298,-1.4845,-1.5258,-1.565,-1.6047,-1.5572,-1.5216,-1.4975,-1.4265,-1.3881,-1.3788,-1.3438,-1.3267,-1.3198,-1.292,-1.278,-1.2739,-1.2591,-1.2728,-1.3053,-1.3276,-1.3617,-1.4059,-1.4372,-1.4747,-1.5153,-1.5451,-1.5547,-1.5425,-1.498,-1.4361,-1.3694,-1.3142,-1.2943,-1.2952,-1.3338,-1.3161,-1.2894,-1.335,-1.3545,-1.3531,-1.3053,-1.3137,-1.3216,-1.2417,-1.1999,-1.1706,-1.1617,-1.1554,-1.1565,-1.1688,-1.1469,-1.1212,-1.1029,-1.0288,-0.9593,-0.9212,-0.8818,-0.8447,-0.8185,-0.7855,-0.7655,-0.7541,-0.7248,-0.7078,-0.7074,-0.6639,-0.6358,-0.631,-0.5649,-0.5127,-0.4801,-0.436,-0.4054,-0.3875,-0.3614,-0.3353,-0.3044,-0.2957,-0.269,-0.2287,-0.1883,-0.1503,-1.411,-1.3987,-1.3883,-1.3891,-1.3891,-1.3929,-1.4054,-1.415,-1.4207,-1.4281,-1.4293,-1.4293,-1.4293,0.0,0.0,0.0,0.0,0.0,0.0,-1.3765,-1.3557,-1.3182,-1.2885,-1.2907,-1.3379,-1.3302,-1.3375,-1.3763,-1.3638,-1.375,-1.4311,-1.4704,-1.5181,-1.5695,-1.5629,-1.5447,-1.5182,-1.4526,-1.4072,-1.3788,-1.3594,-1.3391,-1.3198,-1.3135,-1.3025,-1.2902,-1.2902,-1.2873,-1.2891,-1.2926,-1.3015,-1.3206,-1.374,-1.4025,-1.4204,-1.4809,-1.5005,-1.4968,-1.4477,-1.3916,-1.3382,-1.3239,-1.3135,-1.3107,-1.3125,-1.3113,-1.3107,-1.3188,-1.3229,-1.3217,-1.3198,-1.3148,-1.3015,-1.2685,-1.2467,-1.2258,-1.1884,-1.178,-1.1754,-1.1719,-1.158,-1.1436,-1.1314,-1.0606,-0.9961,-0.9562,-0.9212,-0.8854,-0.8521,-0.8283,-0.8089,-0.7916,-0.7655,-0.7405,-0.7226,-0.6754,-0.6322,-0.5855,-0.5731,-0.5555,-0.5287,-0.4934,-0.4626,-0.4274,-0.3877,-0.357,-0.3396,-0.3044,-0.2776,-0.246,-0.2152,-0.1749,-1.5125,-1.4925,-1.4883,-1.4843,-1.4863,-1.4897,-1.4953,-1.5085,-1.5049,-1.4542,-1.4432,-1.4428,-1.4429,0.0,0.0,0.0,0.0,0.0,0.0,0.0,-1.3689,-1.3461,-1.3148,-1.2967,-1.2994,-1.2843,-1.2746,-1.2739,-1.2976,-1.3362,-1.3938,-1.4304,-1.4765,-1.5356,-1.5174,-1.5014,-1.4853,-1.446,-1.4203,-1.4072,-1.3808,-1.3607,-1.3452,-1.3357,-1.3254,-1.322,-1.3157,-1.3088,-1.3123,-1.3179,-1.3254,-1.3314,-1.3566,-1.3671,-1.3769,-1.433,-1.454,-1.4458,-1.3995,-1.3674,-1.3452,-1.3357,-1.326,-1.317,-1.326,-1.3295,-1.3295,-1.3391,-1.3391,-1.3391,-1.3329,-1.3276,-1.3195,-1.2988,-1.2807,-1.2591,-1.2383,-1.2246,-1.2191,-1.2167,-1.2004,-1.1847,-1.1721,-1.1319,-1.0791,-1.0181,-0.9711,-0.9355,-0.9199,-0.8926,-0.8651,-0.8439,-0.8234,-0.7995,-0.7666,-0.7122,-0.6614,-0.6236,-0.6022,-0.5806,-0.559,-0.5147,-0.4753,-0.4364,-0.4012,-0.3704,-0.3398,-0.3217,-0.2997,-0.2776,-0.2372,-0.188,-1.6049,-1.5875,-1.5856,-1.5836,-1.5865,-1.5904,-1.5928,-1.6032,-1.5912,-1.5117,-1.4959,-1.4871,-1.4589,0.0,0.0,0.0,0.0,0.0,0.0,-1.4051,-1.3868,-1.372,-1.3387,-1.3086,-1.2889,-1.2681,-1.2483,-1.2295,-1.2488,-1.2961,-1.3775,-1.3974,-1.444,-1.5239,-1.5086,-1.4902,-1.477,-1.4511,-1.4319,-1.4235,-1.3947,-1.3741,-1.3661,-1.352,-1.3452,-1.3425,-1.3329,-1.3295,-1.3295,-1.3391,-1.3452,-1.3452,-1.3486,-1.3486,-1.3525,-1.3925,-1.406,-1.4008,-1.3704,-1.3547,-1.3486,-1.3425,-1.3329,-1.3295,-1.3391,-1.3452,-1.3486,-1.3594,-1.36,-1.3594,-1.3594,-1.352,-1.3474,-1.3427,-1.3291,-1.3154,-1.2953,-1.2814,-1.2673,-1.2585,-1.2437,-1.233,-1.2276,-1.2024,-1.1547,-1.0759,-1.0254,-0.9903,-0.9721,-0.9457,-0.9141,-0.8886,-0.8647,-0.832,-0.7784,-0.729,-0.6875,-0.6581,-0.6322,-0.6065,-0.589,-0.5364,-0.4973,-0.4631,-0.419,-0.384,-0.3573,-0.3304,-0.3127,-0.2908,-0.2504,-0.2013]},{"header":{"parameterUnit":"m.s-1","parameterCategory":1,"la1":30.6,"la2":29.2853,"lo1":-89.7004,"lo2":-87.6739,"dy":0.0162,"dx":0.0183,"nx":112,"ny":82,"refTime":"2023-07-25T12:00:00:Z","depth":0,"parameterNumber":3,"parameterNumberName":"V-component_of_WINDS"},"data":[0.0,0.0,0.0,0.0,0.0,0.0,0.0,0.0,0.0,0.0,0.0,0.0,0.0,0.0,0.0,0.0,0.0,0.0,0.0,0.0,0.0,0.0,0.0,0.0,0.0,0.0,0.0,0.0,0.0,0.0,0.0,0.0,0.0,0.0,0.0,0.0,0.0,0.0,0.0,0.0,0.0,0.0,0.0,0.0,0.0,0.0,0.0,0.0,0.0,0.0,0.0,0.0,0.0,0.0,0.0,0.0,0.0,0.0,0.0,0.0,0.0,0.0,0.0,0.0,0.0,0.0,0.0,0.0,0.0,0.0,0.0,0.0,0.0,0.0,0.0,0.0,0.0,0.0,0.0,0.0,0.0,0.0,0.0,0.0,0.0,0.0,0.0,0.0,0.0,0.0,-1.3531,-1.3839,-1.455,-1.5047,-1.5188,-1.5132,-1.5066,-1.5001,0.0,0.0,0.0,0.0,0.0,0.0,0.0,0.0,0.0,0.0,0.0,0.0,0.0,0.0,0.0,0.0,0.0,0.0,0.0,0.0,0.0,0.0,0.0,0.0,0.0,0.0,0.0,0.0,0.0,0.0,0.0,0.0,0.0,0.0,0.0,0.0,0.0,0.0,0.0,0.0,0.0,0.0,0.0,0.0,0.0,0.0,0.0,0.0,0.0,0.0,0.0,0.0,0.0,0.0,0.0,0.0,0.0,0.0,0.0,0.0,0.0,0.0,0.0,0.0,0.0,0.0,0.0,0.0,0.0,0.0,0.0,0.0,0.0,0.0,0.0,0.0,0.0,0.0,0.0,0.0,0.0,0.0,0.0,0.0,0.0,0.0,0.0,0.0,0.0,0.0,0.0,0.0,0.0,0.0,0.0,0.0,0.0,0.0,0.0,0.0,0.0,0.0,0.0,0.0,-1.4015,-1.5391,-1.5757,-1.6184,-1.6861,-1.6356,-1.597,-1.5904,0.0,0.0,0.0,0.0,0.0,0.0,0.0,0.0,0.0,0.0,0.0,0.0,0.0,0.0,0.0,0.0,0.0,0.0,0.0,0.0,0.0,0.0,0.0,0.0,0.0,0.0,0.0,0.0,0.0,0.0,0.0,0.0,0.0,0.0,0.0,0.0,0.0,0.0,0.0,0.0,0.0,0.0,0.0,0.0,0.0,0.0,0.0,0.0,0.0,0.0,0.0,0.0,0.0,0.0,0.0,0.0,0.0,0.0,0.0,0.0,0.0,0.0,0.0,0.0,0.0,0.0,0.0,0.0,0.0,0.0,0.0,0.0,0.0,0.0,0.0,0.0,0.0,0.0,0.0,0.0,0.0,0.0,0.0,0.0,0.0,0.0,0.0,0.0,0.0,0.0,0.0,0.0,0.0,0.0,0.0,0.0,0.0,0.0,0.0,0.0,0.0,0.0,0.0,-1.4596,-1.5136,-1.5885,-1.6434,-1.6908,-1.7276,-1.7025,-1.6639,-1.6129,-1.5666,0.0,0.0,0.0,0.0,0.0,0.0,0.0,0.0,0.0,0.0,0.0,0.0,0.0,0.0,0.0,0.0,0.0,0.0,0.0,0.0,0.0,0.0,0.0,0.0,0.0,0.0,0.0,0.0,0.0,0.0,0.0,0.0,0.0,0.0,0.0,0.0,0.0,0.0,0.0,0.0,0.0,0.0,0.0,0.0,0.0,0.0,0.0,0.0,0.0,0.0,0.0,0.0,0.0,0.0,0.0,0.0,0.0,0.0,0.0,0.0,0.0,0.0,0.0,0.0,0.0,0.0,0.0,0.0,0.0,0.0,0.0,0.0,0.0,0.0,0.0,0.0,0.0,0.0,0.0,0.0,0.0,0.0,0.0,0.0,0.0,0.0,0.0,0.0,0.0,0.0,0.0,0.0,0.0,0.0,0.0,0.0,0.0,0.0,0.0,0.0,0.0,0.0,-1.5646,-1.6171,-1.6547,-1.7207,-1.7679,-1.787,-1.776,-1.7402,-1.6732,-1.6268,0.0,0.0,0.0,0.0,0.0,0.0,0.0,0.0,0.0,0.0,0.0,0.0,0.0,0.0,0.0,0.0,0.0,0.0,0.0,0.0,0.0,0.0,0.0,0.0,0.0,0.0,0.0,0.0,0.0,0.0,0.0,0.0,0.0,0.0,0.0,0.0,0.0,0.0,0.0,0.0,0.0,0.0,0.0,0.0,0.0,0.0,0.0,0.0,0.0,0.0,0.0,0.0,0.0,0.0,0.0,0.0,0.0,0.0,0.0,0.0,0.0,0.0,0.0,0.0,0.0,0.0,0.0,0.0,0.0,0.0,0.0,0.0,0.0,0.0,0.0,0.0,0.0,0.0,0.0,0.0,0.0,0.0,0.0,0.0,0.0,0.0,0.0,0.0,0.0,0.0,0.0,0.0,0.0,0.0,0.0,0.0,0.0,0.0,0.0,0.0,0.0,0.0,-1.6063,-1.6675,-1.816,-1.8424,-1.8806,-1.9564,-1.8938,-1.8487,-1.8427,-1.6897,0.0,0.0,0.0,0.0,0.0,0.0,0.0,0.0,0.0,0.0,0.0,0.0,0.0,0.0,0.0,0.0,0.0,0.0,0.0,0.0,0.0,0.0,0.0,0.0,0.0,0.0,0.0,0.0,0.0,0.0,0.0,0.0,0.0,0.0,0.0,0.0,0.0,0.0,0.0,0.0,0.0,0.0,0.0,0.0,0.0,0.0,0.0,0.0,0.0,0.0,0.0,0.0,0.0,0.0,0.0,0.0,0.0,0.0,0.0,0.0,0.0,0.0,0.0,0.0,0.0,0.0,0.0,0.0,0.0,0.0,0.0,0.0,0.0,0.0,0.0,0.0,0.0,0.0,0.0,0.0,0.0,0.0,0.0,0.0,0.0,0.0,0.0,0.0,0.0,0.0,0.0,0.0,0.0,0.0,0.0,0.0,0.0,0.0,0.0,0.0,0.0,0.0,-1.6601,-1.7336,-1.8435,-1.9071,-1.9515,-1.9781,-1.952,-1.9113,-1.8563,0.0,0.0,0.0,0.0,0.0,0.0,0.0,0.0,0.0,0.0,0.0,0.0,0.0,0.0,0.0,0.0,0.0,0.0,0.0,0.0,0.0,0.0,0.0,0.0,0.0,0.0,0.0,0.0,0.0,0.0,0.0,0.0,0.0,0.0,0.0,0.0,0.0,0.0,0.0,0.0,0.0,0.0,0.0,0.0,0.0,0.0,0.0,0.0,0.0,0.0,0.0,0.0,0.0,0.0,0.0,0.0,0.0,0.0,0.0,0.0,0.0,0.0,0.0,0.0,0.0,0.0,0.0,0.0,0.0,0.0,0.0,0.0,0.0,0.0,0.0,0.0,0.0,0.0,0.0,0.0,0.0,0.0,0.0,0.0,0.0,0.0,0.0,0.0,0.0,0.0,0.0,0.0,0.0,0.0,0.0,0.0,0.0,0.0,0.0,0.0,0.0,0.0,-1.6442,-1.7084,-1.7838,-1.8903,-1.9547,-1.9875,-1.9842,-1.9809,-1.9552,-1.8946,0.0,0.0,0.0,0.0,0.0,0.0,0.0,0.0,0.0,0.0,0.0,0.0,0.0,0.0,0.0,0.0,0.0,0.0,0.0,0.0,0.0,0.0,0.0,0.0,0.0,0.0,0.0,0.0,0.0,0.0,0.0,0.0,0.0,0.0,0.0,0.0,0.0,0.0,0.0,0.0,0.0,0.0,0.0,0.0,0.0,0.0,0.0,0.0,0.0,0.0,0.0,0.0,0.0,0.0,0.0,0.0,0.0,0.0,0.0,0.0,0.0,0.0,0.0,0.0,0.0,0.0,0.0,0.0,0.0,0.0,0.0,0.0,0.0,0.0,0.0,0.0,0.0,0.0,0.0,0.0,0.0,0.0,0.0,0.0,0.0,0.0,0.0,0.0,0.0,0.0,0.0,0.0,0.0,0.0,0.0,0.0,0.0,0.0,0.0,0.0,0.0,0.0,-1.7207,-1.7473,-1.8125,-1.9726,-1.9908,-1.9908,-1.9915,-1.9852,-1.9818,0.0,0.0,0.0,0.0,0.0,0.0,0.0,0.0,0.0,0.0,0.0,0.0,0.0,0.0,0.0,0.0,0.0,0.0,0.0,0.0,0.0,0.0,0.0,0.0,0.0,0.0,0.0,0.0,0.0,0.0,0.0,0.0,0.0,0.0,0.0,0.0,0.0,0.0,0.0,0.0,0.0,0.0,0.0,0.0,0.0,0.0,0.0,0.0,0.0,0.0,0.0,0.0,0.0,0.0,0.0,0.0,0.0,0.0,0.0,0.0,0.0,0.0,0.0,0.0,0.0,0.0,0.0,0.0,0.0,0.0,0.0,0.0,0.0,0.0,0.0,0.0,0.0,0.0,0.0,0.0,0.0,0.0,0.0,0.0,0.0,0.0,0.0,0.0,0.0,0.0,0.0,0.0,0.0,0.0,0.0,0.0,0.0,0.0,0.0,0.0,0.0,0.0,0.0,-1.734,-1.7984,-1.8761,-1.9848,-2.0483,-2.0812,-2.0817,-2.0805,-2.0774,-2.0724,0.0,0.0,0.0,0.0,0.0,0.0,0.0,0.0,0.0,0.0,0.0,0.0,0.0,0.0,0.0,0.0,0.0,0.0,0.0,0.0,0.0,0.0,0.0,0.0,0.0,0.0,0.0,0.0,0.0,0.0,0.0,0.0,0.0,0.0,0.0,0.0,0.0,0.0,0.0,0.0,0.0,0.0,0.0,0.0,0.0,0.0,0.0,0.0,0.0,0.0,0.0,0.0,0.0,0.0,0.0,0.0,0.0,0.0,0.0,0.0,0.0,0.0,0.0,0.0,0.0,0.0,0.0,0.0,0.0,0.0,0.0,0.0,0.0,0.0,0.0,0.0,0.0,0.0,0.0,0.0,0.0,0.0,0.0,0.0,0.0,0.0,0.0,0.0,0.0,0.0,0.0,0.0,0.0,0.0,0.0,0.0,0.0,0.0,0.0,0.0,0.0,0.0,-1.7919,-1.8734,-1.9579,-2.0432,-2.1248,-2.172,-2.1716,-2.1691,-2.1516,-2.1154,0.0,0.0,0.0,0.0,0.0,0.0,0.0,0.0,0.0,0.0,0.0,0.0,0.0,0.0,0.0,0.0,0.0,0.0,0.0,0.0,0.0,0.0,0.0,0.0,0.0,0.0,0.0,0.0,0.0,0.0,0.0,0.0,0.0,0.0,0.0,0.0,0.0,0.0,0.0,0.0,0.0,0.0,0.0,0.0,0.0,0.0,0.0,0.0,0.0,0.0,0.0,0.0,0.0,0.0,0.0,0.0,0.0,0.0,0.0,0.0,0.0,0.0,0.0,0.0,0.0,0.0,0.0,0.0,0.0,0.0,0.0,0.0,0.0,0.0,0.0,0.0,0.0,0.0,0.0,0.0,0.0,0.0,0.0,0.0,0.0,0.0,0.0,0.0,0.0,0.0,0.0,0.0,0.0,0.0,0.0,0.0,0.0,0.0,0.0,0.0,0.0,0.0,-1.8707,-1.963,-2.0496,-2.1225,-2.2099,-2.2631,-2.2619,-2.2561,-2.2221,-2.1493,0.0,0.0,0.0,0.0,0.0,0.0,0.0,0.0,0.0,0.0,0.0,0.0,0.0,0.0,0.0,0.0,0.0,0.0,0.0,0.0,0.0,0.0,0.0,0.0,0.0,0.0,0.0,0.0,0.0,0.0,0.0,0.0,0.0,0.0,0.0,0.0,0.0,0.0,0.0,0.0,0.0,0.0,0.0,0.0,0.0,0.0,0.0,0.0,0.0,0.0,0.0,0.0,0.0,0.0,0.0,0.0,0.0,0.0,0.0,0.0,-1.3972,-1.2802,0.0,0.0,0.0,0.0,0.0,0.0,0.0,0.0,0.0,0.0,0.0,0.0,0.0,0.0,0.0,0.0,0.0,0.0,0.0,0.0,0.0,0.0,0.0,0.0,0.0,0.0,0.0,0.0,0.0,0.0,0.0,0.0,0.0,0.0,0.0,0.0,0.0,0.0,0.0,0.0,-1.8773,-2.0165,-2.1166,-2.1286,-2.2677,-2.3572,-2.3529,-2.3502,-2.3433,-2.3262,-2.195,0.0,0.0,0.0,0.0,0.0,0.0,0.0,0.0,0.0,0.0,0.0,0.0,0.0,0.0,0.0,0.0,0.0,0.0,0.0,0.0,0.0,0.0,0.0,0.0,0.0,0.0,0.0,0.0,0.0,0.0,0.0,0.0,0.0,0.0,0.0,0.0,0.0,0.0,0.0,0.0,0.0,0.0,0.0,0.0,0.0,0.0,0.0,0.0,0.0,0.0,0.0,0.0,0.0,0.0,0.0,0.0,0.0,0.0,0.0,-1.6363,-1.5225,0.0,0.0,0.0,0.0,0.0,0.0,0.0,0.0,0.0,0.0,0.0,0.0,0.0,0.0,0.0,0.0,0.0,0.0,0.0,0.0,0.0,0.0,0.0,0.0,0.0,0.0,0.0,0.0,0.0,0.0,0.0,0.0,0.0,0.0,0.0,0.0,0.0,0.0,0.0,0.0,-2.0055,-2.1225,-2.2173,-2.2554,-2.3747,-2.4509,-2.4486,-2.445,-2.4242,-2.3831,-2.2949,0.0,0.0,0.0,0.0,0.0,0.0,0.0,0.0,0.0,0.0,0.0,0.0,0.0,0.0,0.0,0.0,0.0,0.0,0.0,0.0,0.0,0.0,0.0,0.0,0.0,0.0,0.0,0.0,0.0,0.0,0.0,0.0,0.0,0.0,0.0,0.0,0.0,0.0,0.0,0.0,0.0,0.0,0.0,0.0,0.0,0.0,0.0,0.0,0.0,0.0,0.0,0.0,0.0,-1.9645,-2.0095,-2.0801,-2.0739,-2.0716,-2.0631,-1.9301,-1.8447,-1.8013,-1.8008,0.0,0.0,0.0,0.0,0.0,0.0,0.0,0.0,0.0,0.0,0.0,0.0,0.0,0.0,0.0,0.0,0.0,0.0,0.0,0.0,0.0,0.0,-1.8177,-1.8316,-1.8473,-1.8624,-1.8773,0.0,0.0,0.0,0.0,0.0,0.0,0.0,0.0,0.0,0.0,0.0,-2.1434,-2.2359,-2.3226,-2.3948,-2.4752,-2.523,-2.5225,-2.516,-2.481,-2.4091,-2.3898,-2.3103,0.0,0.0,0.0,0.0,0.0,0.0,0.0,0.0,0.0,0.0,0.0,0.0,0.0,0.0,0.0,0.0,0.0,0.0,0.0,0.0,0.0,0.0,0.0,0.0,0.0,0.0,0.0,0.0,0.0,0.0,0.0,0.0,-1.3837,-1.4066,0.0,0.0,0.0,0.0,0.0,0.0,0.0,0.0,0.0,0.0,0.0,0.0,0.0,-1.8853,-1.8849,-2.0298,-2.1045,-2.1108,-2.186,-2.2285,-2.2402,-2.2392,-2.2355,-2.2278,-2.2067,0.0,-1.8842,-1.8835,0.0,0.0,0.0,0.0,0.0,0.0,0.0,0.0,0.0,0.0,0.0,0.0,0.0,0.0,0.0,0.0,0.0,0.0,0.0,0.0,0.0,0.0,-1.9293,-1.9994,-2.0736,-2.1489,-2.2251,-2.0635,-1.9034,-1.9035,-1.9028,-1.9029,0.0,0.0,0.0,0.0,0.0,0.0,-2.1585,-2.3004,-2.4016,-2.4079,-2.4859,-2.5351,-2.5293,-2.5232,-2.5142,-2.5018,-2.4304,-2.344,-2.2461,-2.1593,0.0,0.0,0.0,0.0,0.0,0.0,0.0,0.0,0.0,0.0,0.0,0.0,0.0,0.0,0.0,0.0,0.0,0.0,0.0,0.0,0.0,0.0,0.0,0.0,0.0,0.0,0.0,0.0,0.0,-1.3623,-1.4463,-1.5438,-1.5862,-1.6274,0.0,0.0,0.0,0.0,0.0,0.0,0.0,0.0,0.0,-1.9186,-2.0381,-2.1004,-2.0966,-2.1693,-2.2266,-2.2693,-2.3117,-2.3568,-2.3982,-2.3993,-2.3959,-2.3881,-2.3894,-2.2989,-2.15,-2.1128,-2.0718,-2.0355,0.0,0.0,0.0,0.0,-1.9392,-1.9058,-1.9554,-1.9697,-1.9764,-2.0289,0.0,0.0,0.0,0.0,0.0,0.0,0.0,-1.9519,-2.0013,-2.0779,-2.151,-2.1831,-2.2227,-2.2769,-2.3637,-2.2925,-2.1982,-2.1492,-2.1387,-2.1394,-2.1392,-2.1391,0.0,0.0,0.0,-2.2638,-2.3065,-2.3782,-2.4423,-2.4842,-2.5232,-2.543,-2.5359,-2.5332,-2.5303,-2.5255,-2.4908,-2.4301,-2.3426,-2.2545,-2.1482,0.0,0.0,0.0,0.0,0.0,0.0,0.0,0.0,0.0,0.0,0.0,0.0,0.0,0.0,0.0,0.0,0.0,0.0,0.0,0.0,0.0,0.0,0.0,0.0,0.0,0.0,0.0,0.0,-1.4609,-1.5224,-1.6522,-1.6814,-1.7157,0.0,0.0,0.0,0.0,0.0,0.0,-1.8707,-2.0105,-2.0855,-2.0763,-2.2315,-2.3128,-2.306,-2.3266,-2.3666,-2.4265,-2.4116,-2.4369,-2.4947,-2.4951,-2.4925,-2.487,-2.4865,-2.4435,-2.3736,-2.3041,-2.2615,-2.242,-2.2438,-2.205,-2.1488,-2.1561,-2.1164,-2.071,-2.1356,-2.1595,-2.1711,-2.2364,-2.2189,-2.1637,-2.11,0.0,0.0,0.0,0.0,-2.1291,-2.194,-2.2746,-2.3388,-2.3339,-2.3698,-2.4233,-2.4903,-2.5195,-2.4974,-2.3684,-2.3427,-2.3356,-2.3142,-2.3095,0.0,-2.3099,-2.3293,-2.3725,-2.4553,-2.4846,-2.5303,-2.6104,-2.5997,-2.5834,-2.5759,-2.5543,-2.5401,-2.5356,-2.534,-2.4928,-2.4053,-2.3391,-2.2488,-2.1356,0.0,0.0,0.0,0.0,0.0,0.0,0.0,0.0,0.0,0.0,0.0,0.0,0.0,0.0,0.0,0.0,0.0,0.0,0.0,0.0,0.0,0.0,0.0,0.0,0.0,0.0,0.0,0.0,0.0,-1.6586,-1.7284,0.0,0.0,0.0,0.0,-1.8885,-1.9711,-2.0479,-2.1183,-2.202,-2.2419,-2.2289,-2.3852,-2.4667,-2.4578,-2.5352,-2.5749,-2.5787,-2.5075,-2.4775,-2.4811,-2.4813,-2.4813,-2.4796,-2.4739,-2.4638,-2.4484,-2.374,-2.2971,-2.2225,-2.2289,-2.2279,-2.2258,-2.2312,-2.2322,-2.229,-2.2328,-2.2391,-2.2443,-2.2493,-2.2556,-2.2643,-2.2674,-2.2658,0.0,0.0,-2.2836,-2.2881,-2.2932,-2.3593,-2.4236,-2.4244,-2.5453,-2.664,-2.6753,-2.7371,-2.72,-2.4799,-2.4326,-2.4066,-2.3244,0.0,-2.3102,-2.3103,-2.3803,-2.4648,-2.5523,-2.6347,-2.7174,-2.7975,-2.7317,-2.6801,-2.6737,-2.5968,-2.5492,-2.5492,-2.5434,-2.4999,-2.4133,-2.3985,-2.3132,-2.1435,-2.118,0.0,0.0,0.0,0.0,0.0,0.0,0.0,0.0,0.0,0.0,0.0,0.0,0.0,0.0,0.0,0.0,0.0,0.0,0.0,0.0,0.0,0.0,0.0,0.0,0.0,0.0,0.0,0.0,-1.8856,-1.9194,0.0,-2.0791,-2.0888,-2.0985,-2.1235,-2.1541,-2.2035,-2.2776,-2.3575,-2.4212,-2.4642,-2.5709,-2.6227,-2.6115,-2.6438,-2.6588,-2.6543,-2.6367,-2.6261,-2.6227,-2.6261,-2.6236,-2.6151,-2.6125,-2.6052,-2.594,-2.5681,-2.5112,-2.4452,-2.4519,-2.4904,-2.5405,-2.5455,-2.5493,-2.5486,-2.5486,-2.5525,-2.5513,-2.5034,-2.4241,-2.3485,-2.3554,-2.3617,-2.379,-2.4382,-2.4948,-2.5515,-2.607,-2.6446,-2.6684,-2.668,-2.7139,-2.7578,-2.7598,-2.7865,-2.7844,-2.6953,-2.6826,-2.6747,-2.6441,-2.6383,-2.64,-2.6441,-2.6707,-2.7021,-2.7326,-2.7637,-2.7927,-2.8174,-2.7924,-2.7498,-2.6909,-2.658,-2.6158,-2.5602,-2.5495,-2.5333,-2.5004,-2.4395,-2.3746,-2.3093,-2.1882,-2.0937,0.0,0.0,0.0,0.0,0.0,0.0,0.0,0.0,0.0,0.0,0.0,0.0,0.0,0.0,0.0,0.0,0.0,0.0,0.0,0.0,0.0,0.0,0.0,0.0,0.0,0.0,-1.904,-2.0104,-2.0665,-2.1503,-2.2842,-2.2964,-2.3179,-2.368,-2.3717,-2.4036,-2.478,-2.5301,-2.5794,-2.6258,-2.7009,-2.7363,-2.7276,-2.7315,-2.7324,-2.7264,-2.7093,-2.6981,-2.6926,-2.6981,-2.6954,-2.6877,-2.6848,-2.679,-2.6689,-2.6689,-2.6603,-2.6432,-2.6219,-2.6506,-2.7037,-2.7119,-2.7126,-2.7131,-2.7174,-2.7243,-2.7226,-2.6763,-2.5922,-2.5127,-2.5219,-2.5282,-2.5438,-2.6044,-2.6641,-2.7238,-2.7817,-2.7971,-2.7971,-2.7962,-2.8183,-2.8403,-2.843,-2.8699,-2.8946,-2.8939,-2.8521,-2.8164,-2.8203,-2.8195,-2.8216,-2.8286,-2.8297,-2.8412,-2.8701,-2.8737,-2.8828,-2.9052,-2.8831,-2.8316,-2.7447,-2.7079,-2.6539,-2.5687,-2.5576,-2.5518,-2.5503,-2.4881,-2.4378,-2.4044,-2.2505,-2.166,-2.1572,0.0,0.0,0.0,0.0,0.0,0.0,0.0,0.0,0.0,0.0,0.0,0.0,0.0,0.0,0.0,0.0,0.0,0.0,0.0,0.0,0.0,0.0,0.0,-1.8208,-1.9358,-2.0329,-2.0229,-2.1605,-2.2892,-2.3689,-2.3799,-2.4449,-2.6012,-2.6135,-2.6447,-2.7195,-2.7163,-2.7129,-2.7075,-2.7693,-2.8051,-2.8031,-2.8045,-2.804,-2.8021,-2.7252,-2.6865,-2.6865,-2.6865,-2.6865,-2.6865,-2.6805,-2.6772,-2.6767,-2.6767,-2.7227,-2.7856,-2.7121,-2.6895,-2.6971,-2.7056,-2.7065,-2.7101,-2.7236,-2.7296,-2.7354,-2.7418,-2.7451,-2.7519,-2.765,-2.7704,-2.775,-2.7817,-2.79,-2.797,-2.797,-2.7971,-2.7981,-2.7971,-2.8618,-2.9265,-2.9322,-2.9998,-3.0597,-3.0603,-2.9285,-2.8197,-2.8272,-2.8281,-2.83,-2.8375,-2.8378,0.0,-2.9532,-2.9637,-2.9941,-3.0724,-3.0101,-2.9272,-2.8379,-2.7468,-2.6589,-2.5748,-2.5644,-2.5576,-2.5548,-2.5482,-2.5031,-2.4149,-2.3116,-2.2488,-2.2301,0.0,0.0,0.0,0.0,0.0,0.0,0.0,0.0,0.0,0.0,0.0,0.0,0.0,0.0,0.0,0.0,0.0,0.0,0.0,0.0,0.0,0.0,-2.0834,-1.9783,-2.0977,-2.2173,-2.2717,-2.3651,-2.4525,-2.5229,-2.5863,-2.6376,-2.674,-2.6751,-2.7108,-2.7877,-2.7904,-2.8155,-2.873,-2.8871,-2.8919,-2.8879,-2.8876,-2.8842,-2.8798,-2.8624,-2.8535,-2.8535,-2.8535,-2.8504,-2.847,-2.8448,-2.8414,-2.8365,-2.8365,-2.8494,-2.8626,-2.7883,-2.8026,-2.8646,-2.8667,-2.873,-2.881,-2.8914,-2.8603,-2.8192,-2.8242,-2.7881,-2.7437,-2.7519,-2.8034,-2.8568,-2.8594,-2.9104,-2.9639,-2.9646,-2.9648,-2.9648,-2.97,-2.9895,-3.0071,-3.0093,-3.0317,-3.054,-3.0588,-3.0235,-2.9933,-2.9995,-3.0006,-3.0039,-3.0102,-3.0114,-3.0199,-3.044,-3.0515,-3.0635,-3.0849,-3.0626,-2.9882,-2.8425,-2.806,-2.7283,-2.5787,-2.5644,-2.5876,-2.6488,-2.6403,-2.5907,-2.4985,-2.4581,-2.3719,0.0,0.0,0.0,0.0,0.0,0.0,0.0,0.0,0.0,0.0,0.0,0.0,0.0,0.0,0.0,0.0,0.0,0.0,0.0,0.0,0.0,0.0,-2.1738,-2.2412,-2.2249,-2.2713,-2.3339,-2.4089,-2.4851,-2.5741,-2.6798,-2.736,-2.7773,-2.8026,-2.8054,-2.825,-2.8686,-2.8685,-2.8877,-2.9347,-2.9271,-2.9197,-2.9165,-2.9121,-2.9098,-2.9053,-2.9098,-2.9121,-2.9121,-2.9121,-2.9098,-2.9062,-2.9062,-2.904,-2.8994,-2.8994,-2.8994,-2.8971,0.0,0.0,0.0,0.0,-2.94,-2.9502,-2.955,-2.9317,-2.9014,-2.9075,-2.8777,-2.8427,-2.8514,-2.8946,-2.9398,-2.9393,-2.9821,-3.0257,-3.0264,-3.0279,-3.0316,-3.0348,-3.0381,-3.0415,-3.0437,-3.047,-3.052,-3.0588,-3.0595,0.0,-3.0651,-3.0682,-3.0718,-3.0789,-3.0798,-3.0798,-3.0801,-3.0858,-3.0896,-3.0898,-3.0867,-3.0304,-2.8957,-2.8511,0.0,0.0,0.0,-2.6515,-2.7375,-2.7301,0.0,0.0,0.0,-2.5519,-2.4075,-2.3602,0.0,0.0,-2.012,-1.9158,0.0,0.0,0.0,0.0,0.0,0.0,0.0,0.0,0.0,0.0,0.0,0.0,0.0,0.0,0.0,0.0,-2.2909,-2.4145,-2.4903,-2.4459,-2.4289,-2.4907,-2.5677,-2.6733,-2.8147,-2.8371,-2.8726,-2.9426,-2.9482,-2.9462,-2.9392,-2.9312,0.0,0.0,0.0,-2.9098,-2.9098,-2.903,-2.8994,-2.8994,-2.8994,-2.8994,-2.8994,-2.8994,-2.8994,-2.8994,-2.8994,-2.8994,-2.8994,-2.8994,-2.9007,-2.9017,-2.9076,-2.9143,-2.9209,-2.9356,-2.945,-2.9492,-2.9492,0.0,0.0,-2.9773,-2.9798,-2.9816,-2.9949,-3.0047,-3.0093,-3.0104,-3.0142,-3.0184,-3.0198,-3.0241,-3.0282,-3.0295,-3.0357,-3.0412,-3.0468,-3.0489,-3.0519,-3.0579,-3.0586,-3.0602,-3.0602,-3.0668,-3.0718,-3.0778,-3.0798,-3.0798,-3.0798,-3.0862,-3.0903,-3.0905,-3.0898,0.0,-2.9669,-2.8886,-2.8074,-2.7202,-2.7178,-2.7512,-2.8221,-2.8281,-2.8222,-2.8046,-2.798,-2.7477,-2.654,-2.5642,-2.4771,-2.3921,-2.2536,-2.1463,0.0,0.0,0.0,0.0,0.0,0.0,0.0,0.0,0.0,0.0,0.0,0.0,0.0,0.0,0.0,-2.3013,-2.3921,-2.4723,-2.5517,-2.5998,-2.6374,-2.6603,-2.7352,-2.7951,-2.8193,-2.8798,-2.9234,-2.9337,-2.9335,-2.9304,-2.9243,-2.9222,-2.9222,-2.9209,-2.9143,-2.9098,-2.9098,-2.903,-2.8994,-2.8994,-2.8994,0.0,-2.8994,-2.8994,-2.8994,-2.8994,-2.8994,-2.8994,-2.8994,-2.8994,-2.903,-2.9076,-2.9156,-2.9187,-2.9209,-2.9356,-2.94,-2.9433,-2.9472,-2.955,-2.9626,-2.9691,-2.9754,-2.9816,-2.9903,-2.9968,0.0,-3.0078,-3.0104,-3.0128,-3.0184,-3.0211,-3.0228,-3.0292,-3.0316,-3.0348,-3.0402,-3.0457,-3.0499,-3.0519,-3.0559,-3.0594,-3.0602,-3.0668,-3.0703,-3.0718,-3.0774,-3.0798,-3.0798,-3.0862,-3.0903,-3.0903,-3.0898,-3.0546,-2.9669,-2.9452,-2.8981,-2.8105,-2.8646,-2.9038,-2.9139,-2.9759,-2.9727,-2.8965,-2.8884,-2.8391,-2.7452,-2.7204,-2.6935,-2.6571,-2.3438,-2.1853,0.0,0.0,0.0,0.0,0.0,0.0,0.0,0.0,0.0,0.0,0.0,-2.1289,0.0,0.0,-2.3182,-2.4011,-2.5057,-2.6031,-2.6786,-2.7211,-2.7479,-2.753,-2.7911,-2.8301,-2.8649,-2.9057,-2.9286,-2.9262,-2.924,-2.924,-2.92,-2.9165,-2.9134,-2.9098,-2.9021,-2.8998,-2.8998,-2.8984,-2.8961,-2.8994,-2.8994,-2.8994,-2.8994,-2.8994,-2.8994,-2.8994,-2.8994,-2.8994,-2.8994,-2.8994,-2.9017,-2.9053,-2.9165,-2.9209,-2.9262,-2.9356,-2.94,-2.9412,-2.9472,-2.955,-2.9617,-2.9691,-2.9717,-2.9762,-2.9825,-2.991,-2.9956,-2.9997,-3.0059,-3.0109,-3.0142,-3.017,-3.0211,-3.0276,-3.0301,-3.0316,-3.0392,-3.0426,-3.0459,-3.049,-3.055,-3.0596,-3.0602,-3.0656,-3.0704,-3.0697,-3.076,-3.0798,-3.0798,-3.0862,-3.0903,-3.0903,-3.0898,-3.0722,-3.0294,-2.9847,-2.9398,-2.8928,-2.9284,-2.9666,-3.0043,-3.0447,-3.041,-2.9911,-2.9834,-2.9336,-2.8401,-2.8329,-2.8019,-2.7457,-2.5578,-2.4414,0.0,0.0,0.0,0.0,0.0,0.0,0.0,0.0,-2.1438,-2.2314,-2.2478,-2.2595,-2.2971,-2.3986,-2.4825,-2.5004,-2.6182,-2.7301,-2.7869,-2.8086,-2.8175,-2.815,-2.8214,-2.8482,-2.9144,-2.9209,-2.9178,-2.9187,-2.9165,-2.9165,-2.9134,-2.9076,-2.9007,-2.8961,-2.8905,-2.8872,-2.8872,-2.8896,-2.8929,-2.8984,-2.8984,-2.8994,-2.8994,-2.8994,-2.8994,-2.8994,-2.8994,-2.8994,-2.8994,-2.8994,-2.9017,-2.903,-2.9156,-2.924,-2.9302,-2.9386,-2.9409,-2.9401,-2.9453,-2.9531,-2.9569,-2.9654,-2.9691,-2.9709,-2.9754,-2.9823,-2.9881,-2.9898,-2.9978,-3.0079,-3.0085,-3.0142,-3.0207,-3.0257,-3.0286,-3.0316,-3.0364,-3.0386,-3.0418,-3.049,-3.055,-3.0606,-3.0602,-3.0661,-3.0704,-3.0697,-3.0755,-3.0804,-3.0798,-3.0852,-3.0894,-3.0901,-3.0897,-3.0898,-3.0905,-3.0242,-2.9808,-2.9764,-2.9746,-3.0043,-3.0669,-3.0693,-3.0666,-3.0606,-3.055,-3.0133,-2.9344,-2.9296,-2.8878,-2.8101,-2.798,-2.7295,-1.8958,-1.8398,-1.7985,-1.8699,-1.8972,-1.9522,0.0,0.0,-2.2058,-2.2992,-2.3144,-2.3568,-2.5055,-2.5365,-2.5643,-2.6441,-2.7248,-2.78,-2.7827,-2.8375,-2.8768,-2.8721,-2.8929,-2.9098,-2.9191,-2.9209,-2.9187,-2.9121,-2.9062,-2.9007,-2.8952,-2.8881,-2.8843,-2.881,-2.8819,-2.881,-2.881,-2.8881,-2.8896,-2.8896,-2.8961,-2.8994,-2.8994,-2.8994,-2.8994,-2.8994,-2.8994,-2.8994,-2.8994,-2.8994,-2.904,-2.9098,-2.9165,-2.924,-2.9302,-2.9386,-2.9407,-2.9388,-2.9401,-2.9412,-2.9433,-2.9569,-2.9645,-2.9692,-2.9709,-2.9762,-2.9823,-2.9881,-2.9914,-2.9946,-3.007,-3.0109,-3.0138,-3.0207,-3.0257,-3.0296,-3.0304,-3.0364,-3.0418,-3.0489,-3.055,-3.0606,-3.0602,-3.0661,-3.0704,-3.0697,-3.076,-3.0803,-3.0798,-3.0813,-3.0831,-3.0892,-3.0896,-3.0898,-3.0905,-3.0759,-3.0657,-3.0661,-3.0647,-3.0672,-3.0703,-3.0701,-3.0668,-3.0602,-3.0587,-3.0482,-3.0242,-3.0246,-3.0135,-2.9917,-2.9823,-2.8842,-1.8958,-1.9003,-1.9147,0.0,-2.0029,-2.088,-2.2582,-2.3042,-2.3511,-2.4884,-2.517,-2.5402,-2.6085,-2.656,-2.6969,0.0,-2.8024,-2.8512,-2.8457,-2.8718,-2.8881,-2.8819,-2.8905,-2.8975,-2.8975,-2.8975,-2.8961,-2.8938,-2.8914,-2.8867,-2.8834,-2.8819,-2.8785,-2.8752,-2.8728,-2.8728,-2.8728,-2.8776,-2.8801,-2.8834,-2.8867,-2.8891,-2.8891,-2.8929,-2.8952,-2.8994,-2.8994,-2.8994,-2.8994,-2.8994,-2.9017,-2.9053,-2.9121,-2.9165,-2.9197,-2.9344,-2.9386,-2.9356,-2.9381,-2.9373,-2.9373,-2.9502,-2.9569,-2.9579,-2.9579,-2.9654,-2.9756,-2.9782,-2.9841,-2.9905,-2.9978,-3.004,-3.0123,-3.0189,-3.0217,-3.0247,-3.0292,-3.0319,-3.0364,-3.0478,-3.052,-3.055,-3.0584,-3.0663,-3.07,-3.0697,-3.0764,-3.0798,-3.0794,-3.0801,-3.0831,-3.0888,-3.0897,-3.0898,-3.0905,-3.0866,-3.0845,-3.0801,-3.0802,-3.0794,-3.0759,-3.0724,-3.069,-3.0659,-3.0621,-3.0568,-3.052,-3.0479,-3.0414,-3.0315,-3.0253,-2.9751,-1.899,0.0,0.0,-2.0483,-2.1276,-2.2309,-2.3743,-2.4315,-2.4996,-2.6421,-2.6565,-2.6539,-2.679,-2.7121,-2.746,-2.7733,-2.8256,-2.8681,-2.8854,-2.8848,-2.8825,-2.8761,-2.8537,-2.8385,-2.8385,-2.8634,-2.8785,-2.8785,-2.8761,-2.8761,-2.8761,-2.8761,-2.8712,-2.8678,-2.8678,-2.8678,-2.8678,-2.8703,-2.8728,-2.8785,-2.8785,-2.8795,-2.881,-2.8881,-2.8938,-2.8994,-2.8994,-2.8994,-2.8994,-2.8994,-2.9017,-2.903,-2.9076,-2.9121,-2.9143,-2.9283,-2.9304,-2.9283,-2.9319,-2.9321,-2.9291,-2.9403,-2.9443,-2.9443,-2.9492,-2.9569,-2.9645,-2.9692,-2.9773,-2.9855,-2.9888,-3.0003,-3.0118,-3.0157,-3.0203,-3.0247,-3.0289,-3.0304,-3.0359,-3.0478,-3.05,-3.0521,-3.0593,-3.0665,-3.0703,-3.0707,-3.0739,-3.0784,-3.08,-3.0798,-3.0831,-3.0891,-3.0897,-3.0898,-3.0897,-3.0898,-3.0865,-3.0794,-3.0804,-3.0798,-3.0799,-3.0742,-3.0701,-3.07,-3.0644,-3.0622,-3.0598,-3.055,-3.049,-3.0402,-3.0352,-3.0266,0.0,0.0,-2.0258,-2.1772,-2.283,-2.3719,-2.4488,-2.5371,-2.6267,-2.7096,-2.6661,-2.6398,-2.7304,-2.6794,-2.6563,-2.7551,-2.7661,-2.7907,-2.87,-2.8761,-2.8678,-2.8612,-2.7866,-2.7362,0.0,-2.8224,-2.8785,-2.8703,-2.8694,-2.8694,-2.8694,-2.8637,-2.8621,-2.8612,-2.8612,-2.8612,-2.8612,-2.8678,-2.8694,-2.8694,-2.8761,-2.8795,-2.881,-2.8881,-2.8938,-2.8994,-2.8994,-2.8994,-2.8994,-2.8994,-2.904,-2.9098,-2.9098,-2.9143,-2.9209,-2.92,-2.92,-2.92,-2.9209,-2.92,-2.9212,-2.9282,-2.9323,-2.9323,-2.9463,-2.9492,-2.9541,-2.9664,-2.9691,-2.9735,-2.9881,-2.9997,-3.0093,-3.0094,-3.0203,-3.0302,-3.0302,-3.0352,-3.0421,-3.0488,-3.05,-3.0521,-3.0593,-3.0665,-3.0703,-3.0707,-3.0703,-3.073,-3.0788,-3.0798,-3.0831,-3.0889,-3.0896,-3.0898,-3.0898,-3.0901,-3.087,-3.0799,-3.0798,-3.0796,-3.0799,-3.0734,-3.0694,-3.07,-3.0698,-3.0658,-3.0598,-3.0598,-3.053,-3.0407,-3.0402,-3.033,-1.9618,0.0,-2.2242,-2.2842,-2.396,-2.5148,-2.5956,-2.6399,-2.6718,-2.7029,-2.691,-2.6725,-2.6589,-2.638,-2.6317,-2.6659,-2.7205,-2.7674,-2.7915,-2.8391,-2.8678,-2.8621,-2.7872,0.0,0.0,0.0,0.0,-2.7773,-2.8279,-2.8578,-2.8628,-2.8612,-2.8587,-2.8587,-2.8587,-2.8587,-2.8587,-2.8612,-2.8628,-2.8628,-2.8703,-2.8761,-2.881,-2.8881,-2.8938,-2.8994,-2.8994,-2.8994,-2.8994,-2.8994,-2.8984,-2.8975,-2.8975,-2.8943,-2.8929,-2.8929,-2.8929,-2.8952,-2.9134,-2.9165,-2.9134,-2.9212,-2.9225,-2.9255,-2.9337,-2.936,-2.9394,-2.9521,-2.9636,-2.9708,-2.9806,-2.9975,-3.0102,-3.0108,-3.0166,-3.0249,-3.0289,-3.0315,-3.0355,-3.0417,-3.0471,-3.0521,-3.0586,-3.0663,-3.0723,-3.0763,-3.0774,-3.0769,-3.08,-3.0798,-3.0826,-3.0889,-3.0896,-3.0903,-3.0898,-3.0896,-3.0868,-3.0801,-3.0804,-3.0798,-3.0798,-3.0779,-3.0744,-3.0694,-3.0697,-3.0698,-3.0668,-3.0623,-3.0588,-3.053,-3.0437,-3.0381,-2.0814,-2.2127,-2.3466,-2.4138,-2.5193,-2.6224,-2.6729,-2.6836,-2.6854,-2.6854,-2.6516,-2.6074,-2.5664,-2.5418,-2.5371,-2.5705,-2.6504,-2.7167,-2.7425,-2.817,-2.8662,-2.8621,-2.7872,-2.7326,0.0,0.0,0.0,-2.7268,-2.8041,-2.8552,-2.8587,-2.8587,-2.8587,-2.8587,-2.8587,-2.8587,-2.8587,-2.8587,-2.8612,-2.8637,-2.8678,-2.8752,-2.8834,-2.8872,-2.8938,-2.8994,-2.8994,-2.8994,-2.8994,-2.8984,-2.8929,-2.8905,-2.8872,-2.8834,-2.8795,-2.8795,-2.8795,-2.881,-2.8998,-2.9044,-2.9044,-2.9121,-2.9134,-2.9187,-2.9271,-2.9295,-2.933,-2.9453,-2.9589,-2.9682,-2.979,-2.9917,-3.0038,-3.0087,-3.0152,-3.0208,-3.0244,-3.0283,-3.0321,-3.0392,-3.0449,-3.0511,-3.0586,-3.0659,-3.0714,-3.0763,-3.0779,-3.0802,-3.0798,-3.0804,-3.082,-3.0858,-3.0889,-3.0896,-3.0898,-3.0898,-3.0884,-3.0841,-3.0806,-3.0801,-3.0804,-3.0803,-3.0779,-3.0744,-3.0708,-3.07,-3.07,-3.0666,-3.0614,-3.0597,-3.051,-3.0458,-2.2879,-2.3483,-2.4048,-2.5584,-2.6505,-2.6997,-2.6744,-2.6735,-2.6727,-2.6527,-2.5482,-2.4604,0.0,0.0,-2.388,-2.4771,-2.5542,-2.6333,-2.72,-2.8033,-2.8542,0.0,0.0,0.0,0.0,0.0,0.0,-2.7209,0.0,-2.8621,-2.8612,-2.8621,-2.8621,-2.8621,-2.8612,-2.8587,-2.8587,-2.8587,-2.8628,-2.8694,-2.8694,-2.8767,-2.8896,-2.8896,-2.8929,-2.8994,-2.8994,-2.8984,-2.8984,-2.8929,-2.8896,-2.8872,-2.881,-2.8785,-2.8795,-2.8795,-2.8795,-2.8795,-2.8795,-2.8834,-2.8905,-2.8984,-2.903,-2.9121,-2.9249,-2.9292,-2.9326,-2.9462,-2.9559,-2.9626,-2.9773,-2.9857,-2.993,-3.0063,-3.0147,-3.0208,-3.0207,-3.0254,-3.0304,-3.0379,-3.0446,-3.052,-3.0586,-3.0654,-3.0703,-3.0703,-3.0764,-3.0798,-3.0794,-3.0798,-3.0804,-3.0799,-3.086,-3.0903,-3.0903,-3.0898,-3.0897,-3.0901,-3.0841,-3.0799,-3.0804,-3.0802,-3.0799,-3.0799,-3.0736,-3.0697,-3.07,-3.07,-3.0666,-3.0595,-3.0597,-3.053,-2.3305,-2.4757,-2.6218,-2.6689,-2.7282,-2.7572,-2.6859,-2.6671,-2.6335,-2.5138,-2.4688,-2.4362,0.0,0.0,0.0,-2.393,-2.4658,0.0,-2.6315,-2.7118,0.0,-2.8515,0.0,-2.7438,-2.7381,-2.7462,0.0,0.0,-2.8191,-2.8712,-2.8746,-2.8703,-2.8678,-2.8678,-2.8637,-2.8587,-2.8587,-2.8587,-2.8628,-2.8694,-2.8761,-2.881,-2.8896,-2.8952,-2.8984,-2.8994,-2.8961,-2.8929,-2.8929,-2.8858,-2.881,-2.8752,-2.8728,-2.8678,-2.8637,-2.8637,-2.8637,-2.8637,-2.8637,-2.8746,-2.8834,-2.8905,-2.8952,-2.8975,-2.9121,-2.9197,-2.9243,-2.9392,-2.9511,-2.9626,-2.9773,-2.9857,-2.9914,-3.0007,-3.0074,-3.0147,-3.0185,-3.0207,-3.0251,-3.0314,-3.0419,-3.0549,-3.0657,-3.069,-3.072,-3.0769,-3.0784,-3.0804,-3.0804,-3.0798,-3.0804,-3.0799,-3.086,-3.0899,-3.0903,-3.0897,-3.0898,-3.0897,-3.0878,-3.0848,-3.0799,-3.0801,-3.0802,-3.0799,-3.0728,-3.0704,-3.0697,-3.0705,-3.0665,-3.0602,-3.0597,-3.055,-2.4822,-2.6013,-2.7137,-2.7539,-2.7567,-2.7367,-2.6795,-2.6096,-2.534,-2.4454,-2.4091,0.0,-2.3425,0.0,0.0,0.0,0.0,0.0,-2.5472,-2.6555,-2.7488,0.0,-2.7987,0.0,-2.7964,-2.8078,-2.8126,0.0,-2.8497,-2.8761,-2.8795,-2.8737,-2.8694,-2.8694,-2.8628,-2.8587,-2.8587,-2.8637,-2.8687,-2.8752,-2.881,-2.8881,-2.8961,-2.8984,-2.8984,-2.8952,-2.8929,-2.8872,-2.8858,-2.8776,-2.8728,-2.8694,-2.8653,-2.8578,-2.8552,-2.851,-2.8536,-2.8562,-2.8562,-2.8612,-2.8746,-2.8834,-2.8881,-2.8929,-2.9053,-2.9143,-2.9222,-2.9372,-2.9482,-2.9589,-2.9755,-2.9833,-2.9874,-2.9981,-3.0044,-3.0113,-3.0157,-3.018,-3.0238,-3.0328,-3.043,-3.053,-3.0647,-3.0676,-3.0711,-3.0752,-3.0763,-3.0769,-3.0798,-3.0804,-3.0804,-3.0796,-3.0828,-3.087,-3.0899,-3.0903,-3.0898,-3.0898,-3.0903,-3.0884,-3.085,-3.082,-3.0794,-3.0798,-3.076,-3.0728,-3.0701,-3.0707,-3.0678,-3.0637,-3.0604,-3.0588,-2.6453,-2.7057,-2.7405,-2.8103,-2.7576,-2.681,-2.652,-2.5322,-2.4225,-2.3938,0.0,-2.3032,-2.2997,-2.3115,-2.3264,-2.331,0.0,-2.4646,-2.4777,-2.6033,-2.7033,-2.7274,-2.7974,-2.8511,-2.8694,-2.8776,-2.8834,-2.8905,-2.8858,-2.881,-2.881,-2.8752,-2.8703,-2.8678,-2.8637,-2.8587,-2.8587,-2.8678,-2.8728,-2.8795,-2.8881,-2.8929,-2.8994,-2.8994,-2.8952,-2.8881,-2.8872,-2.8834,-2.8776,-2.8585,-2.8506,-2.8506,-2.8281,-2.8185,-2.816,-2.8126,-2.8117,-2.8185,-2.8176,-2.8283,-2.8476,-2.87,-2.8834,-2.8878,-2.8902,-2.8977,-2.9074,-2.9193,-2.9274,-2.942,-2.9709,-2.9781,-2.9833,-2.9959,-3.0038,-3.0093,-3.0104,-3.0142,-3.0238,-3.0364,-3.0449,-3.0521,-3.0585,-3.0644,-3.069,-3.0701,-3.0694,-3.0718,-3.0784,-3.0802,-3.0798,-3.0801,-3.0796,-3.0828,-3.0889,-3.0898,-3.0896,-3.0898,-3.0897,-3.0901,-3.0899,-3.0845,-3.0794,-3.0796,-3.0798,-3.0774,-3.0714,-3.0698,-3.0697,-3.07,-3.0628,-3.0604,-2.598,-2.7023,-2.804,-2.8174,-2.7467,-2.6541,-2.5789,-2.4919,0.0,0.0,-2.23,-2.2103,-2.1454,-2.1923,-2.242,-2.242,0.0,0.0,0.0,0.0,-2.5697,0.0,0.0,0.0,0.0,0.0,0.0,0.0,-2.8929,-2.8872,-2.8872,-2.8776,-2.8678,-2.8612,-2.8621,-2.8587,-2.8587,-2.8678,-2.8728,-2.8795,-2.8881,-2.8905,-2.8929,-2.8929,-2.8881,-2.881,-2.8752,-2.8728,-2.8658,-2.7879,-2.7549,-2.7461,-2.6799,-2.6531,-2.6522,-2.6498,-2.6507,-2.6522,-2.6525,-2.6949,-2.7667,-2.846,-2.8752,-2.8715,-2.8118,-2.807,-2.8218,-2.8292,-2.8415,-2.869,-2.9504,-2.9764,-2.9825,-2.9903,-3.0,-3.0102,-3.0102,-3.0147,-3.0215,-3.0295,-3.0426,-3.052,-3.0588,-3.0613,-3.0644,-3.069,-3.0697,-3.0717,-3.0793,-3.0799,-3.0802,-3.0801,-3.0804,-3.0826,-3.0889,-3.0901,-3.0899,-3.0898,-3.0897,-3.0901,-3.0899,-3.0845,-3.0801,-3.0798,-3.0798,-3.0789,-3.0779,-3.0736,-3.0704,-3.0693,-3.0626,-3.0604,-2.6065,-2.6597,-2.6988,-2.7388,-2.6481,-2.5385,-2.4928,0.0,0.0,0.0,-2.1677,-2.1317,-2.0964,0.0,0.0,0.0,0.0,0.0,0.0,0.0,0.0,0.0,0.0,0.0,0.0,0.0,-2.8825,-2.8891,-2.8825,-2.8825,-2.8905,-2.8767,-2.8678,-2.8612,-2.8587,-2.8612,-2.8653,-2.8712,-2.8785,-2.8858,-2.8872,-2.8896,-2.8896,-2.8848,-2.881,-2.8752,-2.8687,-2.8393,-2.7942,-2.7455,-2.7009,-2.6621,-2.6222,-2.6038,-2.6029,-2.6002,-2.6011,-2.6045,-2.6096,-2.6625,-2.7389,-2.7876,-2.8076,-2.8084,-2.778,-2.7512,-2.7431,-2.7948,-2.82,-2.8521,-2.9458,-2.9746,-2.9825,-2.9886,-3.0,-3.0102,-3.0098,-3.0152,-3.0224,-3.0286,-3.0379,-3.0477,-3.0539,-3.0578,-3.0614,-3.0637,-3.0292,-3.004,-3.0072,-2.9707,-2.962,-3.0079,-2.9747,-2.9506,-2.9542,-2.9552,-2.9744,-3.0194,-3.0224,-3.0435,-3.088,-3.0867,-3.0845,-3.0804,-3.0798,-3.0802,-3.0799,-3.0763,-3.073,-3.0704,-3.0634,-3.0603,-2.579,-2.5906,-2.5764,-2.6347,-2.5403,-2.4285,-2.4067,-2.297,0.0,0.0,-2.1009,-2.0538,-2.0423,0.0,0.0,0.0,0.0,0.0,0.0,0.0,0.0,0.0,0.0,0.0,0.0,0.0,0.0,-2.8785,-2.8728,-2.8752,-2.8825,-2.8728,-2.8653,-2.8587,-2.8612,-2.8662,-2.8694,-2.8776,-2.8834,-2.8872,-2.8896,-2.8872,-2.8839,-2.8785,-2.8712,-2.8635,-2.8397,-2.7913,-2.7241,-2.6849,-2.6339,-2.5799,-2.5575,-2.5455,-2.5455,-2.5419,-2.5428,-2.5479,-2.5544,-2.6105,-2.6805,-2.6853,-2.7175,-2.7482,-2.7438,-2.6958,-2.6615,-2.7557,-2.791,-2.8269,-2.9364,-2.9719,-2.9798,-2.9876,-3.0,-3.0078,-3.0104,-3.0142,-3.0207,-3.0266,-3.033,-3.039,-3.0477,-3.053,-3.0578,-3.0596,-2.9904,-2.9373,-2.9401,-2.8524,-2.8184,-2.8876,-2.8538,-2.8284,-2.8298,-2.8301,-2.859,-2.928,-2.9501,-2.991,-3.0593,-3.0804,-3.0877,-3.0823,-3.0813,-3.0801,-3.0798,-3.0804,-3.0773,-3.0698,-3.0651,-3.061,-2.426,-2.4963,-2.5446,-2.5516,-2.4812,-2.3938,-2.3273,0.0,0.0,-2.0196,-1.9845,-1.9603,-1.8931,-1.9427,0.0,0.0,0.0,0.0,0.0,0.0,0.0,0.0,0.0,0.0,0.0,-2.8694,-2.8728,-2.8785,-2.8728,-2.8678,-2.8637,-2.8621,-2.8621,-2.8587,-2.8653,-2.8694,-2.8694,-2.8825,-2.8848,-2.881,-2.8881,-2.8848,-2.8728,-2.8662,-2.8587,-2.8473,-2.7666,-2.7281,-2.7101,-2.5641,-2.4989,-2.4831,-2.4031,-2.3731,-2.3731,-2.3722,-2.3722,-2.3731,-2.3808,-2.441,-2.5135,-2.519,-2.6263,-2.7382,-2.6727,-2.6051,-2.5717,-2.6656,-2.7017,-2.7503,-2.911,-2.9617,-2.9753,-2.9865,-2.9965,-3.0038,-3.0094,-3.0099,-3.0138,-3.0207,-3.0254,-3.0326,-3.04,-3.0459,-3.053,-3.0588,-2.986,-2.933,-2.9392,-2.8016,-2.7048,-2.7127,-2.7776,-2.8226,-2.8288,-2.8298,-2.8332,-2.8412,-2.9158,-2.9638,-2.9716,-3.0478,-3.0899,-3.0887,-3.0836,-3.0798,-3.0794,-3.0804,-3.0769,-3.0697,-3.0693,-3.0655,-2.3111,-2.3606,-2.4008,-2.4506,-2.3676,-2.2698,-2.2408,0.0,-2.0403,-1.9826,-1.9342,-1.8949,-1.8644,-1.9266,-1.9943,0.0,0.0,0.0,0.0,0.0,0.0,0.0,0.0,0.0,0.0,0.0,-2.8662,-2.8687,-2.8653,-2.8637,-2.8587,-2.8587,-2.8587,-2.8587,-2.8678,-2.8728,-2.8761,-2.881,-2.8858,-2.8858,-2.8752,-2.8678,-2.8637,-2.8536,-2.8188,-2.7702,-2.7311,-2.6613,-2.5688,-2.5007,-2.4447,-2.3991,-2.3642,-2.3494,-2.3508,-2.3548,-2.3539,-2.3508,-2.3674,-2.424,-2.4919,-2.4991,-2.5443,-2.5941,-2.5677,-2.5147,-2.4904,-2.6348,-2.6838,-2.7345,-2.9043,-2.9589,-2.9726,-2.9867,-2.9917,-2.9956,-3.0028,-3.0064,-3.0109,-3.0128,-3.0188,-3.0264,-3.0327,-3.04,-3.0447,-3.0479,-2.9352,-2.8526,-2.8551,-2.7129,-2.6118,-2.612,-2.6456,-2.6708,-2.6734,-2.6739,-2.6959,-2.7483,-2.8341,-2.905,-2.958,-3.0438,-3.0901,-3.0899,-3.0867,-3.084,-3.0798,-3.0798,-3.0774,-3.0703,-3.0697,-3.0688,-2.2022,-2.2436,-2.2651,-2.3206,-2.2588,-2.1723,0.0,0.0,-1.955,-1.9136,-1.8644,-1.8283,-1.8295,-1.8812,-1.9402,0.0,0.0,0.0,0.0,0.0,0.0,0.0,0.0,0.0,0.0,-2.8141,-2.8587,-2.8587,-2.8587,-2.8587,-2.8587,-2.8587,-2.8587,-2.8587,-2.8678,-2.8728,-2.8761,-2.8785,-2.881,-2.8801,-2.8662,-2.8562,-2.8501,-2.8137,-2.7663,-2.7081,-2.6565,-2.5709,-2.4682,-2.4412,-2.3969,-2.3462,-2.3462,-2.3485,-2.3517,-2.3562,-2.3539,-2.3508,-2.3687,-2.41,-2.4568,-2.463,-2.4655,-2.4637,-2.4699,-2.4422,-2.4452,-2.6197,-2.7152,-2.794,-2.9174,-2.9608,-2.9718,-2.9817,-2.9876,-2.9907,-2.9956,-3.0019,-3.0079,-3.0094,-3.0142,-3.0207,-3.0257,-3.033,-3.04,-3.0394,-2.9225,-2.8269,-2.8036,-2.6796,-2.5839,-2.5615,-2.5639,-2.5671,-2.5668,-2.5691,-2.5963,-2.6579,-2.7676,-2.8584,-2.9188,-3.0303,-3.0897,-3.0899,-3.0901,-3.0875,-3.0794,-3.08,-3.0774,-3.0734,-3.0708,-3.0693,-2.0888,-2.1557,-2.1616,-2.1617,-2.1658,-2.1324,0.0,0.0,-1.9216,-1.7815,-1.7515,-1.7533,-1.7611,-1.7628,-1.8163,-1.9829,0.0,0.0,0.0,0.0,0.0,0.0,0.0,0.0,-2.7254,-2.8141,-2.8587,-2.8587,-2.8587,-2.8587,-2.8587,-2.8587,-2.8587,-2.8587,-2.8678,-2.8694,-2.8694,-2.8761,-2.8737,-2.8612,-2.8587,-2.851,-2.8273,-2.7424,-2.697,-2.6819,-2.5222,-2.4532,-2.4428,-2.3649,-2.3345,-2.3392,-2.3392,-2.3439,-2.3494,-2.3494,-2.3494,-2.3517,-2.3594,-2.3652,-2.3709,-2.3792,-2.3798,-2.3804,-2.3804,-2.3896,-2.4374,-2.6197,-2.7987,-2.9384,-2.9472,-2.9598,-2.9692,-2.9692,-2.9809,-2.9903,-2.9898,-2.9956,-3.0028,-3.0094,-3.0147,-3.0199,-3.0198,-3.0308,-3.0398,-3.0398,-2.9704,-2.8898,-2.8095,-2.7224,-2.6405,-2.5683,-2.5601,-2.5599,-2.5604,-2.5664,-2.5704,-2.5714,-2.7337,-2.8303,-2.8313,-2.9979,-3.0898,-3.0898,-3.0899,-3.087,-3.0801,-3.0798,-3.0803,-3.0799,-3.0726,-3.0707,-1.9442,-2.0249,-2.0717,-2.0775,-2.045,-2.0015,-1.9612,-1.8761,-1.7999,-1.764,-1.7133,-1.6936,-1.7545,-1.7703,-1.8086,-1.9173,-2.0084,0.0,0.0,0.0,0.0,0.0,0.0,0.0,0.0,0.0,-2.8024,-2.8551,-2.8587,-2.8587,-2.8587,-2.8562,-2.8552,-2.8587,-2.8678,-2.8678,-2.8628,-2.8662,-2.8596,-2.8458,-2.8362,-2.7996,-2.7326,-2.7014,-2.6269,-2.5231,-2.4727,-2.4189,-2.3667,-2.3419,-2.3313,-2.3345,-2.3392,-2.3407,-2.3448,-2.3485,-2.3539,-2.3594,-2.3652,-2.3709,-2.3765,-2.378,-2.3804,-2.3795,-2.3795,-2.3887,-2.4255,-2.5527,-2.6746,-2.7828,-2.8454,-2.8699,-2.8961,-2.9561,-2.9737,-2.9789,-2.9876,-2.9917,-2.9946,-3.0028,-3.0089,-3.0147,-3.0189,-3.0266,-3.033,-3.0326,-2.9692,-2.8887,-2.8039,-2.7216,-2.6399,-2.5621,-2.5567,-2.5599,-2.56,-2.5618,-2.5646,-2.5703,-2.7345,-2.8296,-2.8303,-2.9973,-3.0897,-3.0898,-3.0898,-3.0873,-3.0801,-3.0804,-3.0798,-3.0799,-3.0728,-3.0698,0.0,-1.9188,-1.9857,-1.9904,-1.9444,0.0,0.0,-1.7802,-1.6932,-1.6774,-1.6335,-1.6244,-1.712,-1.732,-1.7713,-1.8812,-1.9678,0.0,0.0,0.0,0.0,0.0,0.0,0.0,0.0,-2.7154,-2.766,-2.8498,-2.8536,-2.8545,-2.8562,-2.851,-2.8484,-2.851,-2.8562,-2.8552,-2.8484,-2.8484,-2.8279,-2.7817,-2.7718,-2.7192,-2.6322,-2.5967,-2.5288,-2.4337,-2.4021,-2.3608,0.0,-2.3168,-2.3217,-2.3265,-2.3345,-2.3383,-2.3439,-2.3485,-2.3517,-2.3594,-2.3665,-2.373,-2.3774,-2.3783,-2.3795,-2.3795,-2.3816,-2.4147,-2.4633,-2.5306,-2.6171,-2.6989,-2.7519,-2.7774,-2.8016,-2.8586,-2.8735,-2.8787,-2.8907,-2.8947,-2.9064,-2.9469,-2.9587,-2.9727,-3.0099,-3.0226,-3.027,-3.0299,-2.9936,-2.9231,-2.8048,-2.746,-2.6732,-2.5621,-2.5541,-2.557,-2.5604,-2.5596,-2.5624,-2.5662,-2.7302,-2.8265,-2.8298,-2.9966,-3.0899,-3.0896,-3.0897,-3.0879,-3.0842,-3.0806,-3.0798,-3.0798,-3.076,-3.0738,0.0,0.0,0.0,0.0,0.0,0.0,0.0,-1.6694,0.0,-1.5431,-1.5264,-1.5502,-1.6423,-1.6592,-1.7113,-1.8714,0.0,0.0,0.0,0.0,0.0,0.0,-2.4458,0.0,-2.5919,-2.668,-2.7488,-2.8412,-2.8432,-2.8441,-2.8501,-2.8432,-2.8389,-2.8389,-2.8389,-2.8362,-2.83,-2.8246,-2.7754,-2.6881,-2.6756,-2.6197,-2.5278,-2.4524,-2.4121,-2.3946,-2.3224,-2.2893,-2.2919,-2.2961,-2.3086,-2.3217,-2.3256,-2.3392,-2.3485,-2.3494,-2.3508,-2.353,-2.3665,-2.37,-2.3712,-2.3792,-2.3795,-2.3816,-2.3876,-2.4506,-2.525,-2.5378,-2.6002,-2.6634,-2.6689,-2.6813,-2.6944,-2.7065,-2.7145,-2.7203,-2.7292,-2.7359,-2.7651,-2.8539,-2.8753,-2.9059,-2.9875,-3.0118,-3.0221,-3.0289,-3.0304,-2.9719,-2.8116,-2.7856,-2.7218,-2.5662,-2.5495,-2.5536,-2.559,-2.5599,-2.56,-2.5604,-2.7242,-2.8226,-2.83,-2.9967,-3.0899,-3.0899,-3.0842,-3.0809,-3.081,-3.0743,-3.0716,-3.0722,-3.0774,-3.0799,-1.5128,0.0,-1.7275,-1.7335,-1.7324,-1.7149,0.0,0.0,0.0,0.0,0.0,0.0,0.0,0.0,0.0,0.0,0.0,0.0,0.0,0.0,0.0,0.0,-2.3858,-2.4445,-2.5783,-2.6104,-2.6803,-2.8246,-2.838,-2.8415,-2.8406,-2.8415,-2.8389,-2.8336,-2.8282,-2.8237,-2.8209,-2.7495,-2.6986,-2.6663,-2.5982,-2.5197,-2.432,-2.4119,-2.3666,-2.3023,-2.2886,-2.2859,-2.2919,-2.2961,-2.3086,-2.3217,-2.3256,-2.3336,-2.3439,-2.3485,-2.3539,-2.3594,-2.3607,-2.3674,-2.37,-2.3786,-2.3807,-2.3819,-2.3885,-2.4094,-2.4319,-2.4474,-2.4642,-2.4967,-2.5689,-2.595,-2.6172,-2.687,-2.7063,-2.7142,-2.7203,-2.7285,-2.7396,-2.768,-2.8309,-2.8863,-2.9074,-2.9718,-3.0226,-3.0289,-2.9793,-2.9031,-2.8038,-2.7354,-2.6572,-2.5535,-2.547,-2.5512,-2.5519,-2.5573,-2.5604,-2.56,-2.7244,-2.8228,-2.8297,-2.9923,-3.0845,-3.0899,-3.0249,-2.9906,-2.9912,-2.9889,-2.9879,-2.9906,-3.0512,-3.0796,-1.4286,-1.5288,-1.626,-1.628,-1.6141,-1.5919,0.0,0.0,0.0,0.0,0.0,0.0,0.0,0.0,0.0,0.0,0.0,0.0,0.0,0.0,0.0,0.0,-2.353,-2.3957,0.0,-2.5301,-2.5977,-2.7575,-2.7754,-2.7806,-2.7806,-2.7806,-2.7609,-2.7164,-2.7059,-2.7165,-2.752,-2.6967,-2.6292,-2.5461,-2.4896,-2.4222,-2.3413,-2.3333,-2.3055,-2.2614,-2.2685,-2.2738,-2.2816,-2.2944,-2.3086,-2.3217,-2.3313,-2.3369,-2.3407,-2.3439,-2.3439,-2.3415,-2.3494,-2.3553,-2.362,-2.3696,-2.3739,-2.3774,-2.3841,-2.3894,-2.3967,-2.4122,-2.4181,-2.4312,-2.4866,-2.5051,-2.5226,-2.5725,-2.5889,-2.5931,-2.6033,-2.6073,-2.6249,-2.6713,-2.7212,-2.7822,-2.8659,-2.9246,-2.9631,-2.9688,-2.9356,-2.8666,-2.7459,-2.695,-2.637,-2.5488,-2.5455,-2.5497,-2.5495,-2.5528,-2.5576,-2.5594,-2.7235,-2.8217,-2.8252,-2.9887,-3.064,-3.0313,-2.9445,-2.9002,-2.9,-2.9404,-2.9605,-2.9617,-3.0428,-3.0794,-1.3909,-1.4685,-1.5395,-1.5618,-1.5387,-1.5107,0.0,0.0,0.0,0.0,0.0,0.0,0.0,0.0,0.0,0.0,0.0,0.0,0.0,0.0,0.0,-2.3392,-2.3392,0.0,-2.4444,-2.4573,-2.5209,-2.6684,-2.6869,-2.6895,-2.6895,-2.693,-2.6591,-2.5811,-2.5666,-2.5835,-2.6301,-2.6254,-2.5486,-2.4068,-2.382,-2.3314,-2.2659,-2.2542,-2.2479,-2.2487,-2.2569,-2.2632,-2.2738,-2.291,-2.3095,-2.3217,-2.3336,-2.3392,-2.3392,-2.3369,-2.3289,-2.3193,-2.3313,-2.3369,-2.3439,-2.3517,-2.3598,-2.3678,-2.3752,-2.3831,-2.3917,-2.4045,-2.4134,-2.4201,-2.4266,-2.433,-2.4393,-2.447,-2.4495,-2.4528,-2.4651,-2.4692,-2.4945,-2.5723,-2.5989,-2.6592,-2.814,-2.8574,-2.8712,-2.8792,-2.8749,-2.8193,-2.6785,-2.6545,-2.6215,-2.548,-2.5456,-2.5499,-2.5505,-2.5498,-2.5515,-2.5579,-2.7108,-2.8057,-2.8187,-2.9631,-3.0104,-2.9406,-2.8547,-2.8098,-2.8098,-2.8835,-2.9267,-2.9419,-3.024,-3.0679,-1.3395,-1.3599,-1.404,-1.5224,-1.6064,-1.6424,0.0,0.0,0.0,0.0,0.0,0.0,0.0,0.0,0.0,0.0,0.0,0.0,0.0,0.0,-2.3392,-2.3392,0.0,-2.3703,-2.4517,-2.4588,-2.4962,-2.5841,-2.5971,-2.5988,-2.5988,-2.6117,-2.6065,-2.5821,-2.5605,-2.5191,-2.4505,-2.4443,-2.4248,-2.3932,-2.3095,-2.2626,-2.2441,-2.2432,-2.2413,-2.2413,-2.2542,-2.2659,-2.279,-2.2936,-2.3111,-2.3289,-2.3232,-2.3289,-2.3392,-2.3256,-2.3193,-2.3111,-2.3061,-2.3061,-2.3119,-2.3289,-2.3383,-2.3476,-2.3656,-2.3759,-2.3837,-2.3976,-2.4065,-2.4124,-2.4201,-2.4266,-2.433,-2.4403,-2.4462,-2.4512,-2.4528,-2.4619,-2.4736,-2.4882,-2.5557,-2.6199,-2.6531,-2.7267,-2.7812,-2.7896,-2.7324,-2.6824,-2.6628,-2.6015,-2.555,-2.5415,-2.5458,-2.5501,-2.5501,-2.55,-2.5499,-2.5515,-2.6508,-2.743,-2.817,-2.8512,-2.8628,-2.8501,-2.7635,-2.7198,-2.7198,-2.7331,-2.7781,-2.8521,-2.9381,-3.0152,-1.313,-1.3812,-1.4693,-1.5345,-1.5592,-1.5702,0.0,0.0,0.0,0.0,0.0,0.0,0.0,0.0,0.0,0.0,0.0,-2.1657,-2.2095,-2.2835,-2.336,0.0,0.0,-2.3558,-2.3922,-2.3981,-2.4302,-2.5059,-2.5203,-2.5227,-2.5162,-2.5221,-2.4975,-2.4401,-2.4155,-2.3798,-2.3292,-2.3086,-2.3012,-2.3074,-2.263,-2.2394,-2.2338,-2.2386,-2.2413,-2.2413,-2.2587,-2.2712,-2.2808,-2.2986,-2.3135,-2.3241,-2.3241,-2.3241,-2.3208,-2.302,-2.291,-2.2859,-2.2816,-2.2833,-2.291,-2.3086,-2.3241,-2.3392,-2.3544,-2.37,-2.3801,-2.3876,-2.3996,-2.4113,-2.4173,-2.4238,-2.4321,-2.4385,-2.4446,-2.4506,-2.4495,-2.4571,-2.467,-2.4692,-2.5084,-2.5555,-2.6062,-2.6555,-2.6923,-2.6985,-2.6704,-2.6351,-2.5954,-2.5563,-2.536,-2.5396,-2.543,-2.5464,-2.5499,-2.5498,-2.5716,-2.6219,-2.6655,-2.7289,-2.816,-2.7813,-2.7598,-2.7598,-2.6737,-2.6302,-2.6302,-2.6771,-2.7214,-2.7623,-2.8492,-2.9099,-1.3059,-1.4153,-1.5328,-1.5514,0.0,0.0,0.0,0.0,0.0,0.0,0.0,0.0,0.0,0.0,0.0,0.0,-2.1228,-2.2164,-2.2441,-2.2973,-2.3336,-2.3415,-2.3415,-2.3415,-2.3415,-2.3462,-2.3734,-2.4302,-2.4423,-2.4423,-2.4289,-2.4271,-2.3914,-2.3153,-2.2885,-2.2677,-2.2553,-2.2217,-2.215,-2.2313,-2.2257,-2.2237,-2.231,-2.2358,-2.2413,-2.2468,-2.2641,-2.2738,-2.2808,-2.2986,-2.3086,-2.3168,-2.3168,-2.3086,-2.2936,-2.2712,-2.2605,-2.2579,-2.2533,-2.2614,-2.2729,-2.2885,-2.3086,-2.3289,-2.3439,-2.3607,-2.3752,-2.3783,-2.3917,-2.4065,-2.4172,-2.4229,-2.4294,-2.4339,-2.442,-2.4473,-2.4479,-2.453,-2.4606,-2.466,-2.4729,-2.5011,-2.5687,-2.5911,-2.6024,-2.6088,-2.6142,-2.5974,-2.5358,-2.5283,-2.5399,-2.5686,-2.5528,-2.5427,-2.5493,-2.5505,-2.5806,-2.6554,-2.6598,-2.6899,-2.7591,-2.702,-2.6705,-2.6698,-2.6037,-2.5701,-2.5701,-2.6366,-2.6805,-2.7018,-2.7684,-2.8096,-1.3235,-1.3956,-1.4837,-1.5591,0.0,0.0,0.0,0.0,0.0,0.0,0.0,0.0,0.0,0.0,0.0,0.0,-2.1899,-2.2303,-2.3182,0.0,-2.3415,-2.3485,-2.3485,-2.3485,-2.3485,-2.3494,-2.3512,-2.3574,-2.3519,-2.3472,-2.3401,-2.332,-2.3188,-2.2944,-2.2712,-2.256,-2.2413,-2.2081,-2.194,-2.2027,-2.2019,-2.211,-2.231,-2.2358,-2.246,-2.2587,-2.2667,-2.2738,-2.2816,-2.2885,-2.2961,-2.3011,-2.2885,-2.2712,-2.2533,-2.246,-2.2341,-2.2248,-2.2302,-2.2358,-2.246,-2.2738,-2.2936,-2.3135,-2.3336,-2.3508,-2.3643,-2.3762,-2.3846,-2.3937,-2.4065,-2.4153,-2.421,-2.421,-2.4312,-2.4412,-2.4412,-2.4462,-2.4538,-2.4589,-2.4711,-2.483,-2.4879,-2.5002,-2.512,-2.5187,-2.5249,-2.5271,-2.5212,-2.5253,-2.564,-2.6515,-2.5885,-2.5426,-2.5485,-2.5502,-2.5557,-2.5686,-2.5688,-2.5746,-2.5874,-2.5818,-2.5788,-2.5788,-2.5732,-2.5699,-2.5699,-2.5761,-2.6211,-2.6999,-2.7059,-2.753,-1.3269,-1.4297,-1.5432,-1.5787,0.0,0.0,0.0,0.0,0.0,0.0,0.0,0.0,0.0,0.0,0.0,-2.2027,-2.2523,-2.3008,-2.3403,-2.3415,-2.3415,-2.3494,-2.3462,-2.3439,-2.3439,-2.3439,-2.3415,-2.3392,-2.3313,-2.3241,-2.3193,-2.3036,-2.2893,-2.279,-2.2533,-2.236,-2.2215,-2.2015,-2.1911,-2.194,-2.1969,-2.2036,-2.211,-2.2369,-2.2487,-2.2542,-2.2694,-2.279,-2.2816,-2.2842,-2.2859,-2.2859,-2.2685,-2.2525,-2.236,-2.2313,-2.2183,-2.2073,-2.2189,-2.231,-2.2441,-2.2659,-2.2859,-2.3061,-2.3217,-2.3392,-2.3562,-2.3603,-2.3728,-2.3876,-2.4045,-2.4153,-2.4192,-2.4192,-2.4266,-2.4339,-2.4385,-2.4446,-2.4532,-2.4599,-2.467,-2.4747,-2.4787,-2.4913,-2.5004,-2.5027,-2.5085,-2.5149,-2.5185,-2.5221,-2.5388,-2.5784,-2.5616,-2.5472,-2.55,-2.5538,-2.5573,-2.5597,-2.5605,-2.5605,-2.5642,-2.5678,-2.57,-2.5703,-2.5697,-2.5698,-2.5703,-2.5703,-2.5869,-2.6188,-2.6191,-2.6366,-1.3354,-1.4624,-1.5939,0.0,0.0,0.0,0.0,0.0,0.0,0.0,0.0,0.0,0.0,0.0,0.0,0.0,-2.3,-2.3369,-2.3471,-2.3415,-2.3392,-2.3439,-2.3392,-2.3336,-2.3321,-2.3321,-2.3289,-2.3241,-2.3168,-2.3095,-2.3011,-2.2833,-2.2694,-2.2614,-2.2441,-2.2257,-2.213,-2.2044,-2.1978,-2.194,-2.2015,-2.2081,-2.2101,-2.236,-2.2487,-2.2515,-2.2641,-2.2712,-2.2738,-2.2712,-2.265,-2.2571,-2.2398,-2.224,-2.2098,-2.2077,-2.1974,-2.1899,-2.2028,-2.2172,-2.2304,-2.2525,-2.2738,-2.2936,-2.3061,-2.3217,-2.3369,-2.3415,-2.3571,-2.3741,-2.3926,-2.4066,-2.4163,-2.4163,-2.4229,-2.4284,-2.4339,-2.4403,-2.45,-2.4558,-2.4622,-2.4686,-2.4766,-2.4856,-2.4946,-2.4987,-2.5044,-2.5098,-2.5189,-2.5206,-2.5231,-2.5293,-2.5628,-2.5756,-2.5526,-2.5543,-2.558,-2.5599,-2.5604,-2.56,-2.5595,-2.5661,-2.5697,-2.5703,-2.5703,-2.5705,-2.5703,-2.5703,-2.5703,-2.57,-2.5702,-2.5701,-1.3549,-1.4868,0.0,0.0,0.0,0.0,0.0,0.0,0.0,0.0,0.0,0.0,0.0,0.0,0.0,-2.3289,-2.3241,-2.3241,-2.3392,-2.3336,-2.3298,-2.3298,-2.3241,-2.316,-2.3111,-2.3095,-2.3095,-2.3095,-2.2961,-2.2859,-2.2816,-2.2659,-2.2542,-2.2405,-2.2413,-2.2338,-2.2214,-2.2209,-2.2118,-2.199,-2.2152,-2.2234,-2.231,-2.2358,-2.2441,-2.2515,-2.2515,-2.2533,-2.2579,-2.2533,-2.2335,-2.2096,-2.2019,-2.1861,-2.1694,-2.1694,-2.1664,-2.1612,-2.1738,-2.1899,-2.2027,-2.2304,-2.2533,-2.2712,-2.2868,-2.2936,-2.3036,-2.3241,-2.3398,-2.354,-2.3658,-2.3887,-2.4103,-2.4094,-2.4153,-2.4192,-2.4192,-2.4303,-2.4412,-2.4482,-2.4549,-2.4622,-2.4692,-2.4757,-2.4836,-2.4973,-2.501,-2.5053,-2.5189,-2.5201,-2.5236,-2.5283,-2.6073,-2.6293,-2.5561,-2.5497,-2.5527,-2.5586,-2.5597,-2.5595,-2.5604,-2.5664,-2.5697,-2.57,-2.5703,-2.5702,-2.57,-2.5703,-2.5703,-2.57,-2.5702,-2.5701,-1.3772,-1.5007,0.0,0.0,0.0,0.0,0.0,0.0,0.0,0.0,0.0,0.0,0.0,0.0,0.0,-2.316,-2.3135,-2.3135,-2.3184,-2.3135,-2.3061,-2.3011,-2.2961,-2.2885,-2.2842,-2.2816,-2.2816,-2.2816,-2.2738,-2.2685,-2.2659,-2.2533,-2.2432,-2.2413,-2.2358,-2.231,-2.2254,-2.2274,-2.2237,-2.22,-2.2245,-2.2262,-2.2234,-2.2358,-2.2413,-2.2432,-2.2487,-2.2515,-2.2506,-2.2298,-2.2064,-2.1819,-2.1738,-2.1595,-2.1411,-2.1411,-2.1442,-2.1464,-2.1595,-2.1797,-2.1969,-2.2141,-2.2343,-2.2515,-2.2587,-2.2712,-2.2816,-2.2859,-2.3028,-2.3247,-2.3333,-2.354,-2.3819,-2.4045,-2.4152,-2.4209,-2.4201,-2.4238,-2.4312,-2.4473,-2.4517,-2.4558,-2.4622,-2.4686,-2.4757,-2.485,-2.4946,-2.5053,-2.5189,-2.5201,-2.5236,-2.5283,-2.5524,-2.562,-2.544,-2.547,-2.551,-2.5528,-2.5572,-2.56,-2.5605,-2.5662,-2.57,-2.57,-2.5703,-2.5702,-2.57,-2.5703,-2.5703,-2.57,-2.5695,-2.5703,-1.3877,0.0,0.0,0.0,0.0,0.0,0.0,0.0,0.0,0.0,0.0,0.0,-2.2265,-2.2761,0.0,-2.2986,-2.2961,-2.2936,-2.2936,-2.2649,-2.2433,-2.2348,-2.228,-2.2211,-2.2159,-2.2407,-2.2587,-2.2587,-2.2533,-2.2506,-2.2506,-2.2413,-2.2358,-2.2358,-2.2338,-2.2302,-2.2262,-2.2302,-2.2302,-2.2262,-2.2291,-2.2282,-2.2234,-2.233,-2.2358,-2.2358,-2.2405,-2.2369,-2.2279,-2.2064,-2.1832,-2.1556,-2.1489,-2.1333,-2.1207,-2.1207,-2.1238,-2.1294,-2.1388,-2.1565,-2.1713,-2.1861,-2.2023,-2.2192,-2.226,-2.2371,-2.2445,-2.2552,-2.2738,-2.2936,-2.3036,-2.3271,-2.3562,-2.3864,-2.4016,-2.4084,-2.4105,-2.4163,-2.4247,-2.4358,-2.442,-2.4473,-2.4558,-2.4631,-2.4686,-2.4791,-2.4913,-2.5044,-2.5141,-2.5156,-2.5193,-2.5252,-2.5263,-2.5303,-2.5387,-2.5456,-2.5503,-2.5502,-2.556,-2.5604,-2.56,-2.5634,-2.5668,-2.57,-2.5698,-2.5699,-2.57,-2.5703,-2.5703,-2.57,-2.5697,-2.5705,0.0,0.0,0.0,0.0,0.0,0.0,0.0,0.0,0.0,0.0,0.0,-2.2098,-2.2829,-2.291,-2.2833,-2.2764,-2.2712,-2.2659,-2.2659,-2.2031,-2.154,-2.1473,-2.1396,-2.1353,-2.1248,-2.1936,-2.2349,-2.2341,-2.2349,-2.2349,-2.2349,-2.2302,-2.2274,-2.2274,-2.2321,-2.2302,-2.2168,-2.2302,-2.2302,-2.2168,-2.2262,-2.2282,-2.2282,-2.2291,-2.2291,-2.2282,-2.2274,-2.2155,-2.1969,-2.1811,-2.1609,-2.1355,-2.1199,-2.1127,-2.1046,-2.1046,-2.107,-2.1103,-2.1151,-2.1254,-2.1394,-2.1511,-2.1656,-2.1789,-2.1911,-2.1961,-2.2027,-2.2285,-2.2424,-2.2597,-2.2782,-2.3035,-2.3307,-2.3562,-2.3774,-2.3896,-2.3976,-2.4094,-2.417,-2.4199,-2.4303,-2.4412,-2.4482,-2.4549,-2.4647,-2.4781,-2.4917,-2.5012,-2.5092,-2.5107,-2.5125,-2.5197,-2.5201,-2.5243,-2.5379,-2.5451,-2.5488,-2.5502,-2.5564,-2.5603,-2.5596,-2.56,-2.5631,-2.57,-2.5703,-2.5695,-2.5699,-2.5703,-2.5703,-2.57,-2.5702,-2.5701,0.0,0.0,0.0,0.0,0.0,0.0,0.0,0.0,0.0,0.0,0.0,-2.1194,-2.2383,-2.2587,-2.2542,-2.2441,-2.2386,-2.2386,-2.2386,-2.1759,-2.1257,-2.1177,-2.1185,-2.1097,-2.0935,-2.1616,-2.2064,-2.2015,-2.2073,-2.2093,-2.2093,-2.2064,-2.2064,-2.2064,-2.2073,-2.2064,-2.2044,-2.2064,-2.2064,-2.2044,-2.2152,-2.2205,-2.2234,-2.2291,-2.2254,-2.2205,-2.2118,-2.1957,-2.1738,-2.1495,-2.1261,-2.0999,-2.0868,-2.0793,-2.0801,-2.0801,-2.0843,-2.095,-2.0942,-2.1087,-2.1238,-2.1278,-2.1379,-2.1479,-2.1532,-2.1631,-2.1776,-2.1835,-2.1995,-2.2141,-2.2245,-2.2509,-2.2825,-2.3093,-2.3436,-2.3774,-2.3896,-2.3937,-2.4016,-2.417,-2.4219,-2.4284,-2.4403,-2.4515,-2.4654,-2.4783,-2.487,-2.4963,-2.5079,-2.5092,-2.5132,-2.5197,-2.5201,-2.5223,-2.5313,-2.5377,-2.5445,-2.5503,-2.5564,-2.5595,-2.5594,-2.5605,-2.5632,-2.57,-2.5703,-2.5701,-2.5701,-2.5702,-2.5703,-2.57,-2.5702,-2.5701,0.0,0.0,0.0,0.0,0.0,0.0,0.0,0.0,0.0,0.0,-2.025,-2.0745,-2.2036,-2.1972,-2.1807,-2.1969,-2.2028,-2.2057,-2.2028,-2.1401,-2.096,-2.0905,-2.0886,-2.083,-2.0701,-2.1396,-2.184,-2.1819,-2.1899,-2.194,-2.192,-2.194,-2.1949,-2.192,-2.189,-2.189,-2.189,-2.1949,-2.194,-2.194,-2.2061,-2.2098,-2.2106,-2.2217,-2.2234,-2.2177,-2.2003,-2.1819,-2.1634,-2.1356,-2.1119,-2.0901,-2.0794,-2.0744,-2.0744,-2.0744,-2.0794,-2.0844,-2.0844,-2.095,-2.1055,-2.1055,-2.1159,-2.1262,-2.1285,-2.1379,-2.1481,-2.1503,-2.1639,-2.1811,-2.189,-2.2101,-2.239,-2.2686,-2.3124,-2.3522,-2.3703,-2.3789,-2.3843,-2.4025,-2.4105,-2.4182,-2.4339,-2.4524,-2.4679,-2.4779,-2.4856,-2.4945,-2.5079,-2.5101,-2.5129,-2.5193,-2.52,-2.5233,-2.5283,-2.5359,-2.5427,-2.5505,-2.5557,-2.5599,-2.5599,-2.56,-2.5624,-2.5694,-2.5697,-2.5698,-2.5697,-2.5699,-2.5703,-2.5701,-2.5702,-2.5701,0.0,0.0,0.0,0.0,0.0,0.0,0.0,0.0,0.0,0.0,-1.9796,-2.0458,-2.1702,-2.1428,-2.1142,-2.1565,-2.1648,-2.1678,-2.1587,-2.1001,-2.0587,-2.0587,-2.0537,-2.0516,-2.0487,-2.1177,-2.1625,-2.1595,-2.173,-2.1781,-2.173,-2.1781,-2.1781,-2.1721,-2.1759,-2.1768,-2.1768,-2.1819,-2.184,-2.1869,-2.1949,-2.199,-2.199,-2.2106,-2.2131,-2.2111,-2.1894,-2.1678,-2.152,-2.127,-2.1063,-2.0901,-2.0819,-2.0794,-2.0794,-2.0802,-2.0802,-2.0827,-2.0827,-2.0852,-2.0942,-2.0901,-2.0998,-2.1111,-2.1143,-2.1175,-2.1183,-2.1254,-2.1419,-2.155,-2.1625,-2.1781,-2.2007,-2.2318,-2.2695,-2.3093,-2.3462,-2.3567,-2.3691,-2.3855,-2.4028,-2.4182,-2.4321,-2.4541,-2.4704,-2.4789,-2.4856,-2.4945,-2.5079,-2.5101,-2.5126,-2.5189,-2.5198,-2.5212,-2.5282,-2.535,-2.5429,-2.5497,-2.555,-2.5589,-2.5599,-2.5595,-2.5634,-2.5685,-2.5688,-2.5696,-2.5697,-2.5696,-2.5702,-2.5702,-2.5696,-2.5705,0.0,0.0,0.0,0.0,0.0,0.0,0.0,0.0,0.0,0.0,-1.9323,-2.0031,-2.1393,-2.156,-2.1466,-2.1285,-2.127,-2.1254,-2.1111,-2.0509,-2.01,-2.01,-2.0152,-2.0144,-2.0077,-2.085,-2.1325,-2.127,-2.1348,-2.1371,-2.1371,-2.1425,-2.1471,-2.1448,-2.1573,-2.162,-2.162,-2.1642,-2.1664,-2.1746,-2.184,-2.194,-2.199,-2.1957,-2.1907,-2.1857,-2.1738,-2.1565,-2.1317,-2.1199,-2.1023,-2.0901,-2.0777,-2.0744,-2.0794,-2.0744,-2.0802,-2.0901,-2.0901,-2.0966,-2.1054,-2.095,-2.0998,-2.107,-2.0982,-2.1038,-2.1143,-2.1183,-2.1262,-2.1348,-2.1417,-2.1565,-2.1724,-2.1928,-2.2084,-2.2356,-2.3102,-2.3313,-2.3435,-2.3753,-2.4048,-2.4339,-2.4523,-2.4599,-2.4654,-2.4789,-2.4803,-2.4884,-2.5089,-2.5101,-2.5126,-2.5189,-2.5195,-2.52,-2.5212,-2.5332,-2.5434,-2.5501,-2.5507,-2.5541,-2.5601,-2.5599,-2.5605,-2.5615,-2.5675,-2.5696,-2.5697,-2.5699,-2.5698,-2.5703,-2.5702,-2.5704,0.0,0.0,0.0,0.0,0.0,0.0,0.0,0.0,0.0,-1.7775,-1.849,-1.9345,-2.0909,-2.0876,-2.0645,-2.0764,-2.0876,-2.0868,-2.0697,-2.0452,-2.0287,-2.0287,-2.036,-2.0424,-2.0408,-2.0783,-2.0998,-2.0974,-2.1103,-2.1159,-2.1071,-2.1214,-2.1262,-2.123,-2.1341,-2.1396,-2.1419,-2.1472,-2.1565,-2.1686,-2.1768,-2.1811,-2.1899,-2.1869,-2.184,-2.1789,-2.1694,-2.1511,-2.1285,-2.1207,-2.1135,-2.1055,-2.1006,-2.1014,-2.1006,-2.0982,-2.1006,-2.1063,-2.1063,-2.1111,-2.1159,-2.1103,-2.1079,-2.1078,-2.1022,-2.1054,-2.1111,-2.1135,-2.1183,-2.1262,-2.1285,-2.1325,-2.1419,-2.157,-2.1645,-2.1815,-2.2402,-2.2807,-2.3214,-2.3658,-2.4019,-2.4293,-2.4452,-2.4547,-2.4654,-2.4789,-2.4803,-2.4861,-2.5012,-2.5047,-2.5073,-2.5134,-2.5182,-2.5197,-2.5202,-2.5322,-2.5425,-2.5493,-2.55,-2.5531,-2.5601,-2.5603,-2.56,-2.56,-2.567,-2.5704,-2.5698,-2.5705,-2.5704,-2.5702,-2.5703,-2.57,0.0,0.0,0.0,0.0,0.0,0.0,0.0,0.0,-1.5647,0.0,-1.7585,-1.8338,-1.978,-1.9955,-2.0026,-2.0306,-2.0433,-2.0426,-2.0239,-2.0281,-2.0315,-2.0315,-2.0433,-2.0517,-2.0517,-2.0603,-2.0662,-2.0662,-2.0835,-2.0868,-2.0778,-2.0998,-2.1087,-2.103,-2.1127,-2.1215,-2.1262,-2.1332,-2.1456,-2.1595,-2.1664,-2.1716,-2.1768,-2.1789,-2.1789,-2.1768,-2.1664,-2.1511,-2.1309,-2.1262,-2.1238,-2.1247,-2.1247,-2.1215,-2.1215,-2.1207,-2.1247,-2.1238,-2.123,-2.127,-2.131,-2.127,-2.1215,-2.1191,-2.1191,-2.1159,-2.1159,-2.1199,-2.1223,-2.1247,-2.1247,-2.1167,-2.1167,-2.1277,-2.1301,-2.1432,-2.199,-2.2581,-2.31,-2.3584,-2.3939,-2.4229,-2.4373,-2.4504,-2.4629,-2.4749,-2.4798,-2.4842,-2.4976,-2.4999,-2.5025,-2.5088,-2.5146,-2.5184,-2.5201,-2.5312,-2.5407,-2.5466,-2.549,-2.5525,-2.5605,-2.5597,-2.5604,-2.56,-2.5653,-2.5683,-2.5694,-2.5698,-2.5699,-2.5698,-2.5702,-2.5703,0.0,0.0,0.0,0.0,0.0,0.0,0.0,0.0,0.0,-1.6413,-1.6612,-1.6833,-1.7547,-1.9049,-2.0151,-2.0053,-1.9932,-1.9839,-1.9754,-1.9754,-1.9754,-1.9754,-1.9919,-2.0041,-2.0041,-2.02,-2.0339,-2.0339,-2.0381,-2.0415,-2.0423,-2.0677,-2.0827,-2.0827,-2.099,-2.1111,-2.1111,-2.1238,-2.1309,-2.1309,-2.1595,-2.1686,-2.1724,-2.1768,-2.1768,-2.1716,-2.1686,-2.1587,-2.1386,-2.1386,-2.1332,-2.1285,-2.1285,-2.127,-2.1215,-2.1262,-2.1285,-2.1309,-2.1363,-2.1464,-2.155,-2.1425,-2.1394,-2.1386,-2.1386,-2.134,-2.1325,-2.152,-2.145,-2.1285,-2.1285,-2.1111,-2.0942,-2.1095,-2.1038,-2.1197,-2.2254,-2.285,-2.3259,-2.3553,-2.3876,-2.4171,-2.4367,-2.4462,-2.4545,-2.4692,-2.4757,-2.485,-2.4987,-2.5,-2.5037,-2.5092,-2.5098,-2.5127,-2.5187,-2.5253,-2.5332,-2.5401,-2.5464,-2.5535,-2.5596,-2.5605,-2.5597,-2.5604,-2.56,-2.5638,-2.5704,-2.5694,-2.5698,-2.5699,-2.5704,-2.5702,0.0,0.0,0.0,0.0,0.0,0.0,0.0,-1.3752,-1.4192,-1.4913,-1.5616,-1.6178,-1.6434,-1.7929,-1.9054,-1.8934,-1.9197,-1.9398,-1.931,-1.9317,-1.9317,-1.9317,-1.942,-1.9537,-1.9596,-1.9726,-1.9818,-1.9904,-2.0068,-2.0138,-2.0138,-2.0415,-2.0543,-2.0543,-2.0726,-2.0884,-2.0958,-2.1135,-2.127,-2.1317,-2.1433,-2.1556,-2.1642,-2.1664,-2.1664,-2.1642,-2.1642,-2.1534,-2.1386,-2.1386,-2.1433,-2.1481,-2.1481,-2.1489,-2.1466,-2.1481,-2.1442,-2.1363,-2.1386,-2.1425,-2.1464,-2.1417,-2.1386,-2.1417,-2.1503,-2.1511,-2.152,-2.1589,-2.1481,-2.1332,-2.1262,-2.1079,-2.0901,-2.0958,-2.1055,-2.1324,-2.1978,-2.2589,-2.3093,-2.3357,-2.3676,-2.3978,-2.4173,-2.433,-2.4506,-2.4667,-2.4732,-2.4763,-2.4865,-2.4865,-2.4917,-2.5027,-2.504,-2.5082,-2.5182,-2.4751,-2.4495,-2.4556,-2.4099,-2.3854,-2.3934,-2.4468,-2.4768,-2.4767,-2.5327,-2.5634,-2.5703,-2.5704,-2.5697,-2.5703,-2.5699,-2.5698,0.0,0.0,0.0,0.0,0.0,0.0,0.0,0.0,-1.3423,-1.3856,-1.4675,-1.5308,-1.5235,-1.6329,-1.7419,-1.7942,-1.8324,-1.8602,-1.8769,-1.8805,-1.8798,-1.8822,-1.8921,-1.9035,-1.9176,-1.928,-1.9339,-1.9508,-1.9697,-1.982,-1.982,-2.0103,-2.032,-2.0388,-2.0525,-2.0677,-2.0819,-2.0998,-2.1095,-2.1183,-2.1301,-2.1402,-2.1489,-2.1581,-2.1589,-2.1589,-2.1589,-2.1503,-2.1386,-2.1386,-2.1433,-2.1489,-2.1503,-2.1511,-2.152,-2.1589,-2.1503,-2.1417,-2.1456,-2.1425,-2.1417,-2.1456,-2.1425,-2.1417,-2.1625,-2.1642,-2.1642,-2.1664,-2.1565,-2.1433,-2.1262,-2.1095,-2.095,-2.0877,-2.1111,-2.1425,-2.1781,-2.2345,-2.2902,-2.3217,-2.354,-2.3834,-2.4048,-2.4247,-2.4429,-2.4606,-2.4411,-2.4288,-2.4354,-2.4124,-2.4007,-2.4117,-2.4153,-2.4195,-2.4295,-2.3846,-2.3592,-2.3664,-2.3182,-2.2917,-2.2959,-2.3537,-2.3857,-2.3861,-2.443,-2.4895,-2.523,-2.552,-2.5684,-2.57,-2.5701,-2.5702,0.0,0.0,0.0,0.0,0.0,0.0,-1.2243,0.0,-1.2962,-1.335,-1.3819,-1.4104,-1.3914,-1.4344,-1.5325,-1.7105,-1.732,-1.7481,-1.8078,-1.8175,-1.8208,-1.8266,-1.839,-1.8546,-1.8745,-1.8822,-1.895,-1.9071,-1.9258,-1.9376,-1.9384,-1.9777,-2.0103,-2.0388,-2.0388,-2.0491,-2.0693,-2.0769,-2.0811,-2.0893,-2.1183,-2.1285,-2.1317,-2.1489,-2.1589,-2.1589,-2.1581,-2.1503,-2.1386,-2.1386,-2.1363,-2.1309,-2.1394,-2.1363,-2.1317,-2.152,-2.1503,-2.1425,-2.155,-2.1503,-2.1425,-2.155,-2.1503,-2.1448,-2.17,-2.1738,-2.1708,-2.1759,-2.1686,-2.155,-2.1356,-2.1215,-2.1062,-2.0868,-2.1103,-2.1479,-2.173,-2.2206,-2.2703,-2.3102,-2.3467,-2.3786,-2.4054,-2.4209,-2.4321,-2.4436,-2.3841,-2.3412,-2.3449,-2.2778,-2.2322,-2.2388,-2.2477,-2.2538,-2.2536,-2.2629,-2.2729,-2.2794,-2.2813,-2.282,-2.2823,-2.2905,-2.2962,-2.2962,-2.2992,-2.3416,-2.4257,-2.5143,-2.5607,-2.5704,-2.5697,-2.5701,-1.1394,0.0,0.0,0.0,0.0,0.0,0.0,0.0,-1.1972,-1.1973,-1.2615,-1.3166,-1.3064,-1.3433,-1.4046,-1.4792,-1.5587,-1.6379,-1.6999,-1.7126,-1.7281,-1.782,-1.7915,-1.8042,-1.8347,-1.8386,-1.8503,-1.8781,-1.892,-1.9019,-1.9183,-1.9545,-1.9876,-2.0103,-2.0243,-2.0381,-2.0491,-2.0703,-2.0827,-2.0819,-2.1046,-2.1167,-2.1159,-2.1247,-2.1302,-2.1302,-2.1356,-2.1371,-2.1417,-2.1503,-2.1542,-2.152,-2.1425,-2.1363,-2.1317,-2.1302,-2.1247,-2.1183,-2.1111,-2.1119,-2.1183,-2.1111,-2.1183,-2.1294,-2.1402,-2.1464,-2.1487,-2.1509,-2.1487,-2.1402,-2.1222,-2.1175,-2.1159,-2.1111,-2.1246,-2.1456,-2.1678,-2.2007,-2.2411,-2.2952,-2.3289,-2.358,-2.3905,-2.4065,-2.4017,-2.362,-2.3391,-2.3067,-2.2561,-2.2332,-2.2253,-2.2322,-2.2912,-2.3315,-2.336,-2.2915,-2.2659,-2.2719,-2.165,-2.102,-2.102,-2.1636,-2.2014,-2.2058,-2.2675,-2.3126,-2.3363,-2.4277,-2.5068,-2.5703,-2.5703,-2.5699,0.0,0.0,0.0,0.0,0.0,0.0,-1.0643,-1.0949,-1.1242,-1.114,-1.169,-1.2133,-1.2052,-1.2367,-1.2697,-1.2899,-1.3713,-1.4679,-1.5744,-1.5938,-1.6133,-1.6619,-1.691,-1.723,-1.7528,-1.7885,-1.8156,-1.8379,-1.8567,-1.8798,-1.9064,-1.9362,-1.9625,-1.9884,-2.0025,-2.0166,-2.0346,-2.0501,-2.0628,-2.0695,-2.0859,-2.0932,-2.099,-2.1038,-2.1135,-2.1215,-2.1238,-2.1309,-2.1417,-2.1464,-2.1503,-2.1503,-2.1371,-2.1285,-2.1222,-2.1095,-2.1038,-2.0949,-2.0893,-2.0901,-2.0932,-2.0852,-2.0958,-2.1071,-2.1191,-2.1277,-2.1363,-2.1363,-2.134,-2.1277,-2.1143,-2.1151,-2.1183,-2.1159,-2.1262,-2.1394,-2.1503,-2.1511,-2.1726,-2.2669,-2.3118,-2.3369,-2.3364,-2.3493,-2.3382,-2.2722,-2.2354,-2.2002,-2.1613,-2.1321,-2.1171,-2.1202,-2.2015,-2.2571,-2.2609,-2.2612,-2.2462,-2.2143,-2.129,-2.0646,-2.031,-2.0788,-2.1095,-2.1159,-2.1665,-2.2111,-2.2503,-2.3388,-2.4286,-2.5173,-2.5534,-2.5703,0.0,0.0,0.0,0.0,0.0,0.0,-1.0015,-1.0323,-1.06,-1.055,-1.0876,-1.1113,-1.0972,-1.1237,-1.1486,-1.1452,-1.1913,-1.283,-1.4396,-1.47,-1.4834,-1.5114,-1.5672,-1.6179,-1.6512,-1.7263,-1.7767,-1.7853,-1.8259,-1.862,-1.9026,-1.9183,-1.9406,-1.9654,-1.9651,-1.9834,-2.0154,-2.0085,-2.0149,-2.0268,-2.0383,-2.0522,-2.0684,-2.0758,-2.091,-2.1175,-2.1183,-2.1262,-2.1386,-2.1386,-2.1386,-2.1394,-2.123,-2.1143,-2.1063,-2.0909,-2.0811,-2.0769,-2.0761,-2.0703,-2.0693,-2.0736,-2.0769,-2.0827,-2.0998,-2.1167,-2.1285,-2.1294,-2.123,-2.1151,-2.1103,-2.1071,-2.107,-2.1023,-2.1094,-2.114,-2.1098,-2.0817,-2.0902,-2.2054,-2.2647,-2.2872,-2.25,-2.2605,-2.2484,-2.1767,-2.1094,-2.067,-2.0669,-2.0089,-1.969,-1.9701,-2.0628,-2.1246,-2.1236,-2.2149,-2.239,-2.1621,-2.1512,-2.1171,-2.046,-2.0349,-2.0328,-2.0389,-2.0396,-2.0813,-2.1653,-2.2557,-2.3427,-2.4277,-2.5155,-2.5559,0.0,0.0,0.0,0.0,-0.9408,0.0,-0.9455,-0.9491,-0.9514,-0.9563,-0.9883,-1.0155,-1.0072,-1.0466,-1.0749,-1.0572,-1.108,-1.1996,-1.3406,-1.3745,-1.4061,-1.4647,-1.4991,-1.5299,-1.5619,-1.629,-1.6791,-1.7013,-1.7839,-1.8411,-1.8627,-1.8957,-1.9213,-1.9369,-1.9075,-1.9008,-1.9152,-1.8809,-1.8661,-1.8733,-1.8819,-1.9233,-1.9925,-1.9996,-2.0353,-2.0974,-2.1135,-2.1207,-2.1238,-2.1238,-2.1262,-2.1309,-2.1159,-2.0998,-2.0827,-2.0654,-2.0553,-2.0561,-2.0517,-2.0509,-2.0527,-2.0483,-2.0585,-2.0718,-2.076,-2.0965,-2.1159,-2.1207,-2.1087,-2.0982,-2.107,-2.0663,-2.0276,-2.0408,-2.0376,-2.0213,-1.9714,-2.0036,-2.0389,-2.0219,-2.066,-2.1122,-2.136,-2.1571,-2.147,-2.0853,-2.0636,-2.0344,-1.9818,-1.9676,-1.9638,-1.969,-2.1118,-2.209,-2.2133,-2.2972,-2.3433,-2.3319,-2.2122,-2.1368,-2.1273,-2.0641,-2.0313,-2.0318,-2.0371,-2.0486,-2.0681,-2.2246,-2.312,-2.3369,-2.4252,-2.4651,0.0,0.0,0.0,-0.8762,-0.8822,0.0,0.0,-0.8811,-0.8762,-0.8833,-0.8945,-0.9059,-0.9059,-0.939,-0.9688,-0.9604,-1.007,-1.0714,-1.1513,-1.2136,-1.2687,-1.3119,-1.3612,-1.4012,-1.4309,-1.5214,-1.5943,-1.6286,-1.6859,-1.7439,-1.7963,-1.828,-1.8671,-1.9169,-1.8736,-1.8572,-1.8744,-1.8238,-1.8034,-1.8097,-1.8199,-1.8501,-1.9014,-1.91,-1.9397,-1.9798,-1.9984,-2.0262,-2.0605,-2.0551,-2.0727,-2.0998,-2.0941,-2.0769,-2.0587,-2.0376,-2.0315,-2.0289,-2.0262,-2.0115,-1.9896,-1.987,-1.9719,-1.9569,-1.9585,-1.9783,-2.0088,-2.0423,-2.0393,-2.0202,-1.9917,-1.9822,-1.978,-1.9621,-1.9613,-1.9492,-1.913,-1.9167,-1.9174,-1.8954,-1.8984,-1.9312,-2.0167,-2.0521,-2.0499,-1.9844,-1.9835,-1.9785,-1.9444,-1.9522,-1.9606,-1.9652,-2.0852,-2.1834,-2.2311,-2.3183,-2.3711,-2.3752,-2.2652,-2.1828,-2.1471,-2.0708,-2.0318,-2.0354,-2.0375,-2.0398,-2.0395,-2.1284,-2.1959,-2.2471,-2.3348,-2.3975,0.0,0.0,0.0,0.0,0.0,-0.8324,0.0,0.0,0.0,-0.8179,-0.808,-0.8033,-0.8109,0.0,0.0,-0.8618,-0.9061,-0.9425,-0.9659,-1.0459,-1.1145,-1.1431,-1.2118,-1.2623,-1.2906,-1.4071,-1.5084,-1.5691,-1.5925,-1.6391,-1.7202,-1.7571,-1.8075,-1.8786,-1.831,-1.8144,-1.8337,-1.7672,-1.7387,-1.749,-1.7607,-1.7831,-1.8115,-1.8229,-1.8412,-1.8679,-1.8783,-1.916,-1.9708,-1.9654,-1.987,-2.025,-2.055,-2.0535,-2.0308,-2.015,-2.008,-2.0058,-1.9928,-1.9607,-1.9206,-1.9108,-1.8771,-1.8416,-1.8484,-1.8665,-1.891,-1.9396,-1.9445,-1.9218,-1.8692,-1.8857,-1.9068,-1.8787,-1.8803,-1.8812,-1.8631,-1.8325,-1.8095,-1.8028,-1.779,-1.7941,-1.9009,-1.9485,-1.9531,-1.9039,-1.9128,-1.9266,-1.9301,-1.944,-1.9546,-1.9583,-2.0415,-2.1245,-2.1966,-2.2897,-2.3445,-2.3455,-2.2747,-2.2035,-2.1407,-2.0665,-2.0313,-2.0383,-2.0392,-2.0396,-2.04,-2.0395,-2.0798,-2.1568,-2.2445,-2.3231,0.0,0.0,0.0,0.0,-0.7783,-0.7754,-0.7632,0.0,-0.7413,-0.7409,0.0,-0.7339,-0.7389,0.0,0.0,0.0,-0.814,-0.8603,-0.8817,-0.9109,-0.9634,-1.0538,-1.0987,-1.1306,-1.1511,-1.2788,-1.413,-1.5452,-1.5704,-1.5952,-1.6232,-1.7114,-1.7664,-1.7764,-1.7355,-1.7213,-1.735,-1.6222,-1.5795,-1.6023,-1.6053,-1.6537,-1.7412,-1.742,-1.7826,-1.8545,-1.8611,-1.8658,-1.8677,-1.8729,-1.8693,-1.8694,-1.9952,-2.0315,-2.01,-2.0025,-1.9998,-1.9914,-1.9322,-1.9106,-1.8938,-1.8419,-1.8307,-1.8408,-1.8559,-1.8559,-1.8552,-1.863,-1.8547,-1.8432,-1.8431,-1.8003,-1.7649,-1.7944,-1.8027,-1.7914,-1.7479,-1.7799,-1.8028,-1.7443,-1.7419,-1.765,-1.8095,-1.8441,-1.8718,-1.8816,-1.8931,-1.9095,-1.9276,-1.9317,-1.9383,-1.9494,-2.0308,-2.0886,-2.105,-2.1919,-2.2476,-2.2542,-2.1801,-2.1337,-2.1317,-2.0602,-2.0242,-2.031,-2.0373,-2.0401,-2.0406,-2.0404,-2.0493,-2.0673,-2.1545,-2.2004,0.0,0.0,0.0,-0.7387,-0.7417,-0.7353,-0.7184,-0.7017,-0.6884,-0.6794,0.0,0.0,0.0,0.0,0.0,0.0,-0.7351,-0.764,-0.7918,-0.8094,-0.8586,-0.9685,-1.0017,-1.0437,-1.1063,-1.1846,-1.2545,-1.3198,-1.3794,-1.4332,-1.4849,-1.5736,-1.6437,-1.6942,-1.65,-1.6317,-1.6517,-1.5717,-1.5388,-1.5514,-1.5712,-1.6035,-1.6416,-1.6588,-1.6864,-1.7176,-1.7283,-1.7559,-1.7913,-1.7817,-1.7929,-1.8229,-1.8765,-1.9131,-1.9406,-1.9226,-1.9226,-1.9135,-1.8433,-1.8,-1.7666,-1.7068,-1.6973,-1.7138,-1.7604,-1.7457,-1.7233,-1.7574,-1.7615,-1.7456,-1.7161,-1.7159,-1.7231,-1.7168,-1.7253,-1.7337,-1.7181,-1.7394,-1.7524,-1.7164,-1.7199,-1.74,-1.7616,-1.7993,-1.8351,-1.8594,-1.8761,-1.8923,-1.9051,-1.9141,-1.9212,-1.9326,-1.9721,-2.0193,-2.0745,-2.1223,-2.1718,-2.2247,-2.1594,-2.1005,-2.0563,-2.0326,-2.0211,-2.024,-2.0309,-2.0353,-2.0401,-2.04,-2.0433,-2.0506,-2.0881,-2.1318,-0.6634,-0.6816,-0.6966,-0.7017,-0.7042,-0.6987,-0.679,-0.6573,-0.6382,-0.6264,-0.6233,0.0,0.0,0.0,0.0,0.0,0.0,-0.685,0.0,-0.7319,-0.7803,-0.8834,-0.9202,-0.9728,-1.0647,-1.0991,-1.1268,-1.1563,-1.2203,-1.293,-1.3663,-1.448,-1.5312,-1.6118,-1.5777,-1.5688,-1.5919,-1.5432,-1.5215,-1.5313,-1.5595,-1.5741,-1.5799,-1.6026,-1.6139,-1.6159,-1.6262,-1.6588,-1.7089,-1.6916,-1.712,-1.7517,-1.759,-1.7889,-1.8301,-1.8332,-1.8365,-1.8302,-1.754,-1.6964,-1.6465,-1.6085,-1.5983,-1.6138,-1.6618,-1.6472,-1.621,-1.6633,-1.6727,-1.6562,-1.612,-1.6441,-1.6765,-1.6554,-1.6667,-1.6874,-1.6983,-1.7049,-1.7066,-1.7006,-1.7083,-1.7183,-1.7313,-1.7729,-1.8137,-1.8377,-1.8591,-1.8752,-1.8825,-1.8965,-1.9067,-1.9144,-1.9257,-1.958,-2.0255,-2.0433,-2.0798,-2.1475,-2.1082,-2.0562,-1.9998,-2.0079,-2.0153,-2.0168,-2.0236,-2.0311,-2.0369,-2.0392,-2.0429,-2.0468,-2.049,-2.0844,-0.6098,-0.6374,-0.6622,-0.6626,-0.6626,-0.6569,-0.6368,-0.6153,-0.5994,-0.5842,-0.5811,-0.5811,-0.5811,0.0,0.0,0.0,0.0,0.0,0.0,-0.6863,-0.7285,-0.8038,-0.8488,-0.908,-0.9945,-1.0161,-1.0591,-1.1446,-1.17,-1.2165,-1.2886,-1.3772,-1.4533,-1.5223,-1.5291,-1.5447,-1.5721,-1.5174,-1.5025,-1.5313,-1.5433,-1.561,-1.5799,-1.5863,-1.5942,-1.6004,-1.6004,-1.6039,-1.6062,-1.6034,-1.6,-1.602,-1.6668,-1.6863,-1.6853,-1.7416,-1.7647,-1.7525,-1.6801,-1.615,-1.5668,-1.5777,-1.5863,-1.59,-1.5922,-1.5907,-1.59,-1.5857,-1.5836,-1.5821,-1.5799,-1.5879,-1.6,-1.6163,-1.632,-1.649,-1.6738,-1.6823,-1.6865,-1.6972,-1.7008,-1.7035,-1.7093,-1.7564,-1.7971,-1.8175,-1.8377,-1.8563,-1.8697,-1.8825,-1.8941,-1.8993,-1.9067,-1.9166,-1.9328,-1.9477,-1.9601,-1.9766,-1.9823,-1.9863,-1.9905,-1.9976,-2.0039,-2.0107,-2.0178,-2.0244,-2.0294,-2.0369,-2.0398,-2.0399,-2.0473,-2.0511,-0.6381,-0.6451,-0.6549,-0.6686,-0.6617,-0.6516,-0.6386,-0.6095,-0.5814,-0.5582,-0.5432,-0.5358,-0.5467,0.0,0.0,0.0,0.0,0.0,0.0,0.0,-0.7013,-0.7462,-0.8018,-0.8542,-0.8972,-0.9288,-0.9649,-1.0088,-1.0697,-1.1362,-1.201,-1.2879,-1.3649,-1.4319,-1.4526,-1.469,-1.4853,-1.4844,-1.4902,-1.5025,-1.5268,-1.5448,-1.5544,-1.5639,-1.5726,-1.5755,-1.582,-1.5877,-1.5848,-1.5776,-1.5726,-1.5727,-1.5884,-1.5936,-1.598,-1.6631,-1.6875,-1.6779,-1.6029,-1.5661,-1.5544,-1.5639,-1.5733,-1.5835,-1.5733,-1.5704,-1.5704,-1.561,-1.561,-1.561,-1.5675,-1.5682,-1.5725,-1.5896,-1.6029,-1.6188,-1.6359,-1.6474,-1.6551,-1.6594,-1.6675,-1.6763,-1.6817,-1.7101,-1.7439,-1.7813,-1.8074,-1.8261,-1.8351,-1.8506,-1.8658,-1.8734,-1.8825,-1.8949,-1.9095,-1.9304,-1.9484,-1.9629,-1.9696,-1.976,-1.9822,-1.9902,-1.999,-2.0098,-2.0171,-2.023,-2.0304,-2.0313,-2.0357,-2.0398,-2.0419,-2.0461,-0.6525,-0.6535,-0.6608,-0.6681,-0.6612,-0.6466,-0.6354,-0.6114,-0.5792,-0.5465,-0.5297,-0.5193,-0.5202,0.0,0.0,0.0,0.0,0.0,0.0,-0.6256,-0.6652,-0.6953,-0.7613,-0.8138,-0.841,-0.8756,-0.9069,-0.9307,-0.9933,-1.0684,-1.1507,-1.2147,-1.2888,-1.3782,-1.4007,-1.4203,-1.4326,-1.4574,-1.4763,-1.4871,-1.5154,-1.5328,-1.5374,-1.5485,-1.5544,-1.558,-1.5675,-1.5704,-1.5704,-1.561,-1.5544,-1.5544,-1.5514,-1.5514,-1.5558,-1.5948,-1.6103,-1.6044,-1.5558,-1.5448,-1.5514,-1.558,-1.5675,-1.5704,-1.561,-1.5544,-1.5514,-1.5433,-1.544,-1.5433,-1.5433,-1.5485,-1.55,-1.5514,-1.5631,-1.5746,-1.5924,-1.6037,-1.6148,-1.6254,-1.6355,-1.6436,-1.644,-1.6625,-1.696,-1.7471,-1.776,-1.7958,-1.8091,-1.8263,-1.8434,-1.8526,-1.865,-1.8798,-1.9026,-1.9241,-1.9414,-1.9526,-1.9601,-1.9683,-1.9725,-1.9844,-1.9946,-2.0058,-2.0145,-2.0225,-2.0264,-2.0289,-2.0317,-2.037,-2.0394,-2.0438]}]]